GFSSE_850_spd_000.txt.gz
Wind_Speed
4 1 5 12 9 8 7 5 7 7 9 7 8 4 9 10 7 9 8 8 6 6 5 2 5 4 6 8 6 8 11 16 16 14 13 11 7 4 6 6 6 2 5
3 1 7 11 10 7 9 6 6 10 9 8 8 6 9 10 10 10 6 3 5 4 3 5 8 4 6 7 9 10 10 12 15 9 10 9 7 7 8 7 4 5 3
2 2 7 10 10 7 6 5 10 9 9 7 3 2 1 4 6 3 1 4 5 3 5 7 6 5 6 8 9 10 13 16 18 9 9 7 7 12 11 10 6 6 6
3 4 8 10 9 7 8 5 6 7 7 6 2 3 4 4 4 5 4 5 6 9 11 8 5 7 7 7 6 9 12 13 15 11 8 8 8 14 11 9 11 7 8
3 5 6 12 11 10 6 5 4 5 7 6 4 6 4 4 5 6 9 7 9 11 10 8 8 8 5 9 9 8 11 14 16 11 10 9 9 11 12 9 11 13 12
3 4 4 11 10 10 8 6 6 5 5 4 2 7 4 5 4 9 8 7 8 11 10 7 6 6 8 9 10 11 11 13 18 10 11 11 13 12 13 13 13 14 16
3 4 4 9 10 8 8 8 6 3 4 3 2 3 3 4 6 6 12 10 11 12 14 8 6 8 9 9 10 12 12 14 15 11 13 13 13 16 14 14 14 16 15
3 3 4 6 6 5 6 4 3 3 4 3 3 6 4 6 7 8 12 11 11 11 13 9 9 9 13 14 13 12 13 13 14 13 14 15 17 17 17 17 14 17 18
4 4 4 5 6 5 5 4 4 4 5 4 6 4 4 9 10 7 8 9 9 12 12 11 9 9 12 14 15 16 14 14 15 14 16 16 18 19 18 18 20 18 20
6 5 5 5 6 6 6 3 4 6 6 5 5 4 4 5 6 7 7 9 11 12 13 14 14 11 10 14 14 15 16 17 16 15 16 18 22 20 22 22 21 22 21
7 7 5 5 6 7 6 6 3 4 4 3 3 3 2 4 6 7 8 10 11 12 13 14 14 14 15 16 15 14 16 15 14 16 17 21 22 23 24 25 25 25 25
9 7 7 6 7 7 6 4 4 5 4 4 3 3 3 4 6 7 9 11 12 13 14 14 14 15 16 14 13 18 15 15 17 18 19 20 20 22 25 27 28 29 30
9 9 7 8 9 9 7 5 5 4 3 3 2 3 5 6 8 10 11 13 14 15 14 15 16 15 16 17 18 17 19 20 20 21 24 25 23 23 24 27 29 31 32
10 9 9 9 10 10 9 7 5 4 3 2 3 4 6 8 10 11 12 12 13 13 15 16 16 17 19 20 20 22 22 23 23 25 28 32 29 27 28 28 30 31 33
11 10 11 11 12 10 10 8 5 4 4 3 3 5 6 8 9 11 12 13 14 15 16 18 19 19 20 22 24 25 26 26 26 27 30 36 37 35 33 33 33 34 34
10 9 9 11 12 11 10 8 5 4 4 4 4 6 7 8 10 12 14 15 17 17 19 20 21 24 25 24 26 25 27 27 28 30 30 33 38 39 38 37 38 38 39
7 6 7 9 13 14 13 10 7 6 5 5 6 7 8 9 11 13 15 16 15 17 21 21 21 21 21 21 22 23 23 25 27 27 27 28 30 34 32 31 32 37 40
1 2 4 6 9 13 14 12 9 8 8 8 7 7 8 9 11 12 14 14 17 19 18 18 18 20 20 20 21 23 23 25 26 27 27 28 27 31 33 34 31 30 32
4 4 4 2 3 7 10 10 9 8 6 5 5 5 6 8 9 10 11 13 15 15 15 17 18 19 23 21 22 23 24 25 25 25 27 27 26 28 29 29 32 32 31
12 13 11 10 9 8 8 7 6 4 3 2 2 3 5 6 8 10 11 13 15 17 18 19 19 19 19 20 23 25 24 25 25 23 24 24 24 25 27 30 33 33 32
16 16 16 15 14 11 10 9 8 9 9 7 7 8 8 9 10 12 14 16 17 20 21 22 20 21 20 20 24 27 26 19 20 25 19 22 31 31 29 30 31 31 31
19 18 16 15 14 13 11 11 10 10 11 10 10 9 10 11 12 14 16 19 22 23 23 25 24 24 20 21 23 28 22 28 19 26 35 24 27 31 29 28 27 29 31
19 17 17 16 14 15 15 14 13 12 12 10 9 10 11 13 16 19 21 23 24 24 23 23 22 21 20 20 19 19 24 24 35 30 30 25 22 28 32 31 30 33 36
18 17 16 15 15 16 14 13 11 10 9 10 11 12 13 16 20 22 23 23 23 23 23 23 23 21 19 19 19 17 20 25 30 37 20 30 26 27 32 34 35 37 39
16 14 14 13 14 13 11 10 10 10 11 11 11 14 17 20 22 25 26 25 24 23 22 22 22 22 20 19 19 21 22 22 25 30 41 31 35 31 34 37 37 35 37
14 12 12 10 12 11 10 10 10 10 11 12 15 18 21 24 25 25 23 22 20 19 20 22 24 24 24 24 20 19 20 23 26 29 35 39 39 38 35 37 37 34 34

GFSSE_850_spd_003.txt.gz
Wind_Speed
4 3 4 8 9 9 8 6 4 6 9 7 7 5 8 7 6 7 6 10 6 6 5 3 4 2 4 5 7 9 8 13 17 16 14 11 9 7 5 10 4 4 9
2 3 4 10 9 9 9 8 4 8 8 7 6 5 7 6 5 7 11 6 5 5 4 5 8 3 4 7 7 10 12 13 18 15 9 7 6 9 6 7 6 7 9
5 6 5 9 8 8 6 6 5 7 6 6 3 3 0 5 8 6 2 4 4 4 8 3 8 8 5 6 7 8 11 15 15 15 8 6 4 16 13 10 8 7 6
6 7 8 7 8 6 5 5 5 5 5 4 1 2 2 3 3 6 4 6 6 10 11 6 7 11 8 7 9 7 10 14 13 10 6 5 7 13 16 13 10 10 5
7 7 10 6 8 7 6 5 3 4 4 4 3 5 3 3 2 5 7 6 8 11 12 9 7 6 5 8 8 9 8 12 14 12 7 8 8 6 18 14 9 13 12
6 7 3 10 9 8 6 4 5 5 5 3 2 7 2 2 4 4 9 7 9 11 11 9 7 7 7 7 9 11 9 13 13 10 9 11 12 11 15 15 14 12 17
7 6 2 9 9 8 6 7 6 4 4 3 1 6 5 5 5 5 7 11 8 10 11 12 8 7 10 11 11 11 12 14 13 13 9 13 13 14 16 16 15 16 15
7 7 4 5 7 6 5 5 4 3 4 4 3 5 6 6 6 6 9 9 11 9 10 11 11 5 7 10 12 14 15 14 14 14 13 12 17 20 19 18 19 18 15
7 6 7 3 4 6 7 6 5 5 4 6 6 3 4 7 6 7 9 9 7 9 11 13 12 11 10 10 12 13 14 15 16 15 15 16 17 21 17 20 21 21 21
7 6 8 8 6 4 3 3 6 7 8 5 5 3 0 3 3 6 7 9 9 10 10 11 10 10 10 10 11 12 13 14 15 13 15 16 18 18 19 21 23 24 24
8 9 9 8 8 8 7 9 8 5 6 2 3 2 0 1 4 7 7 6 8 9 10 10 11 12 12 13 12 14 16 16 12 14 16 18 19 18 20 21 23 25 27
10 10 10 10 8 8 7 7 4 5 4 2 3 3 2 3 4 5 5 6 7 8 10 10 12 14 15 15 12 17 18 15 16 19 22 22 22 20 22 23 24 25 28
11 11 11 10 9 10 8 6 6 6 5 5 6 4 3 3 3 5 5 7 10 11 13 13 15 15 13 16 17 16 18 20 21 24 26 27 29 28 26 28 28 28 29
10 11 10 10 10 11 9 8 7 6 5 5 4 4 3 3 5 5 6 7 9 8 11 12 13 14 17 18 18 19 21 23 24 26 29 30 34 36 36 32 34 34 34
8 9 10 10 12 11 11 8 7 6 5 5 4 4 4 4 5 6 8 8 9 10 12 13 14 15 17 18 19 20 21 23 24 26 30 32 33 37 38 37 34 36 38
6 7 8 10 12 11 10 10 7 6 5 5 4 4 6 6 7 8 8 8 10 10 12 15 16 18 17 18 20 20 21 23 25 27 30 33 34 35 35 36 33 31 34
4 6 7 9 12 12 10 9 7 5 5 3 2 3 5 6 7 7 7 9 10 13 13 14 14 14 15 16 18 19 20 21 23 25 28 31 33 33 34 35 36 34 33
3 2 3 5 7 11 10 8 6 4 3 1 2 3 3 4 6 6 7 9 11 10 11 12 15 17 18 19 20 21 22 24 24 26 27 26 31 31 32 33 34 35 33
5 4 4 5 6 10 11 9 7 6 6 6 6 6 5 5 6 6 7 10 10 11 12 15 16 16 19 20 21 22 26 25 28 29 28 26 27 27 31 30 31 36 38
10 9 10 10 11 12 12 11 10 9 9 8 8 7 7 9 9 10 11 13 15 15 16 19 18 18 20 20 22 25 23 28 22 23 24 24 25 27 28 34 36 33 40
14 15 14 14 14 12 12 12 11 10 9 9 9 9 9 10 11 13 14 16 18 18 17 19 18 21 21 19 24 25 25 18 20 18 21 28 32 29 31 32 31 29 32
16 16 15 15 14 13 13 14 13 12 12 12 11 10 10 11 13 16 18 19 20 20 18 20 21 22 18 19 22 23 20 24 19 28 28 25 26 24 23 30 34 34 35
18 18 16 16 17 16 16 15 15 14 12 10 10 10 11 13 16 19 21 20 19 18 18 19 19 18 18 18 17 18 19 21 32 25 28 20 23 29 27 29 34 38 40
20 18 16 16 16 16 14 14 13 11 10 10 9 10 12 16 20 22 22 20 19 17 18 18 18 19 17 18 19 16 19 25 30 33 18 31 27 30 36 33 36 39 39
19 18 16 15 15 15 13 12 11 10 9 8 9 12 14 18 23 24 24 21 19 18 18 19 20 20 18 17 18 21 22 23 25 31 37 33 32 31 31 36 30 39 38
19 17 15 14 14 13 11 11 9 9 8 8 11 13 15 18 21 24 22 20 18 18 18 19 20 19 19 18 21 20 22 25 28 29 34 37 36 36 30 37 35 32 33

GFSSE_850_spd_006.txt.gz
Wind_Speed
6 1 4 7 10 8 5 4 3 3 8 7 6 2 8 7 4 5 4 7 8 7 5 5 5 1 2 3 3 5 8 9 14 15 12 8 7 6 5 7 2 3 7
6 2 4 9 10 8 6 4 3 3 8 7 6 4 8 4 2 6 7 8 6 6 7 4 3 3 2 2 5 7 10 13 16 15 10 5 4 5 8 7 5 6 5
1 4 6 10 8 5 4 4 3 6 6 5 3 6 3 4 2 6 3 2 3 5 10 3 7 2 5 7 5 7 7 12 13 9 5 3 5 9 13 13 9 9 7
4 2 8 9 8 6 4 3 3 4 4 4 2 3 2 3 1 3 6 3 4 9 11 5 6 10 11 10 6 10 5 10 10 8 4 0 4 9 12 15 11 12 9
7 3 2 5 9 6 6 4 2 5 4 3 3 6 3 3 1 2 2 3 5 9 11 10 5 4 4 6 10 11 10 11 12 7 2 8 10 7 13 15 13 10 13
7 5 4 8 9 10 6 3 2 4 5 4 2 7 5 3 2 2 3 7 12 8 8 10 7 5 5 6 7 9 13 12 14 10 7 7 14 13 15 16 14 15 16
8 4 3 5 9 8 6 4 4 2 4 4 1 8 6 3 2 5 3 9 12 11 8 10 12 9 8 9 10 12 13 13 14 13 12 12 12 17 18 18 17 17 19
11 7 3 5 7 8 6 5 2 2 2 4 3 5 7 7 5 4 4 9 12 9 10 10 11 10 8 9 10 11 12 12 13 13 12 10 14 18 18 18 20 20 22
9 7 3 4 6 6 5 3 4 3 2 2 4 2 5 6 5 4 7 8 6 7 8 8 8 9 9 9 10 11 13 13 14 15 13 12 12 15 15 16 18 20 22
9 8 6 3 3 4 2 1 3 5 6 4 2 2 1 3 2 3 5 6 6 8 9 9 9 10 11 12 12 12 12 15 17 15 14 13 13 14 16 18 18 21 22
10 11 10 6 6 2 4 4 5 5 3 1 1 3 3 4 4 6 6 8 8 8 9 10 10 12 13 14 12 12 18 19 17 17 18 18 20 21 20 21 21 21 22
11 12 13 11 11 10 10 10 5 3 2 2 3 4 3 3 5 6 6 5 7 8 10 11 13 16 17 18 20 20 21 21 21 23 26 25 25 26 27 26 26 27 27
12 11 14 13 13 10 10 7 3 3 3 2 5 5 2 3 2 5 7 11 13 13 15 17 18 19 20 22 22 23 23 24 25 27 28 28 29 30 32 34 33 31 32
12 14 14 15 14 13 11 8 7 6 5 4 4 4 4 2 5 6 8 10 12 13 14 14 15 16 18 18 20 21 22 24 25 27 29 29 31 33 33 35 36 36 34
11 16 17 13 14 15 13 8 10 6 6 4 7 4 5 2 3 5 5 7 9 10 11 14 17 18 19 18 19 20 22 23 23 25 27 28 30 32 32 32 33 34 33
10 12 10 13 14 12 13 13 9 10 4 7 5 3 5 4 4 5 6 7 10 12 13 13 14 15 15 16 18 19 20 22 23 25 27 27 29 29 31 31 31 31 31
14 15 15 16 13 13 12 11 10 11 10 5 4 2 2 1 3 3 4 7 9 7 8 10 11 13 15 17 19 19 21 24 26 27 30 28 27 27 28 31 30 29 28
10 9 10 11 16 16 11 12 10 9 8 5 5 5 4 2 5 3 2 3 4 6 9 13 16 18 20 22 20 21 22 26 24 26 27 26 28 25 21 20 24 30 32
9 6 8 8 15 18 14 15 13 12 11 11 9 5 3 4 4 3 4 6 9 11 14 17 19 21 24 24 23 26 23 23 20 20 22 18 18 26 28 28 27 29 29
10 10 12 13 18 21 19 16 17 16 14 10 8 6 7 7 7 8 9 11 13 15 17 20 21 21 20 20 23 23 25 13 18 22 24 25 26 29 28 27 27 25 25
15 15 16 17 17 17 19 18 14 12 11 11 10 9 8 8 9 11 13 15 17 17 18 18 19 21 20 21 24 30 25 20 14 19 26 25 25 20 19 23 30 35 38
19 20 22 22 22 22 18 15 13 12 14 12 10 8 8 9 12 15 17 19 18 17 17 18 19 21 21 21 24 24 20 30 20 33 19 25 20 24 29 35 30 31 37
19 18 19 17 17 17 15 16 17 15 13 10 7 7 9 11 15 18 20 21 19 17 17 17 19 20 23 22 21 17 15 12 40 21 36 15 32 32 37 38 33 31 37
21 20 20 21 20 18 16 15 12 12 11 8 7 7 8 12 17 21 22 22 20 19 18 19 19 20 20 21 21 21 21 22 29 27 12 40 31 33 35 31 35 29 31
21 21 21 20 21 20 18 14 13 11 9 7 6 7 10 14 18 21 23 24 23 21 19 19 19 20 20 20 21 26 29 27 31 31 41 33 35 33 33 33 31 41 40
21 20 19 19 20 18 16 14 11 9 7 5 5 6 8 12 17 20 23 23 22 20 19 19 20 21 22 22 24 27 28 30 32 32 35 41 40 38 33 36 33 40 29

GFSSE_850_spd_009.txt.gz
Wind_Speed
5 4 7 9 12 9 6 5 3 3 6 7 5 3 7 4 2 3 5 2 8 8 6 5 5 3 4 4 2 2 6 10 13 12 11 8 4 5 5 5 5 4 4
2 6 7 12 14 11 9 5 3 4 6 6 2 7 8 5 2 2 6 7 8 3 7 5 3 3 6 4 2 4 9 13 12 11 4 1 1 3 4 7 4 9 4
6 7 9 11 11 9 9 9 5 5 4 3 4 6 5 4 1 4 3 1 4 7 8 1 7 2 5 5 7 6 7 12 13 7 2 3 3 5 5 8 8 10 9
5 7 8 11 12 8 6 7 3 2 2 2 4 4 4 4 2 2 3 2 4 8 8 5 3 6 9 10 11 9 9 10 10 7 2 6 5 7 5 10 11 9 11
4 8 7 9 10 10 9 5 1 2 2 1 4 9 4 4 3 1 1 7 11 10 9 9 4 4 4 5 6 9 10 13 16 11 7 8 7 10 11 13 13 12 12
3 4 3 5 9 9 8 4 2 2 3 2 5 9 8 5 3 2 1 3 11 12 9 10 8 8 7 6 6 7 7 9 11 12 9 10 11 8 13 18 18 13 14
5 4 3 6 8 9 7 5 2 1 3 4 4 7 6 6 4 5 4 6 11 10 8 8 9 8 8 8 9 9 11 11 11 11 12 10 12 14 13 15 17 17 15
6 5 6 8 8 9 7 5 3 3 1 3 4 5 4 6 3 2 3 6 9 7 8 9 9 9 9 9 10 11 11 12 13 13 13 12 10 12 14 15 16 17 18
10 8 7 8 8 8 5 4 3 3 1 1 2 2 2 5 4 2 3 4 6 8 9 9 9 9 10 10 11 12 13 13 15 16 14 12 10 11 12 15 17 17 18
12 10 7 7 7 5 4 4 2 2 3 2 2 2 2 4 2 1 2 3 5 8 9 10 10 11 12 13 13 12 13 15 16 16 15 15 16 16 17 16 19 20 20
14 12 9 7 7 5 3 3 0 2 2 1 1 4 6 5 2 2 4 6 8 9 9 11 10 12 13 15 16 17 18 20 20 20 21 22 22 23 22 23 24 25 26
10 14 14 11 7 5 5 3 2 2 0 4 4 3 4 2 2 4 5 5 7 9 10 13 14 15 16 18 18 19 20 21 22 23 24 23 24 24 24 25 27 27 27
9 11 17 15 11 9 9 7 6 2 2 4 2 0 1 3 1 3 4 7 10 12 14 14 13 15 16 16 18 19 19 21 21 22 24 24 26 26 26 28 28 29 31
14 12 11 16 18 15 14 9 5 2 2 2 1 3 4 2 1 3 3 5 6 9 12 13 14 15 14 14 15 14 16 17 20 19 20 20 21 23 25 27 27 27 28
11 14 14 14 19 18 14 9 10 7 5 8 6 6 7 5 3 4 4 4 7 10 12 12 12 12 11 13 12 13 14 15 17 19 20 20 21 22 23 24 26 25 26
14 17 18 17 19 19 17 12 14 11 8 8 7 6 5 6 5 3 3 7 8 9 11 11 12 11 12 14 15 15 16 16 17 20 22 19 21 18 20 22 23 24 25
18 20 20 18 16 16 18 16 13 15 11 9 10 7 5 5 5 5 6 7 7 8 7 8 11 13 15 16 17 17 17 18 19 19 19 16 14 14 15 14 13 14 16
20 21 19 19 19 17 15 17 14 13 14 12 11 8 7 6 9 7 5 4 4 6 9 12 16 18 19 20 20 19 19 15 13 10 12 13 14 18 20 21 19 16 17
22 20 20 23 22 20 18 20 19 17 15 12 11 9 7 7 5 2 1 4 7 11 13 16 17 18 19 19 19 19 17 11 10 15 17 18 19 21 22 21 21 20 21
16 14 16 22 26 25 24 23 19 18 16 14 11 8 8 6 4 3 6 9 12 14 16 17 17 17 18 19 20 20 18 10 18 10 21 17 19 19 18 19 21 22 24
13 17 19 27 28 27 27 27 23 19 16 12 10 10 8 5 4 7 10 13 16 17 17 18 18 18 19 23 26 28 22 22 6 25 16 26 17 17 20 23 28 31 31
18 20 24 27 27 25 22 20 18 17 15 13 11 9 6 4 7 11 15 17 19 18 17 17 18 20 20 22 24 23 15 21 12 28 21 20 16 24 29 29 30 29 33
22 23 24 24 24 22 18 18 19 19 17 13 10 6 4 5 9 13 16 18 20 19 18 17 18 20 22 21 20 16 10 10 41 12 33 10 32 26 36 33 33 32 26
25 23 24 25 22 16 14 16 17 16 15 12 7 4 2 5 9 13 16 19 20 19 18 17 17 18 20 23 23 22 19 23 28 23 17 43 25 38 37 37 37 29 32
25 25 25 24 23 21 19 17 17 16 12 10 6 3 1 5 9 14 18 20 20 19 18 18 18 18 20 21 22 26 27 30 31 31 35 29 37 37 41 35 36 39 34
27 26 24 23 22 20 18 17 16 13 11 9 6 2 3 8 11 14 17 20 20 18 18 18 19 20 21 22 24 24 25 29 32 34 40 41 38 36 31 33 34 31 29

GFSSE_850_spd_012.txt.gz
Wind_Speed
6 7 10 13 13 11 8 6 4 3 3 3 0 6 6 6 5 2 3 3 8 10 7 4 2 3 7 5 4 6 8 11 14 14 13 8 8 8 8 6 8 9 5
4 9 9 15 15 13 11 8 6 4 5 3 1 13 9 7 4 2 2 4 5 5 1 6 6 6 7 7 7 6 9 13 10 7 5 4 5 5 5 4 4 8 6
7 10 10 15 15 14 12 10 8 6 4 2 5 14 11 6 3 2 3 2 4 5 5 1 6 1 5 6 7 9 11 12 11 6 3 4 4 6 8 8 6 7 12
7 9 10 13 15 13 11 9 6 4 3 1 7 7 7 6 4 2 3 7 7 8 8 6 2 3 5 8 10 11 11 13 13 10 5 7 7 8 8 8 9 7 9
7 10 9 13 13 11 9 8 4 1 0 2 6 10 9 7 4 1 1 4 11 12 8 7 4 3 2 2 3 6 8 9 12 9 6 7 9 8 7 11 12 11 10
8 9 8 10 11 11 9 6 4 1 1 3 8 11 9 7 4 3 5 5 11 10 6 7 7 6 5 5 5 5 6 7 9 9 8 8 11 8 8 12 15 15 11
8 8 7 9 9 9 8 5 4 2 3 3 7 8 7 7 6 5 4 5 7 6 7 8 8 8 8 8 8 8 9 9 9 10 11 10 9 11 10 10 13 14 14
5 7 7 9 10 8 8 7 5 4 3 4 4 6 4 5 4 3 5 4 4 5 6 7 8 8 9 9 10 10 11 11 11 12 12 11 10 9 11 10 13 15 15
8 7 7 10 10 10 9 8 6 5 4 3 3 2 4 4 4 2 1 1 3 5 7 8 8 9 9 10 11 12 12 13 14 14 13 11 11 12 13 13 12 15 16
12 10 10 10 11 10 8 7 5 4 2 1 1 2 4 5 4 3 1 2 5 6 6 7 7 8 9 10 11 11 12 14 15 16 16 15 15 15 16 14 14 16 18
17 15 14 11 11 10 9 7 5 3 2 2 3 4 6 7 5 4 1 2 4 5 5 7 7 7 8 10 11 12 14 15 16 17 17 17 18 18 19 17 18 18 18
17 17 17 14 13 12 10 8 5 4 3 5 7 6 5 4 2 0 2 3 5 4 6 8 10 10 12 12 12 12 13 14 14 14 14 16 17 18 18 20 22 22 23
11 16 16 16 15 13 12 9 6 6 6 7 6 4 4 2 1 1 2 4 4 7 8 8 10 11 13 12 12 12 12 14 14 16 15 14 14 15 16 19 21 22 23
19 17 16 17 17 15 11 10 7 7 6 7 5 5 3 2 2 1 2 4 4 6 8 11 12 13 13 14 15 15 15 15 14 14 14 17 18 19 19 22 22 21 20
20 21 20 18 20 18 14 11 11 10 5 5 6 4 4 5 3 5 5 6 7 9 11 12 15 14 15 13 13 15 15 16 16 17 16 18 19 18 18 15 16 17 18
20 20 21 20 19 19 17 15 13 10 8 7 7 8 7 7 10 8 8 9 9 10 13 15 14 12 14 16 17 18 19 18 18 19 20 19 17 14 11 11 11 10 10
26 20 22 22 20 22 21 16 14 14 14 14 14 12 10 8 9 10 9 9 10 13 11 11 13 16 18 19 19 19 17 16 15 15 13 9 10 11 12 13 13 13 12
21 22 23 23 22 22 22 19 17 18 17 16 14 11 9 8 8 6 8 10 8 8 11 14 16 18 18 18 17 14 12 11 9 8 9 12 14 16 16 16 17 17 18
20 23 26 25 23 23 23 23 21 20 19 15 13 10 9 9 8 8 7 5 8 11 13 15 16 16 16 15 14 13 10 8 7 11 8 13 12 13 13 14 16 18 21
22 22 23 24 27 28 27 25 23 20 18 13 12 11 9 6 5 3 4 7 10 13 14 14 13 13 15 17 17 16 9 4 14 4 21 9 15 9 14 18 21 22 24
20 21 24 28 31 31 31 28 24 21 18 16 13 10 9 7 3 2 6 9 12 15 16 16 15 14 16 20 22 22 14 12 7 7 17 19 14 16 25 20 24 24 25
17 18 22 29 33 32 27 29 26 21 18 15 14 14 9 5 1 4 8 11 14 16 16 15 16 16 16 20 23 19 13 16 4 31 12 28 13 33 20 27 27 28 27
19 21 24 28 29 28 27 27 24 21 18 19 17 12 8 3 2 5 9 13 16 16 15 15 15 17 18 18 19 15 9 8 36 15 35 19 33 28 34 33 31 30 30
22 24 26 27 27 26 24 24 23 22 23 19 14 10 6 2 2 7 11 14 17 17 15 14 15 16 18 20 20 18 16 18 15 22 27 42 32 41 38 37 34 34 35
26 27 27 26 24 22 19 19 20 22 20 17 13 9 6 2 4 8 12 15 17 16 15 14 15 16 18 19 21 24 24 24 24 24 32 31 43 43 42 37 38 37 36
28 27 28 28 26 22 21 23 22 21 19 15 12 9 5 3 6 10 13 16 16 15 14 15 16 17 19 20 22 23 24 25 29 29 34 37 36 37 30 40 37 37 32

GFSSE_850_spd_015.txt.gz
Wind_Speed
8 10 17 14 12 11 7 6 4 2 3 2 3 6 7 9 7 4 3 6 7 6 7 3 2 5 7 6 7 8 9 11 14 16 17 13 10 12 12 9 7 7 5
6 11 14 15 13 12 9 7 4 4 5 2 5 9 7 6 3 4 6 6 5 2 3 7 7 7 8 7 6 7 10 10 10 8 8 6 5 5 6 6 6 4 6
7 11 12 16 14 13 11 8 5 5 5 2 10 13 8 6 4 5 4 2 4 5 4 4 5 1 7 6 7 8 9 11 11 9 9 5 4 5 7 8 8 6 9
7 9 11 16 15 13 11 8 6 7 4 0 9 15 11 8 4 4 6 9 8 6 6 3 1 2 4 7 7 9 9 12 12 10 8 6 7 8 8 8 8 8 8
10 10 11 14 15 12 10 8 6 5 3 4 8 10 8 6 3 2 3 9 9 8 6 6 5 3 2 1 2 3 5 6 7 7 6 7 9 9 9 6 10 11 10
10 10 9 12 13 11 10 7 5 3 3 6 8 9 9 6 5 5 3 6 7 7 7 7 7 7 6 5 4 4 4 5 7 8 8 8 8 9 10 8 12 12 12
10 10 9 11 11 9 10 7 5 3 2 5 9 9 9 6 4 5 4 4 5 5 6 7 8 8 8 8 8 9 8 8 9 10 11 10 9 9 8 10 9 11 13
7 9 9 10 10 9 9 7 6 4 3 4 7 7 7 7 5 5 5 3 2 3 5 6 7 7 7 7 8 8 8 9 9 10 11 11 10 10 10 10 10 11 14
8 8 8 9 10 10 9 8 7 6 5 4 4 5 6 7 6 6 4 2 1 3 5 6 6 6 6 6 6 7 7 8 9 9 10 10 10 11 12 13 12 10 12
11 10 8 9 12 12 10 10 8 6 4 4 3 3 5 7 6 4 3 2 3 4 5 5 5 5 5 6 7 9 10 10 11 12 11 10 10 11 12 12 13 11 13
16 14 12 11 13 13 12 10 9 6 5 4 4 4 6 8 6 5 3 3 4 4 4 5 6 6 8 9 10 9 10 11 11 11 12 11 12 12 13 14 15 16 17
17 18 16 14 14 14 14 13 9 6 6 6 6 7 7 7 5 3 2 2 2 2 4 4 5 8 9 11 12 12 12 12 12 12 13 13 12 11 12 13 14 17 17
14 18 18 16 16 16 15 13 10 7 7 8 9 7 6 5 4 3 2 0 2 4 6 8 10 10 13 14 15 15 15 16 17 17 17 16 15 16 17 18 19 21 21
18 20 18 17 19 18 15 13 9 8 7 8 8 7 5 3 3 1 1 3 5 5 7 10 12 14 17 16 18 17 16 16 17 17 17 17 17 17 17 18 18 18 15
26 26 24 21 20 19 17 14 11 9 7 8 8 6 5 4 6 3 4 5 5 8 10 13 15 18 18 16 16 17 18 18 19 18 18 19 19 19 17 15 11 13 14
27 26 27 25 21 20 19 15 11 11 9 8 8 7 7 7 7 6 6 6 8 10 13 17 17 16 17 18 19 20 21 20 18 17 17 16 15 12 10 10 11 11 11
25 25 24 27 24 21 19 15 12 12 13 12 11 10 8 9 10 8 8 9 11 13 15 14 16 18 20 20 20 18 16 15 13 12 11 11 12 13 13 14 14 15 14
27 28 26 28 26 22 20 18 18 18 17 15 14 12 11 10 9 9 8 8 11 10 13 16 19 20 20 20 17 14 13 12 11 10 11 13 14 15 15 15 15 17 18
28 27 26 28 26 24 24 22 21 19 19 18 15 12 10 9 8 8 7 6 7 11 13 15 16 18 19 17 15 13 14 12 12 10 8 13 11 13 13 13 16 19 20
21 22 25 30 29 28 27 25 23 21 19 18 14 12 9 8 8 6 4 6 8 11 13 14 15 16 17 18 17 15 10 10 11 16 11 17 13 15 11 20 21 21 21
21 20 25 31 32 32 31 29 25 23 20 15 12 11 10 9 7 3 4 6 10 14 16 17 15 14 16 19 21 20 11 9 17 11 13 22 21 19 18 27 24 26 26
22 24 27 29 32 35 34 28 26 22 19 16 13 13 12 9 5 2 5 9 12 15 16 15 14 14 15 19 21 18 12 15 5 10 23 18 25 21 31 27 30 30 30
22 23 26 30 33 35 33 27 27 23 19 17 16 16 13 9 4 2 6 10 12 15 15 14 14 15 15 15 17 12 8 7 34 16 32 26 32 33 33 33 33 33 31
21 21 21 24 31 33 30 25 26 24 21 20 20 17 12 8 4 4 7 10 13 15 14 13 14 14 16 17 17 16 15 17 14 19 24 42 36 41 40 39 38 35 37
22 22 21 24 30 30 26 24 25 24 22 23 21 16 12 7 5 6 8 11 13 15 14 13 13 15 17 18 19 21 23 24 21 19 35 41 47 46 45 42 43 40 35
24 24 25 27 28 26 23 22 22 23 25 25 21 16 11 8 6 7 9 12 14 14 14 14 15 16 17 19 21 22 22 22 25 24 32 39 43 48 47 49 40 38 35

GFSSE_850_spd_018.txt.gz
Wind_Speed
10 11 18 15 12 11 7 6 4 2 1 3 5 7 9 8 5 4 3 5 2 1 8 3 4 7 7 7 7 6 6 7 9 13 14 14 11 8 10 10 9 6 4
8 12 20 16 15 12 8 6 2 1 3 2 6 7 6 7 4 3 2 3 4 3 6 6 8 9 7 6 6 5 6 7 8 8 7 6 4 4 3 5 7 4 6
9 13 16 17 12 11 7 6 3 2 4 2 12 9 7 6 3 6 3 3 4 4 2 6 5 4 9 7 6 6 7 7 7 8 9 5 2 3 4 7 7 7 6
10 12 14 16 13 11 8 6 4 4 2 2 16 12 9 5 3 7 9 9 8 5 5 3 2 2 4 5 5 6 6 7 8 7 7 5 5 6 6 5 6 6 6
13 12 13 16 14 10 8 6 3 2 2 4 12 12 6 5 6 6 8 9 9 7 8 7 6 5 4 2 1 2 2 3 5 6 6 6 6 7 7 2 5 9 10
14 13 12 14 14 9 8 6 3 2 2 5 7 9 9 5 5 3 2 4 6 7 8 9 9 9 8 7 6 5 5 6 7 7 7 7 7 6 6 6 7 10 10
14 13 12 12 12 10 9 6 4 2 2 5 8 10 9 6 2 2 2 3 4 5 6 6 7 7 7 6 5 5 4 5 5 6 7 7 7 7 6 5 7 7 9
10 11 11 11 10 9 9 6 5 3 2 4 8 9 10 7 5 4 4 2 2 4 5 6 6 6 6 6 6 6 6 6 6 6 7 6 6 6 6 7 8 8 9
8 9 8 9 9 9 8 7 5 4 3 4 7 8 8 8 6 5 4 1 2 3 4 5 5 6 6 7 8 7 7 7 8 7 6 6 7 7 8 9 10 10 9
8 9 8 9 10 9 9 9 6 4 4 4 4 6 7 8 8 6 3 3 3 4 4 4 5 6 5 5 8 10 11 11 12 12 10 10 10 10 9 11 12 12 12
13 12 11 10 11 11 10 9 8 6 6 5 4 5 6 7 6 5 4 4 3 3 1 2 3 5 7 8 10 10 11 11 12 12 12 13 13 11 11 13 13 13 15
12 13 14 12 12 13 13 12 10 8 8 7 6 5 7 8 7 5 4 3 2 0 3 4 6 8 8 10 12 12 14 14 14 14 16 16 15 14 13 14 17 16 17
10 12 13 14 14 14 15 13 12 10 8 8 9 8 7 7 5 5 4 3 2 3 5 6 7 9 11 14 14 15 17 16 16 17 17 16 15 14 14 16 16 17 16
13 14 14 16 16 15 15 14 12 10 9 9 10 8 7 5 5 5 3 1 3 4 6 7 10 13 16 17 18 17 17 18 19 19 19 19 18 16 16 10 13 16 15
19 18 21 19 19 17 17 16 14 10 9 9 9 7 6 5 5 3 3 4 5 5 8 12 13 15 17 15 16 18 20 20 20 19 19 18 17 15 15 16 16 15 9
22 23 25 24 24 21 19 18 15 12 10 10 8 8 8 6 7 5 6 6 7 9 11 14 15 15 16 18 20 20 20 19 18 16 15 14 13 11 13 13 13 12 11
24 24 28 27 26 26 22 19 16 13 14 12 10 10 8 6 7 8 9 9 10 12 13 13 15 17 18 18 18 18 16 16 15 13 12 11 12 13 14 15 16 16 16
24 22 22 26 26 28 25 21 20 18 16 13 12 11 10 8 7 9 9 9 11 10 11 14 17 18 18 17 15 15 15 15 14 12 10 11 13 14 15 16 16 17 18
24 24 23 26 26 29 26 26 22 19 18 16 14 13 11 9 10 9 8 9 8 10 12 14 17 18 17 15 13 12 14 13 12 13 13 12 12 14 16 16 16 20 22
24 22 21 25 25 30 29 28 23 21 19 19 16 14 12 9 10 8 8 6 7 10 13 15 16 17 18 18 16 14 13 11 12 11 18 18 17 19 22 20 22 26 26
21 19 19 22 26 32 32 30 26 25 22 21 18 14 10 8 10 8 5 5 7 11 14 17 17 17 18 20 20 18 9 6 11 18 12 16 24 18 25 22 29 28 30
22 21 20 23 29 33 32 33 29 24 24 21 18 13 10 12 10 7 5 5 9 13 16 18 17 17 18 21 21 18 11 12 3 8 25 20 26 21 27 25 30 29 30
25 24 23 24 29 33 33 33 28 24 24 21 18 14 14 13 10 7 4 6 10 14 17 18 18 18 17 17 18 12 8 6 31 11 29 19 27 32 32 34 33 32 32
27 24 24 26 29 32 33 33 26 26 23 19 18 17 17 14 10 6 5 7 11 14 16 17 17 17 17 17 16 15 15 17 14 18 18 39 31 40 40 39 37 38 35
28 25 23 24 28 32 34 30 26 25 21 20 20 19 18 14 10 6 6 9 11 14 15 16 16 16 17 18 19 20 21 20 20 19 35 39 46 45 45 44 43 34 36
28 25 22 23 26 31 33 29 25 25 23 22 23 22 18 14 9 6 8 10 12 14 15 16 16 16 17 19 20 20 21 22 24 22 32 41 44 45 49 43 39 37 36

GFSSE_850_spd_021.txt.gz
Wind_Speed
11 15 16 14 11 9 9 7 6 4 3 3 6 7 8 6 4 4 4 4 6 6 8 5 7 6 9 8 6 6 5 5 7 9 10 9 8 6 8 9 10 7 6
12 15 19 16 13 12 8 6 4 2 1 1 4 9 8 6 5 2 2 2 2 6 11 8 10 7 8 9 7 5 5 6 7 7 7 7 4 2 2 2 4 5 5
13 16 19 18 16 14 7 6 3 1 3 6 11 9 7 8 3 6 3 2 4 3 3 7 8 11 8 7 6 6 6 6 5 6 6 5 3 2 2 3 5 5 5
14 15 18 19 15 12 7 5 2 1 3 9 12 8 7 3 6 11 9 8 7 5 4 3 4 4 6 5 5 6 6 4 4 5 5 4 4 5 5 4 4 4 5
15 14 16 16 13 10 7 5 2 0 3 9 16 14 7 10 8 7 8 10 10 8 9 8 6 5 5 3 1 3 4 4 5 5 5 5 4 5 5 4 4 7 9
16 16 16 16 14 9 7 5 3 1 2 8 13 11 9 5 2 4 5 7 6 7 8 8 8 7 6 5 4 4 2 2 3 4 5 5 4 3 3 4 7 10 10
15 16 17 16 14 10 8 6 4 2 2 6 10 13 9 5 4 2 1 4 4 5 5 5 6 5 5 4 5 5 4 4 4 4 4 4 3 4 4 4 5 7 8
12 14 15 16 14 10 8 7 4 3 2 5 10 12 11 7 5 5 3 1 2 3 4 4 5 5 6 7 7 6 5 4 5 4 4 4 5 5 5 6 8 8 8
12 11 12 13 13 11 9 7 5 4 4 5 10 11 11 9 6 5 3 2 1 2 3 4 5 6 5 5 5 7 8 9 10 12 10 9 9 8 9 10 10 12 11
11 11 11 12 12 12 10 8 5 5 5 6 9 9 9 9 9 7 5 4 3 3 4 3 4 3 3 5 8 11 10 11 11 10 11 10 10 11 11 13 14 15 15
12 12 12 11 11 11 11 9 7 6 6 6 6 7 9 9 8 7 7 5 4 3 2 1 3 5 7 7 10 11 11 12 11 12 12 12 12 12 12 14 15 16 16
12 14 14 12 12 12 13 11 9 8 8 7 6 6 8 9 9 8 6 5 3 1 1 3 5 7 9 10 12 13 14 14 13 13 13 13 12 12 12 13 15 16 16
8 11 13 14 13 13 13 13 11 10 9 9 8 8 9 9 9 7 6 5 3 2 4 5 7 9 11 14 16 16 15 15 15 16 16 15 14 13 12 13 16 15 14
10 9 11 13 15 14 14 14 12 12 10 10 10 10 9 8 7 7 5 3 3 3 5 6 9 12 15 17 16 15 17 18 18 18 18 17 15 13 15 16 18 15 11
15 12 13 14 16 16 16 16 15 13 11 11 12 11 10 7 7 6 4 5 4 4 6 9 13 15 15 15 17 18 18 18 18 17 16 14 13 15 14 15 16 12 11
17 17 17 18 19 20 19 18 16 15 13 13 13 10 9 9 8 7 6 6 6 7 8 12 14 14 16 17 18 18 17 16 15 14 12 11 10 12 12 13 14 14 15
20 19 21 22 24 24 24 20 19 17 16 13 12 12 11 8 8 8 8 8 7 9 12 11 14 16 17 16 17 16 15 14 13 12 10 9 9 11 13 14 14 15 16
21 21 22 24 27 26 26 25 22 20 17 16 14 12 12 12 10 7 8 8 8 9 9 12 15 17 17 16 15 15 14 13 13 11 9 7 7 9 11 13 14 15 16
26 27 25 27 25 24 27 27 25 23 20 19 17 16 15 14 10 7 9 9 8 7 10 13 15 16 15 12 11 13 13 13 11 11 11 11 12 13 16 17 18 20 23
25 26 25 27 25 23 26 31 29 27 23 22 21 19 18 14 9 7 9 8 6 7 10 12 14 14 15 15 14 14 11 8 9 10 11 14 17 18 20 20 22 25 27
24 23 26 26 27 27 29 35 33 30 26 25 23 22 18 13 9 8 9 7 6 6 9 11 12 14 15 17 16 14 8 4 12 11 14 13 17 18 23 23 27 29 30
25 24 24 23 23 25 31 36 35 32 29 27 27 24 19 13 9 11 8 6 5 7 9 11 13 15 17 19 19 14 8 7 1 10 22 21 25 15 25 24 28 28 28
25 25 26 24 24 26 32 36 34 32 30 31 29 24 19 14 13 12 9 6 6 7 10 12 14 14 16 17 17 12 7 4 24 4 22 14 22 28 30 32 31 31 31
23 25 26 23 24 26 32 37 35 33 32 30 28 24 19 16 16 12 9 6 6 8 11 13 15 16 16 16 16 16 14 14 8 14 15 30 28 36 35 35 36 33 30
28 26 27 25 24 27 33 36 34 30 30 27 26 21 19 19 17 13 9 6 6 9 11 14 16 16 17 17 17 17 17 18 18 18 26 30 38 38 38 41 38 33 32
29 29 27 26 26 28 32 36 31 30 31 28 23 22 22 21 16 12 8 6 7 10 12 14 15 16 17 17 18 18 19 19 20 20 20 28 32 31 43 38 35 34 33

GFSSE_850_spd_024.txt.gz
Wind_Speed
14 17 17 14 11 10 9 7 6 4 4 4 6 7 6 3 2 3 4 6 7 5 5 2 4 9 9 7 7 6 7 8 9 10 11 10 10 9 8 9 9 3 9
14 18 17 16 12 12 10 8 5 4 1 2 5 8 7 3 3 2 2 3 2 7 10 8 3 11 9 7 4 6 6 6 8 8 8 8 5 3 2 2 3 5 5
16 18 18 15 13 12 9 8 5 2 3 9 12 9 8 8 7 3 1 2 2 3 10 10 9 5 5 6 6 6 7 7 7 7 6 4 5 5 4 4 4 5 5
17 17 17 19 15 11 7 7 5 3 6 12 11 8 5 3 10 8 7 7 6 5 4 6 8 6 10 7 7 7 5 4 3 4 5 5 4 6 6 5 4 3 4
18 17 18 19 16 12 8 6 4 4 7 14 12 7 11 12 10 8 8 8 8 7 7 7 6 4 3 3 2 1 2 2 3 5 5 5 5 7 6 6 4 4 7
17 17 17 18 15 12 9 7 4 5 8 16 15 12 10 7 5 5 5 6 6 6 6 7 6 5 4 4 2 2 3 4 5 5 5 5 5 5 5 5 7 7 10
17 16 16 16 14 11 9 7 5 4 7 10 12 12 10 5 3 3 0 3 3 4 4 4 5 5 5 5 5 5 5 5 5 5 6 6 7 7 7 6 5 7 8
16 16 15 16 15 11 8 7 5 4 6 10 13 15 11 8 5 5 4 0 0 2 2 4 5 6 6 5 5 6 6 7 7 7 8 8 10 10 10 10 9 11 11
15 14 14 15 16 12 9 8 6 5 5 10 13 13 12 10 5 7 5 3 2 2 3 4 5 3 2 3 4 7 10 9 8 8 9 8 11 10 10 13 11 13 14
16 14 14 15 14 13 11 9 6 5 5 8 12 12 11 10 7 7 5 5 3 3 3 3 1 3 4 6 7 8 10 9 6 8 7 9 10 10 10 13 14 14 15
14 15 15 15 14 13 12 11 9 7 7 7 10 11 11 9 10 7 7 5 4 3 2 1 3 4 8 9 9 10 11 11 9 9 8 12 12 11 11 13 14 14 16
15 16 15 15 15 15 13 12 11 10 9 9 8 10 10 11 10 10 8 6 4 3 2 3 4 5 8 10 13 14 13 13 11 11 11 12 11 10 12 14 15 14 15
13 14 15 16 15 16 15 14 12 12 11 10 10 10 11 12 11 8 6 4 3 3 4 4 6 8 10 13 15 15 13 14 14 14 16 14 13 11 13 16 15 13 14
14 15 14 15 15 16 15 15 14 13 13 12 11 11 11 10 11 7 6 7 5 4 5 6 10 11 14 15 14 15 17 17 17 16 17 14 13 13 14 16 15 12 14
15 15 16 16 16 16 17 16 16 15 15 13 13 14 12 11 10 10 8 5 5 6 6 9 13 14 14 15 17 18 18 17 16 14 13 12 12 11 13 14 13 11 13
16 16 16 17 18 19 19 18 17 17 15 14 14 16 14 12 10 8 7 8 7 7 8 11 15 13 15 16 18 18 17 16 14 12 10 11 11 11 12 13 13 14 15
16 16 18 19 20 21 22 21 19 19 18 16 15 16 15 12 11 10 9 8 8 8 10 13 12 13 16 17 18 17 15 14 13 10 9 9 10 10 11 12 13 13 15
17 18 19 19 19 22 22 22 21 21 19 17 17 17 15 12 11 11 9 8 9 10 10 10 12 14 15 15 15 15 15 14 12 10 9 9 9 10 11 12 14 17 18
23 20 24 23 22 22 22 22 23 22 22 23 20 18 15 15 15 13 9 8 11 9 7 9 12 13 13 12 13 13 14 13 11 10 10 11 12 15 18 20 19 20 21
29 27 27 27 25 25 21 23 24 23 27 26 22 21 19 20 18 14 11 9 10 7 6 8 10 12 12 13 12 12 10 7 8 8 9 11 14 16 16 20 22 24 28
27 31 28 27 26 26 24 30 35 35 33 30 26 24 23 21 18 14 12 10 9 6 5 6 9 11 13 14 12 10 8 6 9 10 8 11 18 21 21 19 26 26 29
23 27 30 27 27 28 28 27 32 38 35 31 29 27 27 25 19 17 13 12 8 5 4 6 9 12 14 15 12 8 5 4 2 5 19 8 14 14 20 21 26 25 26
26 26 30 30 28 27 26 27 37 38 38 34 32 31 29 26 21 17 15 12 8 5 5 6 9 11 12 14 12 6 5 4 14 7 9 15 12 19 22 26 25 26 29
29 31 30 32 29 29 31 33 37 40 39 36 34 33 31 25 21 18 16 12 9 6 6 7 10 11 12 11 13 12 9 9 6 10 8 12 14 19 22 23 25 29 23
31 34 33 32 30 31 28 30 36 38 36 36 36 34 30 25 22 19 17 13 9 7 6 8 10 12 12 12 12 13 12 11 9 10 20 15 20 20 20 16 25 20 20
27 34 34 33 32 30 29 31 36 40 37 36 38 34 29 25 23 21 17 13 9 7 7 9 11 12 14 13 13 14 12 10 11 13 20 24 26 23 20 24 19 20 23

GFSSE_850_spd_027.txt.gz
Wind_Speed
13 14 14 13 8 9 9 8 7 6 6 6 8 7 4 2 2 3 6 7 6 4 3 1 4 10 7 6 5 4 5 7 8 9 11 12 11 9 8 8 5 5 9
17 15 15 12 10 9 8 7 5 4 2 4 6 6 5 3 2 3 4 5 1 6 7 5 9 11 8 6 2 2 5 7 8 8 8 8 8 6 4 3 2 4 7
18 17 16 15 12 11 8 7 5 2 2 7 11 10 9 4 1 0 3 4 4 3 7 7 4 2 3 3 4 6 7 7 7 6 8 9 7 9 6 4 4 3 3
18 17 17 16 13 10 7 6 4 3 8 12 12 7 3 5 5 5 6 7 6 5 5 8 7 6 7 6 6 6 5 4 4 7 9 4 4 12 8 6 4 5 4
16 15 17 17 16 10 6 6 4 5 10 11 9 4 10 14 12 9 9 9 9 8 7 5 4 2 1 2 1 1 2 4 6 11 6 7 7 10 9 7 5 4 3
16 15 18 17 14 10 7 5 4 5 11 12 10 12 11 10 8 7 7 7 7 7 7 6 6 5 5 5 5 6 7 7 8 6 6 8 8 10 10 8 7 6 6
16 15 15 17 13 10 8 6 4 5 9 13 11 10 8 6 5 4 4 4 4 4 5 5 5 5 5 6 7 7 7 7 10 4 6 6 8 11 10 10 8 8 9
17 14 14 16 13 10 8 7 5 6 8 10 12 12 9 6 3 4 3 1 1 2 3 5 5 5 5 5 5 7 8 9 7 8 7 10 11 12 10 10 10 10 11
15 15 12 15 15 11 8 7 6 5 7 11 14 14 10 7 3 7 6 2 1 1 2 4 4 3 3 4 6 8 9 9 8 6 6 6 10 9 8 9 11 13 14
15 15 15 15 15 14 12 10 7 7 7 12 13 12 10 8 5 6 4 4 2 3 2 2 2 3 5 7 8 8 9 8 6 6 5 10 10 10 10 11 12 13 13
14 15 16 15 16 14 13 12 10 9 9 11 13 12 11 6 6 4 6 3 3 3 1 1 3 5 8 6 8 10 8 5 6 5 7 10 10 9 9 11 11 13 13
15 17 17 19 16 17 15 14 11 10 10 9 11 12 11 9 8 10 7 5 4 3 2 2 4 6 5 4 8 10 6 8 6 7 12 11 10 9 10 13 12 12 12
15 16 17 17 18 20 18 17 13 11 9 10 10 10 11 11 13 10 6 4 3 4 2 3 6 7 9 11 12 9 12 11 8 7 15 12 10 10 12 14 12 12 12
16 17 18 18 18 17 19 17 15 15 13 12 12 13 12 11 9 8 5 10 6 5 3 4 6 11 13 12 12 13 13 13 10 9 15 12 11 11 14 13 11 11 13
18 18 18 19 20 18 17 15 14 15 15 14 13 13 12 12 11 9 11 8 6 4 4 8 8 11 13 13 15 15 13 10 10 8 13 12 10 11 13 12 11 12 13
19 18 18 20 20 19 19 17 16 16 16 19 15 16 15 13 13 14 11 9 7 5 7 8 11 13 13 14 14 14 12 9 9 9 6 13 11 11 13 13 12 13 14
18 19 19 20 20 21 20 19 17 17 17 20 16 16 16 16 18 12 10 7 7 8 9 9 11 11 13 13 12 13 11 10 9 8 7 8 12 10 11 12 11 12 13
20 19 20 21 21 20 20 19 19 18 18 21 18 18 18 18 13 11 12 10 7 9 10 10 9 10 11 12 12 10 11 11 9 8 9 8 9 10 13 13 16 19 19
27 24 22 23 23 23 23 22 21 20 22 23 21 21 22 17 15 14 13 10 9 10 10 7 7 8 9 11 11 10 12 12 9 8 7 10 12 14 14 18 17 19 19
31 28 25 24 24 22 22 24 22 24 25 24 24 23 21 19 17 16 15 13 10 9 8 5 6 7 8 10 11 9 12 8 7 7 7 9 10 16 17 19 19 18 22
34 33 31 29 27 25 26 27 28 31 30 33 29 27 24 22 20 19 17 15 11 10 7 5 5 7 9 11 10 9 8 10 9 8 9 7 12 15 16 13 18 20 22
31 32 31 31 28 27 27 28 29 32 35 36 33 30 27 25 23 21 19 16 13 10 7 5 5 8 10 11 10 8 3 5 6 6 8 18 10 14 12 18 22 22 21
34 34 34 33 31 29 27 27 29 35 41 40 36 35 32 29 25 23 20 17 14 11 7 5 5 6 9 11 10 4 3 3 14 7 10 10 14 13 19 24 24 23 23
36 35 34 33 32 31 31 32 36 40 42 42 39 37 33 31 29 25 21 19 15 11 8 5 6 7 8 10 11 9 5 8 3 8 4 11 16 18 21 24 26 25 28
33 35 33 31 30 30 35 30 34 36 31 38 37 36 34 33 29 25 23 19 15 12 8 6 7 8 9 9 10 10 8 9 8 10 20 13 20 20 23 22 22 28 24
30 29 33 34 31 30 31 37 36 31 32 39 41 40 36 34 30 25 24 20 16 12 8 7 8 9 10 11 11 12 10 8 9 11 18 24 25 26 21 25 24 24 22

GFSSE_850_spd_030.txt.gz
Wind_Speed
12 15 11 13 10 13 12 11 9 7 6 7 6 5 4 2 1 2 5 5 3 2 2 6 10 11 10 7 3 1 4 6 7 7 8 9 8 8 7 5 1 2 5
13 15 13 12 12 13 13 11 9 8 7 6 7 6 3 3 3 4 6 5 3 6 4 7 12 12 10 6 2 3 5 6 6 6 7 7 10 10 8 5 2 3 4
15 17 15 13 13 12 12 10 7 5 5 8 9 9 6 3 4 4 5 7 7 6 7 7 5 5 2 2 4 5 5 5 7 9 11 10 10 12 10 7 5 5 3
12 18 16 15 13 11 10 8 6 7 11 15 11 6 3 2 1 3 9 10 9 6 5 6 6 5 5 4 4 5 5 8 10 11 12 8 2 8 11 7 4 4 3
14 14 17 15 14 11 8 6 5 9 13 12 9 5 8 12 11 11 11 11 11 10 8 5 3 2 2 2 3 5 8 9 11 12 9 10 4 9 10 9 6 5 3
10 14 14 15 15 9 7 6 5 8 12 10 6 12 12 12 10 9 10 10 10 10 10 9 8 7 7 8 8 9 9 10 9 8 8 7 6 10 10 9 8 7 6
20 19 14 12 14 9 7 6 6 8 12 12 10 12 9 9 8 6 7 8 8 8 8 8 8 8 8 8 8 8 8 8 9 5 6 8 8 11 9 8 6 7 8
18 17 15 15 13 10 8 7 7 8 11 13 12 10 8 7 5 4 4 5 5 5 6 7 8 8 7 6 7 8 9 9 7 7 5 4 7 10 7 7 6 7 8
14 14 18 19 15 12 9 8 8 8 10 13 12 11 9 7 6 7 5 3 3 4 5 6 6 5 5 5 6 8 8 8 8 4 3 5 9 8 7 7 7 8 7
18 13 14 20 18 16 13 11 10 9 10 12 13 12 10 7 6 7 5 3 3 3 4 4 3 3 5 6 6 7 7 4 4 4 6 8 9 7 8 8 8 8 9
18 17 14 14 17 17 15 14 12 10 10 13 13 12 11 7 5 6 4 4 3 3 3 2 2 4 5 5 7 8 2 3 1 7 8 8 9 6 7 9 9 8 9
19 20 18 13 14 15 14 15 14 12 12 11 12 12 11 7 6 7 5 4 3 3 2 1 2 3 3 6 9 9 8 5 2 10 10 9 9 6 11 11 9 10 10
18 19 22 18 16 18 20 15 14 13 13 13 13 14 14 13 14 11 7 6 5 5 3 1 3 4 6 8 8 8 10 8 6 11 13 11 9 8 12 10 9 11 11
20 20 20 23 20 21 19 19 14 11 9 10 10 11 15 18 15 14 6 6 6 5 2 3 3 5 7 9 10 10 10 10 7 11 13 10 9 10 11 10 9 10 11
20 20 22 22 25 24 20 20 18 17 12 12 13 14 16 15 11 9 11 13 12 7 5 4 5 7 9 9 11 12 10 8 9 11 13 11 8 9 11 10 10 11 11
21 21 23 25 27 26 21 18 18 21 18 17 18 14 14 13 12 17 21 18 10 6 6 8 8 8 9 11 10 10 10 8 8 8 12 12 9 9 10 10 11 11 11
22 24 25 25 29 28 25 19 16 21 21 23 17 17 18 18 20 25 21 11 8 7 9 10 8 7 9 9 8 8 9 8 7 8 10 12 11 9 9 9 10 12 14
24 24 25 28 30 27 30 29 25 25 24 24 21 21 19 22 24 21 15 11 9 9 11 10 8 7 7 8 8 8 9 11 9 8 9 10 11 11 12 12 13 15 15
29 26 28 30 32 29 30 29 29 26 25 23 23 22 18 26 21 18 14 14 13 12 12 10 7 5 6 7 8 8 9 11 8 8 9 10 10 10 12 16 15 18 18
36 31 31 29 30 28 28 30 27 28 28 25 25 27 26 27 22 18 18 17 14 12 10 9 6 3 4 7 8 8 9 7 7 8 7 10 11 13 18 15 17 16 19
34 38 30 35 36 37 33 35 34 34 31 29 26 30 32 29 24 22 22 19 16 14 11 8 5 3 4 7 8 8 6 8 9 8 5 7 10 17 18 18 16 22 23
35 33 41 32 34 35 38 37 38 36 35 32 32 34 35 28 28 26 24 20 17 13 12 9 5 4 3 6 8 5 2 6 7 8 13 13 16 15 17 20 23 26 25
35 38 35 37 35 33 36 36 36 34 38 36 37 38 41 33 30 28 25 21 18 15 13 9 6 4 5 5 7 5 2 3 11 7 7 13 12 17 19 21 27 27 29
40 36 38 34 39 36 38 39 42 44 43 43 44 44 41 34 31 30 27 23 19 17 14 10 6 4 6 7 7 5 6 7 5 7 6 11 17 16 19 27 27 30 28
33 31 37 39 35 41 38 43 44 46 43 42 44 41 36 36 34 32 28 24 21 18 15 10 7 5 6 8 8 9 10 9 8 9 20 19 21 23 25 26 26 28 28
22 32 30 36 39 37 38 43 46 47 44 43 43 42 38 39 37 33 29 25 22 19 16 11 8 7 7 8 9 10 10 9 8 12 19 27 29 31 28 28 26 23 24

GFSSE_850_spd_033.txt.gz
Wind_Speed
15 14 16 15 15 16 15 14 13 11 9 9 7 6 4 3 3 3 4 5 4 3 8 10 14 12 12 5 1 2 2 3 4 5 4 3 4 6 7 6 1 2 3
16 20 18 17 17 16 15 14 12 11 10 10 9 6 5 4 1 3 3 7 9 8 12 11 12 13 7 3 1 4 4 3 3 5 4 3 4 8 7 5 3 3 3
17 20 19 18 18 17 16 14 12 10 10 10 10 8 7 4 3 5 7 9 10 12 13 12 9 6 4 2 2 4 5 8 9 8 7 6 8 10 9 4 3 4 3
17 21 19 19 18 17 15 12 10 11 15 15 13 9 6 4 3 8 11 11 10 10 12 12 9 6 4 3 3 7 11 11 10 9 11 10 8 10 10 6 4 4 3
18 20 20 20 17 15 14 12 12 15 18 15 10 6 8 12 11 12 13 13 13 12 11 9 7 4 4 6 9 10 11 10 10 10 10 10 7 10 9 7 6 5 4
16 19 19 19 17 15 13 12 13 15 15 13 11 14 15 14 12 12 12 13 13 13 12 11 10 10 11 11 11 11 11 10 10 7 6 5 6 7 7 7 6 6 5
16 19 17 18 17 14 12 11 13 15 14 13 16 14 13 12 10 11 11 12 11 11 11 10 10 11 11 11 9 8 8 7 7 4 2 3 4 5 4 4 2 2 3
14 16 14 14 16 13 12 11 11 14 13 14 15 13 11 9 8 9 9 10 10 10 10 10 10 9 8 7 6 7 8 9 6 4 1 1 2 6 3 3 4 4 3
16 17 16 15 14 12 12 10 10 11 14 14 14 12 11 9 8 9 8 8 8 9 9 9 8 6 6 5 5 6 7 7 4 2 3 4 6 7 5 2 1 4 4
19 16 16 20 18 16 14 12 11 11 11 13 13 14 12 10 10 9 8 7 7 8 8 7 5 4 4 5 5 3 4 4 2 2 6 6 7 6 5 5 4 3 5
19 18 15 22 20 18 15 14 13 13 12 13 14 14 13 10 10 10 7 7 7 7 6 5 4 2 2 2 3 2 1 3 5 6 7 8 8 4 7 6 3 5 6
22 19 17 16 19 19 17 16 16 15 14 14 16 15 13 11 9 7 7 6 7 7 6 4 3 1 1 1 4 5 3 5 8 9 8 7 7 6 9 6 7 7 8
23 20 20 17 14 19 21 18 18 15 14 14 16 16 15 14 10 8 6 7 7 7 6 5 3 2 2 3 5 6 6 7 9 11 10 9 8 9 9 6 8 7 7
26 24 22 20 18 18 16 18 18 17 16 16 17 18 19 16 13 10 8 9 9 6 7 6 4 3 3 4 4 7 9 10 9 10 10 8 8 9 8 7 7 7 7
27 25 28 25 23 23 21 19 18 18 17 14 17 17 21 18 15 15 13 12 9 7 8 7 6 5 5 6 7 8 8 8 10 10 10 8 7 7 7 7 7 8 8
25 28 27 31 28 27 26 23 21 21 17 14 15 13 18 17 15 18 18 15 10 9 10 8 7 7 8 7 8 7 6 6 8 9 9 8 7 5 6 7 7 7 8
23 25 31 31 29 29 30 26 20 22 19 18 16 16 15 17 18 20 16 15 13 13 11 9 9 9 8 7 6 6 5 5 7 9 9 8 7 7 6 6 8 10 11
23 29 29 34 32 31 32 31 25 25 25 25 22 21 18 20 21 21 21 19 17 15 12 11 11 10 8 6 5 5 6 5 6 7 9 9 8 7 8 8 10 12 12
35 28 30 35 35 33 33 33 29 27 29 30 28 24 23 23 26 24 23 21 18 16 14 12 12 9 6 4 4 5 4 6 5 5 7 8 9 9 10 11 13 14 14
36 39 33 37 38 37 34 33 32 29 30 29 29 29 28 27 28 27 24 22 21 19 15 13 11 8 5 3 3 4 3 2 3 5 7 6 8 10 13 16 16 13 17
38 37 40 35 42 41 40 38 37 37 34 33 32 31 32 30 25 25 26 25 24 20 16 13 11 8 6 3 2 4 2 2 3 3 3 7 11 13 15 16 17 18 20
30 36 39 42 35 40 43 40 37 37 39 38 35 33 33 34 30 26 29 29 26 23 18 15 12 9 6 4 2 2 2 4 3 6 8 8 10 14 14 17 18 21 25
32 31 35 36 34 36 43 42 40 38 41 40 39 38 37 37 32 32 32 30 27 23 18 16 14 11 8 5 3 1 2 2 6 5 7 8 12 12 15 18 20 24 26
36 35 33 35 38 32 40 45 45 44 46 45 44 44 41 38 34 37 34 31 27 24 20 18 15 12 9 6 4 4 4 5 3 4 8 9 13 16 18 20 24 24 23
34 34 26 40 38 39 33 46 47 48 46 46 46 46 44 41 41 38 36 33 29 25 22 20 17 13 10 7 6 6 6 6 8 9 14 13 18 20 21 22 22 23 20
15 17 25 32 32 39 41 40 46 52 50 47 46 46 46 43 39 40 37 34 31 27 25 22 17 13 11 8 7 8 8 8 9 11 15 22 25 27 24 23 22 20 19

GFSSE_850_spd_036.txt.gz
Wind_Speed
15 17 18 20 19 19 17 16 14 13 11 9 7 7 5 3 2 3 5 6 5 5 9 14 15 15 9 4 2 1 0 1 2 3 4 4 3 3 4 4 3 3 4
18 19 20 20 20 19 18 17 14 13 13 10 8 7 5 3 2 3 2 9 9 14 13 12 15 12 7 2 2 2 3 2 3 2 2 2 2 4 5 4 4 4 3
19 21 20 20 21 19 17 15 14 12 12 12 10 7 6 5 2 4 7 12 13 18 16 14 11 8 4 1 1 2 6 8 6 6 6 6 8 10 7 3 3 5 4
15 22 20 21 20 18 17 15 13 13 13 12 11 9 7 5 5 8 10 13 15 17 15 14 11 8 4 2 4 10 11 9 8 6 8 9 10 10 9 5 4 5 4
16 20 21 21 20 19 17 14 13 13 15 15 11 8 6 9 10 10 12 12 14 15 15 12 9 6 3 8 11 11 11 9 7 7 8 10 8 9 7 7 7 6 6
20 22 22 22 21 18 15 15 16 15 16 13 10 10 13 12 11 12 12 13 13 13 11 10 9 9 10 12 12 11 9 9 8 7 5 6 7 6 4 4 4 4 3
21 21 22 22 20 18 15 15 16 15 15 13 14 14 13 12 11 11 11 12 12 13 12 12 11 12 12 11 10 8 8 7 5 4 4 2 4 5 3 3 2 3 3
18 22 20 21 18 16 14 13 13 13 14 15 15 14 12 11 10 11 11 11 11 11 11 12 12 10 9 8 6 6 6 7 5 3 3 2 3 7 4 3 1 2 2
14 21 20 19 17 15 14 14 14 12 13 14 15 13 12 9 9 10 10 10 10 10 11 10 8 7 6 5 5 6 6 5 4 4 2 4 5 7 3 2 3 5 4
16 17 17 17 18 16 15 14 14 13 13 14 15 13 12 10 10 10 9 9 9 10 10 7 6 4 4 4 4 4 3 2 3 2 3 5 7 6 5 2 1 2 2
20 19 17 17 19 17 16 16 15 14 14 15 16 14 13 11 12 11 9 9 9 9 8 6 5 3 3 3 3 2 2 3 5 5 5 6 7 8 6 1 3 4 3
25 22 18 17 20 19 19 19 18 17 17 16 17 17 16 13 13 11 10 10 10 10 8 7 5 3 4 3 2 3 4 5 6 7 7 6 7 10 6 5 7 6 6
25 23 21 17 18 21 22 19 19 18 17 17 18 18 18 16 15 13 13 11 11 10 9 7 6 5 4 4 4 5 6 7 8 9 8 7 9 10 6 6 6 5 4
27 26 23 21 20 20 21 23 21 21 20 20 21 21 21 19 16 15 13 12 11 10 10 8 7 6 5 5 6 7 8 8 8 8 7 6 8 8 6 5 5 5 5
27 28 27 24 24 23 21 20 21 23 22 20 21 23 23 21 18 17 14 13 12 12 11 10 8 7 7 7 7 9 9 9 8 7 6 5 5 6 6 5 5 5 6
29 29 29 27 25 25 24 24 21 21 23 23 23 23 25 23 20 18 17 16 14 12 10 10 9 8 8 8 9 9 8 7 7 7 6 5 5 4 5 5 5 5 6
24 37 35 31 29 27 27 26 24 23 22 25 22 22 23 23 21 19 20 20 16 13 11 12 11 10 10 10 9 8 7 7 6 7 6 5 4 4 4 4 6 7 8
25 23 38 41 36 31 30 29 28 25 23 28 23 23 23 21 22 22 23 21 18 17 14 14 12 12 11 9 8 7 7 6 7 7 6 5 4 4 5 6 7 10 10
36 31 28 36 45 37 34 32 30 29 27 29 26 24 24 22 23 24 24 21 20 19 17 15 13 13 12 10 8 7 6 6 6 5 5 5 4 4 5 8 10 9 10
44 42 38 33 35 43 39 34 35 33 31 28 28 27 27 25 24 26 24 22 23 22 21 18 15 14 12 10 8 6 6 5 3 4 4 5 5 7 8 11 10 10 12
37 39 39 37 37 40 45 40 38 37 35 32 31 32 31 30 29 26 27 26 27 26 22 19 17 16 14 11 8 7 7 6 5 5 6 6 8 9 11 10 12 14 15
25 29 41 39 37 40 44 45 44 40 39 37 36 36 35 35 32 31 28 30 30 28 26 23 18 18 16 13 10 8 6 8 9 8 8 9 10 10 12 13 16 18 20
37 32 26 34 41 39 41 45 46 44 39 39 40 38 38 39 36 32 29 30 30 31 28 23 20 19 17 15 12 9 6 6 8 10 11 11 12 13 13 15 18 20 24
37 34 33 32 29 31 29 41 46 46 45 44 44 42 43 44 39 35 34 33 32 31 29 25 22 21 19 16 14 12 10 9 5 4 9 12 14 14 16 18 21 23 23
31 34 33 31 33 31 31 34 37 47 48 46 47 45 45 45 42 39 37 37 32 33 30 28 25 24 21 18 15 12 11 10 10 11 9 10 14 16 20 22 21 23 22
18 21 28 34 35 30 33 36 37 38 48 48 48 47 45 45 44 43 40 40 37 36 33 30 26 25 23 19 16 13 12 11 11 12 13 17 19 21 20 20 20 21 19

GFSSE_850_spd_039.txt.gz
Wind_Speed
18 20 21 20 20 18 17 17 17 15 12 12 12 13 10 7 5 5 7 6 4 3 5 12 12 12 7 4 2 1 3 4 3 2 4 4 5 5 4 4 4 5 5
19 19 20 20 20 19 16 16 15 13 12 10 9 7 6 4 2 2 4 6 8 11 13 13 15 8 5 3 3 0 4 4 3 2 0 1 3 4 4 5 5 6 5
18 20 19 19 19 18 17 16 16 15 12 10 8 8 4 2 1 2 9 11 16 15 14 15 13 6 4 2 1 1 4 5 5 5 5 6 7 9 7 6 7 6 7
16 19 20 19 19 18 16 15 14 14 13 11 9 7 5 3 3 6 11 12 16 16 15 12 8 6 1 2 3 8 8 7 7 8 8 8 10 11 10 8 7 8 6
17 18 17 19 20 18 16 15 14 14 14 12 10 7 5 6 8 9 10 13 16 15 13 10 7 3 2 5 8 9 8 7 5 7 9 8 10 11 9 9 8 7 6
18 19 17 19 20 18 16 15 14 15 14 12 9 7 9 10 10 10 10 11 13 13 10 7 4 4 8 9 9 8 6 5 6 7 6 7 7 5 5 4 6 6 4
20 20 19 20 20 18 16 14 14 16 16 12 9 10 12 11 11 11 12 12 12 11 9 9 9 10 11 9 7 5 4 4 4 4 4 5 5 4 4 3 2 3 3
18 21 20 20 19 17 15 15 16 15 15 12 13 13 12 11 11 11 11 12 12 12 11 11 11 10 8 6 4 4 4 3 2 2 2 2 4 5 2 1 2 1 2
18 20 20 19 18 17 15 15 16 15 14 14 14 13 12 11 11 11 11 11 11 12 12 11 9 7 6 4 3 2 2 2 2 1 1 1 4 5 4 2 4 6 7
16 17 19 19 18 17 16 15 17 14 15 15 14 13 11 11 11 10 10 10 10 11 11 9 7 5 4 3 2 2 2 2 2 2 2 4 7 6 5 2 2 4 7
18 18 18 17 16 16 16 16 17 16 17 16 15 14 13 12 12 12 10 10 10 10 10 8 6 5 3 3 2 1 2 3 4 4 5 5 7 7 2 4 6 6 7
23 23 23 20 16 17 18 18 19 19 19 18 17 15 15 13 14 13 12 11 11 11 10 8 6 5 4 3 3 4 5 5 5 5 5 5 7 7 4 7 7 6 5
24 23 23 20 16 19 21 20 20 19 19 20 19 18 17 15 16 17 14 14 13 13 11 9 8 6 5 5 5 5 6 7 7 7 6 5 8 8 5 6 5 3 3
26 23 22 20 19 20 21 22 22 21 21 21 21 21 21 19 18 18 16 14 14 13 12 10 9 7 7 6 6 6 7 7 7 7 6 7 7 7 5 5 4 4 4
29 26 24 21 22 22 23 24 25 25 24 21 22 23 23 22 20 19 17 15 14 14 13 11 10 8 7 7 7 8 9 8 7 6 5 6 6 6 5 5 5 5 6
29 29 26 25 25 24 26 26 25 24 24 24 24 25 25 24 22 20 18 16 15 14 12 11 10 9 9 9 9 9 8 7 7 6 5 5 5 5 4 5 5 4 6
31 30 29 28 28 27 27 27 26 25 23 25 26 26 27 27 25 22 21 19 16 16 14 13 12 11 11 11 10 9 9 7 7 6 5 4 4 4 4 4 5 5 7
26 30 31 35 35 33 32 30 27 25 25 25 25 27 28 28 26 25 23 21 19 19 16 13 13 13 12 12 11 10 9 9 7 6 5 4 4 4 5 5 5 8 6
31 30 28 26 32 40 37 37 31 29 29 29 24 27 28 27 25 26 24 21 22 21 19 15 15 14 14 13 12 11 10 9 8 6 5 5 4 4 5 6 7 7 7
37 39 36 31 30 26 38 42 37 35 34 32 28 28 29 27 26 24 24 22 24 23 22 19 18 17 15 15 13 11 10 10 8 7 7 6 6 6 7 8 8 8 10
25 34 44 40 34 32 34 39 45 40 39 38 34 30 32 31 29 26 24 25 26 26 24 21 21 19 18 17 14 13 11 11 10 9 9 8 8 9 9 11 11 12 14
31 25 27 41 41 34 35 36 42 45 44 39 36 34 35 35 32 30 28 27 28 28 27 26 24 22 21 19 16 14 8 12 14 13 11 11 11 12 11 13 13 15 18
41 35 30 25 26 36 36 35 43 46 47 43 41 40 40 37 35 32 31 31 30 29 31 29 28 24 23 22 20 15 7 8 10 14 15 15 14 14 14 15 16 19 22
28 36 37 32 30 29 25 36 42 44 48 49 46 44 42 40 37 35 36 33 33 31 34 32 30 27 25 24 22 21 20 13 9 7 13 15 16 16 16 17 18 23 25
15 17 30 31 31 28 27 28 34 43 46 47 48 46 44 41 40 39 39 35 35 37 35 35 32 30 28 26 25 23 21 18 16 15 9 12 16 17 17 19 23 24 25
14 13 17 26 28 27 26 25 29 34 38 41 44 44 45 45 42 43 43 40 38 38 38 36 34 33 30 27 27 25 22 19 17 16 15 15 15 17 19 20 23 24 24

GFSSE_850_spd_042.txt.gz
Wind_Speed
19 20 20 18 16 15 16 14 14 13 12 12 11 11 10 9 7 7 7 5 3 3 4 9 11 12 8 5 3 4 5 2 1 3 3 4 5 5 3 3 5 5 6
18 22 22 19 17 16 17 16 14 11 10 8 9 11 10 7 5 5 4 6 8 9 12 12 13 9 5 5 4 3 4 4 4 2 2 2 3 3 4 5 7 8 7
20 20 21 20 19 19 16 16 14 11 9 7 7 6 7 4 2 4 11 16 12 12 11 15 11 7 4 2 1 2 5 5 4 4 4 6 6 9 8 8 9 9 9
15 18 20 20 18 17 15 15 14 11 9 8 8 8 3 2 3 9 13 17 15 16 17 15 6 3 1 3 2 6 8 8 8 9 8 8 10 11 11 10 10 10 10
16 15 17 18 17 17 16 14 13 12 10 9 8 7 3 4 6 8 12 18 18 15 11 7 4 1 1 5 7 8 7 7 7 8 7 8 10 11 9 8 8 8 8
18 17 16 16 16 16 15 13 13 13 13 11 8 5 5 7 7 8 10 13 15 13 10 7 3 3 6 7 7 6 6 7 7 6 6 7 8 6 5 5 6 8 7
17 18 17 16 17 15 15 13 13 13 13 12 8 7 10 9 9 10 10 11 13 11 8 7 7 8 8 7 5 4 4 4 4 3 5 7 9 6 5 5 4 6 5
15 18 17 16 16 15 14 13 12 14 15 12 9 10 10 10 10 10 11 12 12 11 11 11 11 10 7 5 3 2 2 2 2 3 3 5 5 4 2 2 1 1 0
16 18 17 15 16 16 14 13 14 14 15 12 11 11 10 10 10 10 10 11 11 11 12 11 10 8 5 3 2 2 3 2 1 1 1 1 2 4 3 2 4 5 5
14 16 15 16 17 16 14 14 15 14 15 13 13 12 11 10 10 10 10 10 10 11 11 9 7 5 3 2 3 3 2 1 1 1 1 2 5 4 3 1 3 5 7
17 17 16 17 16 14 14 14 17 16 15 15 15 13 11 11 10 10 9 9 10 10 10 8 6 4 3 2 2 1 1 1 2 3 3 4 7 1 3 5 6 6 8
20 19 19 19 18 16 16 16 17 18 16 16 17 15 13 12 11 11 10 10 10 10 9 8 7 5 3 3 2 2 3 3 4 4 5 6 7 3 5 6 6 6 5
18 19 21 22 20 18 18 17 18 18 17 18 18 18 16 15 14 14 13 12 12 12 10 8 7 6 4 4 5 5 5 4 5 5 6 6 8 5 4 5 3 3 3
18 19 20 20 20 20 18 19 19 20 19 20 20 20 19 18 17 17 16 14 13 12 11 9 8 7 6 6 6 6 6 7 6 6 6 7 7 6 6 3 2 2 3
22 21 21 21 22 21 20 20 21 22 21 19 20 22 22 21 19 18 17 16 15 14 12 11 10 9 8 7 7 8 8 8 6 6 6 6 6 6 5 3 3 3 3
26 26 25 23 23 22 23 22 23 22 22 22 22 23 24 23 22 20 19 18 17 15 14 13 12 11 9 9 9 9 9 8 7 6 6 6 5 5 5 4 3 3 4
30 30 29 28 27 25 24 24 24 23 23 23 24 24 25 25 25 23 21 20 18 16 16 15 14 13 12 11 10 10 10 8 7 6 6 5 5 5 5 4 4 4 5
24 31 31 30 31 29 28 28 26 25 24 24 24 24 26 27 27 27 25 23 20 19 18 17 15 14 14 12 12 11 11 10 8 7 7 6 6 6 6 6 5 5 6
27 26 28 31 33 32 34 35 32 29 28 27 27 25 25 28 28 30 28 25 23 23 22 20 17 15 15 14 13 12 12 11 10 9 8 8 8 7 6 6 7 7 6
29 32 32 31 30 29 29 31 36 36 33 33 32 31 28 26 28 30 29 27 27 26 25 24 21 18 17 16 15 14 13 13 12 11 11 10 9 9 8 9 8 8 8
29 28 30 35 38 36 36 35 32 36 40 39 36 33 31 29 28 30 29 29 31 30 28 25 25 22 20 19 17 16 15 15 14 13 13 12 12 12 11 11 11 11 12
32 31 30 30 32 37 40 38 38 36 36 37 39 35 33 34 31 32 31 31 32 32 30 30 28 25 23 22 19 17 11 16 18 17 16 15 15 15 14 14 14 14 15
27 33 35 31 28 25 30 38 40 39 40 40 39 41 39 37 35 33 34 35 32 33 33 32 31 29 26 24 22 18 8 10 13 18 20 19 17 17 16 16 16 17 19
11 14 23 34 37 32 27 27 38 42 42 40 39 39 42 41 37 35 35 36 35 36 36 34 34 33 29 28 25 26 26 17 9 8 18 20 19 19 18 18 19 20 22
8 9 12 17 29 34 29 28 31 32 38 40 38 39 45 45 42 39 37 37 37 38 38 36 37 36 34 29 31 29 28 27 24 20 12 16 19 20 20 20 21 22 24
12 9 9 12 15 23 27 28 31 30 29 32 35 37 39 45 47 43 40 38 38 37 39 39 39 38 36 32 34 32 30 29 28 25 22 20 17 18 19 21 23 24 24

GFSSE_850_spd_045.txt.gz
Wind_Speed
19 20 20 18 17 18 15 14 11 10 10 11 9 9 8 7 7 7 4 3 2 3 6 10 11 11 7 7 6 5 3 2 2 1 3 5 6 6 4 3 4 5 7
20 20 20 18 16 17 15 13 12 11 10 8 9 9 8 7 5 5 2 4 7 6 12 14 12 9 5 3 4 4 5 3 1 1 2 3 4 3 5 6 7 7 7
22 22 21 18 16 17 17 16 13 11 9 6 4 7 7 4 3 2 15 15 12 11 10 15 9 7 5 3 4 5 5 4 3 2 3 5 7 8 8 8 10 10 9
20 18 19 19 17 17 18 15 13 10 7 7 6 5 6 4 5 12 17 13 12 14 19 12 5 3 3 3 6 8 8 7 7 7 7 8 10 11 10 10 10 9 9
18 15 17 20 19 18 16 15 13 10 8 7 7 3 5 5 8 13 17 15 14 15 14 7 3 1 2 8 9 10 9 8 8 7 6 8 10 10 8 7 6 6 7
18 16 17 19 17 17 16 15 13 10 8 7 5 5 5 7 8 11 18 16 16 13 9 5 2 2 7 8 8 8 8 8 8 7 7 7 9 8 4 4 6 9 7
17 17 18 17 17 17 14 13 13 11 9 8 7 4 7 7 8 9 10 15 15 11 8 5 5 7 8 7 6 6 6 7 6 6 7 9 8 6 5 4 6 6 3
16 17 17 17 17 13 13 13 12 11 10 11 7 7 9 9 9 10 11 13 12 10 8 9 9 8 7 5 4 3 4 4 4 4 4 7 4 2 2 1 1 0 1
14 17 16 14 14 14 14 12 12 12 12 11 8 10 10 9 9 11 11 12 12 12 11 10 8 6 5 3 3 4 4 4 3 2 2 3 1 4 1 3 3 4 5
12 14 14 13 15 14 12 11 12 14 15 11 11 12 11 10 10 9 10 11 12 11 11 10 7 5 4 3 4 4 3 3 1 1 1 1 3 2 2 3 4 5 6
14 15 16 14 14 14 13 12 13 14 14 13 13 13 12 11 10 10 9 9 11 11 10 8 6 4 4 3 3 3 2 1 1 2 3 3 4 2 5 5 6 7 6
17 17 17 16 16 16 15 14 13 15 13 15 15 15 14 12 11 10 10 10 11 11 10 8 7 5 4 3 2 1 2 2 3 4 5 5 5 4 6 5 5 5 4
14 16 17 17 19 18 17 15 15 17 15 15 16 16 15 14 14 14 13 13 13 13 13 10 8 6 4 4 3 3 3 3 4 5 6 6 4 5 4 3 3 2 2
15 16 16 17 18 19 18 17 17 18 18 17 17 18 18 17 16 16 15 14 14 13 12 11 9 7 6 5 5 5 5 5 6 6 7 7 6 8 6 3 2 2 2
17 17 17 16 19 20 20 19 19 20 20 18 19 21 21 20 18 17 17 17 16 15 14 12 11 10 8 7 7 7 7 7 7 7 7 8 7 7 5 3 2 2 2
20 21 20 19 18 20 21 20 19 19 19 20 21 22 22 23 21 20 18 19 18 16 15 14 13 12 10 9 9 9 8 8 8 8 7 8 7 7 6 5 3 3 4
21 23 25 24 23 23 23 23 23 20 20 20 21 23 24 24 23 22 21 21 20 18 18 18 16 15 13 11 11 10 10 9 9 9 9 9 9 8 8 7 5 5 5
24 24 26 29 28 28 27 26 26 25 23 22 23 23 24 26 25 24 25 24 22 22 20 20 18 17 15 14 12 12 11 11 11 10 10 10 10 9 9 8 8 7 7
27 28 28 28 32 31 31 30 30 28 27 25 25 25 25 26 27 27 28 26 25 25 24 22 22 20 17 15 14 14 13 13 12 12 12 12 12 11 11 10 10 8 8
26 28 28 31 31 31 33 34 34 34 34 32 29 29 27 27 28 29 29 29 29 29 28 26 25 23 20 18 17 16 16 15 14 14 14 14 14 13 13 12 11 10 9
26 26 27 29 31 34 35 36 36 36 34 37 36 34 30 29 29 28 28 30 32 34 32 29 28 28 25 22 20 19 18 17 17 17 17 17 17 16 15 14 13 12 12
27 28 28 28 29 30 35 40 41 40 39 35 36 39 36 33 31 32 30 31 33 35 36 34 32 32 29 27 24 19 13 19 21 21 20 20 20 19 19 17 16 15 15
12 18 24 29 30 31 32 32 40 42 41 39 39 38 38 39 38 35 33 32 33 37 38 36 35 35 33 31 29 21 9 12 13 21 24 24 23 22 21 20 18 18 18
7 6 11 16 25 34 32 32 33 39 43 45 45 41 39 39 41 41 36 35 35 35 39 38 38 37 36 36 33 29 28 23 13 10 19 24 26 26 23 23 21 21 21
12 9 7 9 13 17 31 35 34 35 33 33 36 39 39 41 41 42 40 38 36 36 38 38 40 41 40 41 39 34 35 32 29 27 22 21 25 27 26 24 23 23 22
10 9 8 7 8 10 15 24 30 34 34 36 34 31 33 38 39 40 41 43 40 37 38 39 41 43 42 42 41 39 36 34 33 33 27 23 21 23 26 25 25 24 24

GFSSE_850_spd_048.txt.gz
Wind_Speed
16 18 19 18 17 16 14 12 11 10 8 9 9 7 6 5 5 4 3 2 3 4 5 8 9 7 4 5 5 4 3 2 1 2 3 6 7 7 4 4 6 4 8
19 19 20 18 17 16 14 13 11 11 10 9 7 7 6 5 4 3 1 4 5 8 10 11 10 8 4 4 5 4 3 3 3 3 3 4 4 4 4 5 6 5 6
20 19 19 17 17 17 16 14 13 11 8 6 7 9 7 5 2 2 10 10 10 13 12 12 5 6 5 3 3 4 4 3 1 2 4 7 7 7 8 9 9 9 7
18 18 18 18 19 19 16 14 12 9 6 6 3 7 7 4 6 15 12 10 9 11 16 9 4 4 3 3 5 6 5 4 5 6 7 7 7 10 9 8 8 7 7
17 17 17 19 18 19 18 14 13 9 7 7 4 5 7 7 11 16 14 12 13 19 12 5 2 3 4 8 9 9 8 7 7 7 7 6 7 6 7 6 5 6 4
16 16 17 19 18 17 15 13 11 9 7 8 6 7 8 9 12 16 15 12 13 12 8 3 0 3 7 8 9 8 7 7 8 6 7 6 5 6 3 3 11 9 10
15 15 17 19 17 16 15 13 11 9 8 8 5 6 7 9 11 13 15 14 13 9 6 4 3 6 7 7 6 6 6 6 6 6 7 7 6 5 3 3 3 3 3
14 15 15 17 16 16 15 13 11 11 10 8 7 5 8 8 9 10 13 15 13 10 7 6 7 7 6 5 4 4 4 5 6 5 5 4 3 1 2 3 4 3 1
13 14 14 15 17 16 14 10 11 12 11 10 6 7 8 8 9 9 13 14 12 10 9 8 8 6 4 3 3 4 4 4 4 4 4 2 2 3 4 4 4 4 4
13 14 14 13 14 13 13 13 12 12 12 11 7 9 10 9 9 10 10 11 11 11 10 9 7 5 4 3 4 4 4 3 2 2 3 4 1 2 3 4 3 4 5
13 14 14 14 13 13 12 12 12 14 14 11 10 11 11 9 10 10 11 11 11 11 10 8 6 5 4 3 4 3 3 3 3 3 2 3 2 5 6 6 5 5 6
15 15 14 14 13 14 15 13 12 13 15 14 12 13 12 11 10 10 11 11 12 11 10 9 7 6 4 4 4 3 3 3 2 3 5 5 5 8 7 7 6 5 4
13 15 17 16 15 17 16 13 12 13 13 14 14 15 14 13 12 12 11 13 12 12 10 11 9 8 7 6 5 5 5 5 4 4 7 6 6 9 6 5 4 4 3
16 16 16 16 16 17 16 17 14 15 15 15 16 17 16 15 14 13 12 12 12 12 12 11 10 11 10 7 7 7 6 6 5 4 8 7 9 9 7 5 4 4 3
16 17 18 17 18 19 20 18 18 17 17 17 18 19 18 17 16 15 14 14 14 14 14 14 14 13 11 10 9 8 7 8 7 6 7 8 10 10 8 6 6 5 4
16 17 17 17 18 18 22 23 22 19 17 19 21 22 22 20 20 19 17 17 16 16 16 16 16 15 14 12 11 10 9 9 9 8 7 8 11 10 9 7 6 6 6
15 15 18 19 19 21 21 22 24 22 21 19 22 21 23 23 23 22 20 18 19 18 18 19 19 19 17 16 14 12 12 11 11 10 10 8 9 11 11 10 9 8 7
19 19 18 19 22 24 24 23 23 24 23 23 23 24 23 24 26 24 22 20 19 19 22 22 22 21 19 18 16 15 14 14 13 12 13 13 12 10 12 12 11 10 9
26 25 26 25 24 23 28 29 28 26 27 26 27 26 26 26 28 27 25 23 21 21 24 25 25 23 22 21 19 18 16 16 15 15 15 15 15 15 13 13 14 12 10
24 26 27 27 26 27 24 29 32 31 31 30 30 30 30 29 29 28 28 26 24 25 27 29 28 26 25 23 22 20 19 18 18 17 17 18 18 18 17 17 15 14 13
25 26 26 25 27 26 24 30 34 37 36 36 37 37 35 33 31 30 30 30 29 30 30 31 30 30 29 27 23 23 22 21 21 21 20 20 20 20 20 19 18 17 16
22 25 27 28 28 28 28 26 34 36 40 42 41 39 38 38 37 36 34 33 32 33 32 32 35 35 32 32 28 14 10 18 25 25 25 23 23 23 23 22 21 20 19
8 14 21 27 32 33 33 30 26 27 32 40 42 41 39 38 41 41 40 37 37 36 36 37 38 38 37 36 35 19 10 13 13 22 27 27 26 26 25 25 25 24 23
6 4 4 10 18 27 32 34 32 30 32 36 40 43 44 44 43 42 45 43 40 39 38 39 40 40 40 40 38 38 34 16 9 9 19 25 27 27 27 29 27 27 25
7 6 6 6 7 12 18 26 33 30 28 27 26 30 35 40 45 44 42 43 45 44 41 39 42 43 44 44 42 41 40 40 33 20 10 18 25 29 30 31 30 29 28
8 8 9 9 9 10 11 15 21 29 29 26 26 28 30 33 36 38 40 41 41 46 46 42 42 43 46 45 46 44 43 41 41 37 26 25 23 24 30 31 32 31 30

GFSSE_850_spd_051.txt.gz
Wind_Speed
13 16 17 18 16 14 11 10 8 8 7 5 5 7 4 3 2 3 2 1 2 3 5 5 5 3 0 2 2 0 2 1 4 6 7 9 10 9 8 6 10 4 7
17 16 18 17 15 13 12 11 10 8 7 5 6 6 4 3 2 2 1 3 5 8 9 9 9 6 2 3 3 2 1 2 4 7 8 8 8 8 8 7 5 5 5
16 17 17 16 16 14 13 12 10 10 7 6 7 5 3 1 2 3 6 7 9 10 11 8 5 6 5 2 3 2 1 2 3 7 13 7 9 9 10 10 10 9 7
16 15 15 15 16 15 13 11 9 8 5 5 1 4 3 2 5 9 9 10 12 9 12 5 4 6 4 5 5 4 3 4 7 11 9 6 7 8 9 9 9 7 7
15 14 15 16 17 15 11 9 9 7 5 4 2 5 5 7 13 11 8 8 10 14 8 1 4 5 6 7 8 8 8 9 11 11 5 5 5 5 8 6 8 6 4
15 13 13 16 17 17 13 11 9 7 6 6 1 7 7 10 14 12 10 9 11 10 5 1 4 5 7 8 8 7 8 10 13 6 7 6 5 8 7 9 9 12 9
14 13 13 17 16 16 13 11 9 7 6 7 2 8 7 9 12 12 12 12 10 8 3 0 2 5 7 7 6 6 7 9 10 7 6 3 6 5 3 3 1 1 3
13 12 13 17 16 14 13 12 10 8 7 7 3 7 7 8 7 9 12 11 10 7 4 2 5 5 5 5 4 5 5 10 7 5 1 1 3 1 3 4 5 3 1
12 12 12 14 14 15 14 12 10 9 9 7 6 4 8 8 8 8 10 12 10 8 5 6 6 5 3 3 3 3 5 8 8 3 1 3 2 4 5 6 6 4 5
11 12 12 12 15 15 14 14 11 10 10 9 5 4 7 9 8 9 11 11 9 8 7 7 5 3 2 2 3 4 5 6 3 4 2 5 2 3 5 6 7 5 5
11 12 13 12 12 12 12 12 13 12 11 11 7 7 7 7 9 10 11 10 10 9 8 7 5 3 2 2 3 3 4 3 2 2 6 7 3 5 6 8 8 6 6
13 12 12 13 12 13 12 11 12 11 14 13 9 9 9 8 8 8 10 11 11 10 9 8 7 5 3 2 4 3 2 3 3 3 10 8 6 7 7 8 7 6 4
14 17 15 12 13 13 12 11 9 11 10 10 12 12 11 11 13 13 12 13 13 12 11 11 10 8 5 7 6 3 6 4 3 3 11 8 7 7 7 6 5 5 3
12 14 16 16 13 14 12 12 11 12 12 13 15 15 13 13 12 11 10 12 12 11 10 13 8 8 11 9 8 6 7 5 5 5 13 10 8 8 7 6 5 5 4
13 13 15 16 16 13 15 13 14 14 15 14 15 16 16 15 14 13 13 12 12 13 12 12 12 12 12 11 11 9 8 6 6 6 12 11 10 9 9 8 7 6 5
13 13 14 16 16 15 17 16 14 14 14 15 16 17 20 18 17 16 15 15 14 15 15 16 15 14 12 12 12 11 9 8 8 8 8 14 12 11 10 9 8 7 6
14 14 14 14 16 18 17 20 18 16 15 16 16 18 20 23 21 19 17 18 17 17 16 16 16 16 15 15 14 13 13 11 11 10 11 11 12 12 12 11 9 9 8
13 13 15 16 16 17 18 24 21 19 18 18 17 17 20 21 22 22 22 21 19 19 19 18 18 19 18 18 16 16 15 15 13 12 13 13 14 12 12 13 12 11 11
19 18 18 17 18 19 19 23 25 23 25 19 18 19 20 21 22 24 24 23 21 22 24 22 22 21 21 21 18 18 18 17 16 15 16 15 16 14 14 13 14 14 12
18 18 19 19 19 20 21 21 29 27 27 27 22 25 24 24 26 27 27 24 23 25 28 26 25 25 24 22 19 19 20 19 18 18 18 17 18 18 18 19 15 16 15
15 17 17 18 20 20 22 23 29 34 31 30 32 29 26 29 27 28 30 27 26 29 30 28 27 26 27 23 21 22 21 22 22 22 21 20 21 20 20 21 19 18 17
14 16 17 18 18 20 24 26 26 30 36 37 36 36 35 33 35 34 34 33 32 32 32 31 31 30 30 29 30 18 11 19 26 27 25 24 24 24 22 22 22 21 21
4 11 17 22 25 26 28 27 28 25 26 28 33 38 41 43 41 36 39 37 36 36 36 36 36 36 35 36 35 24 11 13 14 18 27 28 26 26 25 24 24 24 24
3 2 3 6 11 18 26 30 29 25 27 28 30 28 31 35 37 38 39 38 38 37 40 40 39 41 38 39 37 38 29 16 12 11 18 26 29 28 28 26 26 27 28
5 5 6 6 6 9 12 18 24 31 34 29 28 28 28 28 33 37 37 37 40 40 42 41 40 42 44 39 43 40 40 38 30 20 15 19 24 28 29 29 29 30 29
8 9 10 10 9 10 11 13 15 20 23 23 26 27 26 26 29 31 32 32 37 40 40 42 44 45 45 44 40 44 44 44 47 41 32 22 23 24 26 31 32 30 32

GFSSE_850_spd_054.txt.gz
Wind_Speed
11 17 16 18 17 15 11 11 9 8 7 5 4 3 1 1 1 2 1 4 5 7 9 9 6 4 4 4 4 4 6 4 6 9 10 10 10 10 9 9 8 8 7
12 19 18 18 16 14 12 12 11 9 8 4 3 4 4 1 1 2 3 6 9 10 10 11 10 6 3 3 3 4 5 5 8 9 11 13 12 12 11 9 8 7 4
14 20 19 17 15 13 12 12 10 8 7 3 2 3 2 2 3 8 9 10 12 11 9 8 9 7 5 4 4 3 4 7 11 18 17 15 12 12 12 11 11 11 9
13 19 18 18 16 16 12 10 9 8 4 4 1 4 4 6 11 11 11 12 12 11 8 6 8 8 7 8 7 6 8 12 16 15 13 8 8 9 9 11 9 8 9
11 15 17 18 17 16 12 9 9 6 3 5 5 6 7 12 11 9 10 10 10 11 4 4 7 8 10 11 12 13 14 16 15 10 6 4 6 8 10 11 11 8 8
11 17 13 17 17 15 13 12 8 4 4 4 6 7 9 13 11 10 10 11 10 7 3 3 6 8 9 10 11 12 14 15 15 8 7 7 8 9 8 9 14 13 11
16 14 10 16 17 16 13 12 10 7 6 4 5 8 9 12 11 10 10 11 10 7 2 2 6 7 8 8 9 10 12 15 15 8 6 2 5 4 3 2 3 3 3
12 11 11 16 17 15 13 11 10 8 7 6 5 8 8 9 8 10 9 9 9 6 2 3 5 6 6 6 7 8 12 14 11 3 3 0 1 1 4 5 4 3 1
9 7 10 17 18 16 13 11 11 9 7 5 3 7 7 8 7 8 10 7 7 5 3 5 5 4 4 4 5 7 10 13 9 2 1 1 3 4 4 4 5 4 4
13 7 4 13 14 14 14 13 11 10 10 7 5 5 6 6 7 8 9 10 8 6 6 6 5 3 2 3 4 6 9 8 4 4 3 4 5 4 5 5 5 4 3
11 13 7 7 4 11 11 11 11 10 10 11 8 5 6 6 6 8 10 10 8 8 8 7 6 4 2 2 3 5 7 7 3 5 7 8 7 6 6 7 7 5 3
15 14 12 8 4 5 6 11 10 11 11 11 9 6 7 7 7 8 7 8 9 10 10 9 7 5 4 4 3 4 4 5 6 9 10 10 9 7 7 8 7 4 3
21 15 13 15 11 14 14 12 9 11 11 12 9 6 8 5 9 9 9 10 11 11 10 9 8 7 6 4 5 6 5 6 6 12 12 10 10 8 6 6 5 4 2
16 24 24 17 15 13 14 14 8 9 6 7 8 11 9 12 14 11 12 11 13 13 12 11 10 10 11 11 10 7 8 8 10 12 12 12 11 9 7 6 5 4 3
11 13 21 22 19 18 17 13 14 10 12 7 12 16 14 15 17 15 11 12 11 13 8 12 10 10 11 12 12 11 12 9 10 14 13 13 12 11 10 8 6 6 4
12 11 12 19 22 20 18 18 13 16 17 17 18 20 19 18 20 19 15 15 16 13 14 13 14 13 18 15 15 15 14 12 11 15 15 15 13 13 11 10 8 7 6
13 11 14 12 13 20 20 19 20 17 18 19 17 19 18 23 23 22 21 21 20 20 18 20 21 21 21 18 18 18 16 15 15 15 17 17 14 12 13 12 10 9 8
13 10 12 15 15 16 19 20 21 23 19 19 17 18 20 19 25 26 25 24 23 23 23 22 24 24 23 22 22 20 20 19 18 17 17 19 18 15 13 14 12 12 11
16 18 17 16 12 15 14 18 25 20 23 20 19 22 22 23 23 23 28 27 26 27 26 27 25 26 27 27 25 22 22 22 20 19 20 20 21 19 15 14 14 14 14
16 18 20 19 19 22 17 18 24 27 24 25 26 23 23 26 26 27 27 28 29 27 30 31 31 29 30 28 26 23 24 24 23 22 22 22 22 22 21 18 16 16 17
17 18 18 20 20 19 20 22 24 28 30 30 27 29 27 29 31 31 33 33 32 31 32 33 33 32 32 29 23 25 26 29 27 27 25 24 25 24 23 24 21 19 19
20 22 23 22 22 23 25 27 26 24 31 33 35 34 32 31 30 32 34 35 35 35 35 36 37 35 34 32 31 26 25 30 32 31 29 28 28 27 25 26 26 23 22
11 14 17 22 24 25 26 28 31 33 22 26 32 36 36 33 36 31 33 36 37 37 37 38 39 39 38 37 36 30 13 18 18 25 31 33 32 32 30 28 28 27 26
5 3 5 6 8 13 22 30 32 32 33 23 25 26 29 31 31 30 35 38 37 38 37 37 39 42 42 41 37 40 36 18 14 13 22 27 33 35 34 31 30 29 29
6 5 5 6 5 8 10 11 15 22 28 31 28 22 24 28 30 31 33 30 37 36 38 37 37 39 42 46 45 43 42 39 24 26 25 25 30 34 35 34 32 31 32
8 8 9 9 9 9 11 11 12 13 14 18 22 26 27 26 26 26 29 31 28 31 36 39 39 40 41 44 48 46 45 43 47 35 28 27 26 27 31 34 33 32 32

GFSSE_850_spd_057.txt.gz
Wind_Speed
16 14 19 19 17 16 15 13 11 11 6 5 5 4 4 1 2 3 5 7 10 12 13 9 7 6 8 9 9 9 9 8 7 8 11 10 10 9 10 11 10 8 6
15 19 21 20 18 16 14 14 13 13 9 6 5 4 2 1 2 5 9 12 13 12 13 12 9 6 5 7 8 8 9 9 9 12 14 14 12 12 12 11 9 7 5
15 23 20 20 18 16 16 15 13 12 10 7 3 5 3 4 8 11 13 15 13 10 9 9 8 7 7 9 8 9 10 13 12 11 13 13 12 12 11 11 11 10 9
13 23 22 20 18 17 15 12 11 10 6 2 2 6 7 12 12 13 15 15 13 10 7 9 9 10 12 11 10 12 14 14 12 13 12 11 9 9 10 9 9 8 9
18 23 20 20 19 17 14 11 11 8 5 6 9 11 14 13 12 14 16 13 12 8 5 7 9 12 14 15 16 17 16 13 11 7 4 6 7 11 12 13 11 9 10
14 19 20 19 18 16 13 11 10 5 7 9 10 11 15 12 13 13 12 13 10 6 3 6 9 12 13 13 15 16 15 13 13 8 8 6 10 9 8 11 11 12 10
11 14 15 18 18 15 15 14 10 6 4 9 10 11 13 11 11 11 13 13 10 5 2 5 8 10 11 12 13 14 15 12 13 7 4 2 3 5 3 2 3 2 2
10 11 10 17 17 18 15 13 11 8 5 8 9 11 12 11 11 10 10 12 8 5 3 6 8 8 8 10 11 13 13 9 9 4 2 1 2 3 3 4 4 2 2
11 8 10 17 19 17 15 12 11 8 6 6 6 6 9 9 10 11 10 8 7 5 4 6 6 6 6 7 10 12 10 7 5 3 1 2 3 4 4 4 4 4 4
10 6 8 18 18 17 14 13 12 10 9 5 3 6 6 7 8 10 12 9 8 6 6 7 6 5 5 6 8 10 10 7 4 4 2 4 6 5 6 6 6 4 4
8 6 4 10 12 16 16 15 13 13 10 8 7 7 7 7 7 8 9 10 10 9 9 8 6 5 5 6 7 9 9 6 6 4 4 5 7 8 7 6 6 4 3
11 8 4 3 4 10 12 10 8 9 10 9 8 8 8 7 7 8 9 10 10 10 10 10 9 7 6 7 7 8 7 7 6 7 7 8 9 9 9 7 5 4 2
20 12 7 5 6 7 10 8 9 11 12 11 11 8 10 11 10 9 9 9 10 11 10 11 10 9 9 9 9 9 8 8 10 10 11 10 10 9 8 7 5 3 2
20 22 18 13 10 9 9 13 12 9 10 9 10 10 9 11 11 8 8 10 12 12 12 12 12 11 12 11 11 9 10 8 13 13 12 12 11 10 9 8 6 5 4
19 22 22 22 19 16 17 15 14 10 8 5 8 8 6 11 13 12 12 11 12 12 14 13 13 11 14 14 12 12 12 10 14 15 14 15 13 12 12 10 8 7 7
11 14 22 24 23 22 19 17 13 13 9 10 10 11 10 13 15 16 17 15 13 13 12 16 12 12 14 15 14 17 16 14 15 18 17 16 16 14 14 13 10 9 9
7 7 5 12 23 23 22 21 17 17 16 14 14 16 17 18 18 20 21 20 18 16 16 15 15 15 18 18 20 20 19 19 18 18 19 19 18 16 15 15 13 11 11
6 10 11 14 11 13 21 22 20 20 20 20 20 19 19 20 20 24 25 24 22 21 22 21 20 21 22 25 26 23 21 21 21 21 22 22 21 19 17 17 16 14 14
14 12 9 9 13 14 13 13 21 21 25 22 21 20 21 23 22 21 23 25 26 26 27 27 27 27 29 31 30 27 25 24 24 25 25 25 24 22 20 19 18 17 16
18 21 20 17 15 15 14 13 17 18 22 23 27 27 25 27 27 27 26 25 27 29 31 32 32 31 31 31 32 31 30 29 28 28 29 28 27 26 24 22 21 20 19
18 20 24 25 23 16 14 17 20 23 25 26 26 27 28 30 28 30 31 30 29 31 32 32 35 35 36 33 32 32 33 31 32 32 30 31 31 29 28 27 24 23 22
19 19 19 20 23 23 22 23 23 24 24 25 27 29 28 28 32 33 33 34 33 35 36 35 34 39 39 38 35 35 28 34 37 38 36 35 35 34 32 30 30 27 26
14 20 23 24 27 28 30 31 31 31 30 29 25 24 26 27 27 29 36 33 35 34 36 39 38 40 41 41 42 33 15 22 25 33 39 40 39 37 37 35 33 32 29
8 8 9 11 13 18 23 28 29 29 31 31 29 25 20 20 23 23 22 26 35 37 38 38 36 42 42 47 43 44 42 29 18 13 25 30 37 39 39 38 36 34 33
5 5 5 6 7 9 9 9 12 17 21 24 28 31 26 20 20 22 24 25 25 26 29 35 36 39 41 40 46 44 46 47 38 29 29 30 29 34 38 37 37 35 34
7 8 8 9 9 10 12 13 13 13 13 14 14 17 23 30 30 24 23 26 26 25 24 26 31 36 38 38 42 45 47 47 49 47 37 36 32 30 33 34 36 36 34

GFSSE_850_spd_060.txt.gz
Wind_Speed
16 18 22 20 18 17 15 13 11 10 8 7 5 3 4 3 2 6 9 11 13 12 9 8 7 8 11 10 9 9 8 7 5 5 7 8 9 10 10 10 10 6 5
20 21 22 20 18 16 15 14 14 12 10 8 6 3 2 1 4 9 13 13 12 12 11 8 6 8 11 11 10 9 8 6 6 7 10 11 11 11 11 9 6 5 6
18 22 22 21 19 18 16 16 16 13 12 10 7 6 4 5 10 15 16 14 10 9 9 8 7 8 11 11 9 8 7 6 7 9 11 11 10 10 9 9 9 9 9
17 24 23 21 19 18 16 15 14 13 10 5 3 6 8 11 13 16 16 13 9 7 8 8 9 11 14 12 11 9 7 7 9 12 11 11 9 8 8 9 9 8 9
19 23 24 21 18 18 16 12 10 9 6 7 11 11 11 12 14 16 14 13 8 5 7 9 12 14 14 14 14 11 8 8 8 8 8 9 12 12 12 12 10 10 12
22 23 21 20 19 17 15 12 10 6 7 12 14 15 14 13 13 15 13 11 7 4 6 9 11 13 14 15 15 11 9 10 9 8 6 9 10 8 10 9 9 9 7
22 22 21 20 18 16 14 12 9 7 6 12 16 16 14 15 13 12 11 10 7 3 5 8 10 11 12 13 12 10 10 12 9 6 5 3 3 4 2 1 0 2 3
16 18 18 20 18 15 14 12 11 7 7 7 12 15 12 13 12 11 9 11 7 4 4 7 8 9 10 10 10 9 9 8 6 5 3 1 3 4 4 4 3 3 4
13 13 14 20 19 18 16 14 11 8 8 6 7 8 10 13 13 12 11 10 7 5 5 7 7 8 8 9 9 8 7 7 5 3 2 1 3 5 4 4 4 4 5
12 8 11 19 21 20 18 15 12 10 8 8 6 6 6 7 9 12 11 11 9 7 7 7 7 7 7 8 9 8 7 6 4 4 3 3 4 6 7 6 6 5 5
13 8 8 19 20 18 15 14 14 11 9 7 5 7 7 7 8 7 10 10 9 8 8 9 8 6 7 8 9 9 9 7 5 4 5 6 7 8 8 8 7 6 5
14 11 8 12 14 17 16 15 14 10 10 8 7 8 9 9 8 7 7 9 10 9 9 10 8 7 7 8 10 11 11 10 8 7 7 8 8 11 11 10 8 6 5
14 13 10 8 9 12 14 13 11 9 10 11 10 11 10 11 11 10 10 10 10 10 11 12 11 9 8 9 11 12 12 12 11 10 9 10 11 10 11 11 9 7 6
16 16 15 12 11 9 9 10 8 8 9 11 10 12 12 12 11 9 8 9 10 11 12 12 13 12 11 12 12 13 12 13 13 12 13 13 12 13 13 12 11 9 8
20 16 15 15 15 12 11 9 9 9 9 9 8 12 12 11 11 11 10 9 9 11 13 14 15 15 15 15 15 16 14 15 16 16 16 15 15 15 15 14 13 12 11
22 22 18 16 17 16 15 12 13 12 11 11 9 8 11 11 10 11 12 11 11 12 13 13 14 15 16 15 17 17 18 17 18 18 19 18 18 17 16 16 15 13 12
7 12 22 23 22 21 17 17 17 15 14 14 13 11 11 13 13 14 15 16 15 15 15 16 15 17 19 19 19 20 18 21 22 22 22 22 20 20 18 18 17 16 15
9 11 13 14 27 27 23 22 21 19 18 17 16 16 15 16 16 18 19 20 19 20 20 20 20 20 21 22 24 23 22 23 25 25 25 25 24 23 22 20 19 18 17
11 11 12 14 16 20 22 26 24 22 23 21 21 20 19 20 20 21 22 22 22 24 25 25 25 26 25 26 27 27 28 29 27 26 28 29 28 28 25 23 22 21 19
18 15 14 15 14 14 14 15 19 20 23 24 25 25 24 25 24 26 26 26 25 26 27 28 30 30 31 31 30 31 33 33 31 30 31 31 32 32 30 27 25 24 23
20 19 17 17 20 20 20 20 20 21 21 23 25 26 29 30 30 29 28 30 29 30 29 30 31 33 34 36 36 36 37 37 36 36 35 34 35 35 34 33 30 27 25
20 21 21 18 16 17 19 21 24 24 25 26 26 27 28 30 30 31 31 31 31 34 34 33 33 35 36 37 39 40 35 37 41 41 40 41 39 38 38 37 36 32 28
15 16 19 21 23 23 23 22 23 25 26 26 26 28 28 27 28 27 27 29 29 34 35 34 35 37 38 39 39 35 16 23 29 32 33 36 40 41 41 40 39 37 33
12 14 17 21 23 25 27 29 29 29 29 29 28 28 29 30 30 30 27 23 22 22 25 29 30 33 36 40 40 41 43 45 30 26 26 28 30 39 42 42 41 40 37
10 11 11 11 12 13 14 17 19 20 24 29 31 33 33 32 28 23 23 24 24 22 21 23 24 26 28 31 34 35 38 41 48 43 38 36 39 35 32 38 40 41 41
10 9 9 9 11 12 13 15 15 15 15 16 17 17 19 20 22 26 28 27 24 22 23 23 23 24 25 26 28 31 34 35 39 45 49 50 45 42 43 37 37 39 42

GFSSE_850_spd_063.txt.gz
Wind_Speed
22 20 21 19 18 16 14 12 10 9 7 4 3 4 4 4 5 9 11 12 10 9 8 7 6 7 8 8 7 6 6 5 5 5 6 7 8 8 7 8 5 6 7
25 21 22 19 17 15 13 11 10 10 8 5 3 5 3 5 7 12 12 11 12 11 6 5 6 8 9 8 7 6 4 4 4 5 8 10 10 10 8 5 5 7 8
22 23 22 20 17 15 13 14 12 11 11 9 4 6 5 7 11 14 12 9 8 8 8 6 7 10 10 8 6 4 2 3 4 7 9 9 10 9 9 8 9 9 9
21 23 22 20 18 17 15 15 13 12 11 6 3 7 9 11 14 15 12 8 6 8 8 8 8 11 10 8 6 4 3 6 8 9 9 9 8 9 9 9 9 10 11
20 22 21 20 19 17 16 13 9 9 8 5 7 9 10 12 14 14 11 7 4 7 9 10 10 11 10 8 6 5 5 5 7 8 9 11 13 10 11 10 9 9 10
19 22 22 20 18 17 15 11 8 6 4 10 13 10 12 12 13 12 10 6 4 6 8 10 10 11 10 9 7 6 6 6 8 8 9 10 7 9 7 7 6 4 6
23 22 20 19 17 17 13 10 8 5 6 9 15 12 12 13 12 11 9 7 5 6 7 8 9 9 9 8 6 4 5 6 6 6 4 2 1 0 2 3 3 2 1
21 22 21 18 17 15 13 11 9 7 6 7 11 13 14 13 12 10 9 8 5 4 5 6 7 7 7 6 5 4 4 3 4 3 1 2 4 6 6 6 6 4 4
18 18 18 19 17 14 12 12 12 8 7 7 9 5 7 12 12 11 10 9 6 4 5 6 6 6 6 6 6 5 4 3 0 0 1 3 5 7 6 6 7 6 6
16 14 15 19 18 16 15 14 10 9 7 7 7 7 6 4 6 7 9 8 7 6 6 7 6 6 6 7 8 8 6 4 3 3 4 5 6 9 9 8 9 8 6
15 12 13 18 19 18 15 13 11 10 7 6 5 6 8 8 7 8 8 7 7 5 5 6 6 6 6 8 10 11 8 6 6 6 6 7 9 10 11 11 10 10 8
16 13 12 18 20 17 16 14 13 11 9 8 7 7 8 8 9 10 10 11 9 7 7 7 7 7 6 8 10 12 11 9 8 8 8 9 10 12 12 12 11 10 9
13 13 12 15 18 18 18 15 13 11 9 9 9 8 9 10 10 10 10 10 9 9 9 9 10 9 9 9 10 12 13 13 12 11 11 11 12 13 13 13 13 12 10
16 13 13 14 14 13 15 14 12 11 9 9 9 10 12 11 11 10 9 8 8 8 10 11 12 13 12 12 12 13 15 15 15 14 14 14 14 14 15 15 14 13 12
18 16 16 15 14 13 11 11 11 10 8 7 9 11 12 11 10 11 9 10 8 9 10 12 14 15 15 15 15 16 16 17 18 18 17 16 16 17 17 17 16 14 13
18 17 15 17 16 15 13 12 10 9 7 8 8 8 10 10 9 10 11 12 12 10 9 11 12 15 15 16 17 18 18 19 20 20 20 19 18 19 19 18 18 17 15
20 17 17 15 15 17 15 13 13 10 10 12 11 11 11 11 11 12 12 13 12 13 12 13 15 16 17 18 20 19 19 19 20 20 23 23 22 21 21 20 20 20 18
13 17 18 20 20 18 18 17 16 15 15 15 15 15 15 14 14 15 16 17 14 16 17 18 18 20 21 20 22 22 22 22 23 23 24 26 26 25 24 22 22 21 21
13 16 16 18 19 20 24 22 21 20 20 19 18 18 18 18 18 18 20 19 18 19 21 23 24 24 25 26 26 25 26 26 27 25 27 28 28 29 28 26 25 24 23
16 16 18 21 21 19 20 25 24 25 25 23 22 22 21 22 22 23 23 23 23 24 26 27 28 28 29 30 31 32 31 31 31 32 32 31 31 31 31 31 28 28 26
19 19 18 18 18 19 22 24 23 23 24 23 23 24 26 26 26 28 28 28 28 30 29 29 30 32 32 32 34 37 37 37 37 37 37 37 36 36 35 35 33 32 30
19 18 17 18 20 21 22 24 26 25 25 25 25 26 26 28 30 31 31 30 29 29 30 31 31 33 33 33 35 37 38 36 36 36 35 36 36 38 38 37 37 35 33
16 17 17 18 18 19 20 22 23 25 27 27 27 28 30 31 31 32 32 33 32 32 31 30 30 31 32 32 33 35 20 22 24 22 23 26 29 31 34 36 37 37 36
16 17 17 18 19 22 23 25 26 27 27 27 28 28 29 29 30 31 31 31 30 30 29 26 21 22 23 26 27 29 33 37 36 31 26 24 23 29 29 30 33 35 36
16 16 16 18 19 19 19 18 19 20 23 25 26 27 29 30 32 34 34 32 29 29 27 25 22 21 22 23 24 23 24 25 27 33 37 28 26 27 31 30 28 30 34
14 13 13 14 15 14 14 14 14 14 14 15 16 17 17 18 19 20 22 25 29 29 26 25 24 22 21 21 22 21 22 22 24 25 31 35 36 34 33 32 34 38 38

GFSSE_850_spd_066.txt.gz
Wind_Speed
25 23 21 19 17 16 14 11 9 7 5 3 2 3 4 6 10 11 13 11 10 8 7 5 4 4 5 6 6 5 5 7 8 8 8 11 10 8 6 7 9 10 11
27 24 22 19 17 15 13 11 9 7 6 4 3 4 5 8 12 12 13 14 12 8 5 4 5 6 6 6 5 4 5 7 7 7 10 11 11 11 9 9 10 12 11
26 25 22 19 16 14 12 11 11 10 9 8 7 6 7 11 13 11 11 10 10 9 6 5 6 7 6 5 3 3 5 5 7 9 10 10 12 12 11 10 11 12 10
24 25 22 19 16 14 13 12 12 12 10 4 5 8 10 13 13 11 9 8 10 10 9 7 7 8 6 4 2 3 4 7 10 10 10 10 12 12 12 12 12 13 12
22 23 21 19 17 15 14 13 10 8 6 4 6 9 11 13 13 11 7 6 9 10 9 9 9 8 6 5 4 5 6 6 7 9 12 13 11 13 13 12 11 11 12
22 22 21 20 18 15 14 10 6 3 1 5 10 11 12 12 12 9 7 6 7 8 9 9 9 8 7 7 7 6 7 8 8 9 9 11 8 6 5 5 3 6 8
21 21 21 19 17 15 13 8 5 3 4 6 11 11 12 13 11 8 6 6 6 7 8 8 8 8 7 6 6 6 7 7 7 6 5 3 4 6 7 6 6 3 4
22 22 19 17 16 14 11 8 6 5 5 7 7 11 11 12 11 9 8 7 6 6 7 6 6 6 5 4 3 3 3 4 5 5 5 5 5 8 8 8 8 7 3
21 21 17 16 15 13 11 9 7 6 6 8 8 5 8 10 10 10 9 7 5 5 6 6 5 4 4 4 2 1 0 2 3 4 4 6 7 8 9 9 9 9 7
20 18 18 17 15 14 11 10 8 7 5 7 7 6 7 5 3 2 4 3 1 0 1 2 3 4 3 5 5 4 3 3 4 4 5 7 9 12 12 11 11 10 8
20 18 16 16 16 14 13 12 10 8 6 5 5 6 7 6 6 6 6 6 4 3 3 4 3 3 4 6 7 7 6 5 5 6 7 8 9 11 13 12 12 12 10
20 17 16 17 18 14 13 10 7 7 7 5 4 4 6 7 7 7 8 8 7 6 5 5 6 6 5 6 9 9 9 8 8 9 9 10 10 11 14 14 13 13 12
17 14 14 17 19 16 13 11 9 8 7 7 6 7 7 8 8 8 8 8 8 7 7 7 7 7 8 8 9 11 12 12 12 11 11 11 11 12 13 15 15 14 13
15 10 11 15 18 17 15 13 11 9 7 6 8 9 8 9 8 8 8 7 7 7 7 8 9 10 10 11 12 13 14 14 15 14 14 13 13 14 14 16 16 16 15
15 12 12 12 14 14 13 13 12 9 7 7 8 9 9 9 8 9 8 7 7 8 8 8 9 11 12 13 14 14 15 16 17 17 17 16 16 16 16 16 17 16 16
15 13 12 12 11 12 11 10 9 9 7 8 7 7 7 7 7 8 8 9 9 9 8 8 9 10 12 14 14 15 15 17 18 19 18 18 18 18 18 18 18 18 17
15 13 14 12 13 14 12 11 10 10 10 8 8 8 9 9 9 9 10 10 9 10 11 11 11 13 14 15 17 16 17 16 18 19 19 19 19 19 20 19 20 20 19
14 14 14 15 14 15 15 14 14 13 13 12 11 11 12 13 12 13 13 12 11 12 14 15 15 17 18 18 20 20 20 20 20 20 21 22 21 20 21 21 21 22 22
12 13 14 15 16 16 16 17 16 17 17 16 16 15 15 16 16 17 17 16 14 15 17 18 20 21 23 23 23 24 24 25 25 24 24 25 25 24 24 24 24 23 24
16 16 17 17 16 16 16 17 19 20 20 19 19 19 18 19 20 21 22 22 22 21 22 23 25 25 26 28 29 30 29 29 29 29 29 29 29 29 29 28 27 26 25
19 19 20 20 20 21 21 21 22 23 22 22 22 22 22 22 23 24 24 25 26 27 26 25 25 27 28 28 31 34 34 33 32 30 28 29 31 32 31 31 31 29 27
20 21 20 20 20 20 22 22 23 24 25 24 24 26 27 28 27 28 29 29 29 29 28 27 28 29 29 29 30 32 32 28 31 25 22 20 18 22 25 28 32 32 30
20 18 18 18 19 20 21 21 22 24 26 27 28 28 29 29 30 30 30 31 30 31 30 30 30 28 27 25 26 26 19 18 24 26 25 24 23 24 25 27 28 30 30
18 17 17 16 17 18 19 21 22 24 24 24 24 24 24 24 25 26 27 27 28 29 29 28 27 26 23 22 22 23 24 26 26 20 17 22 23 24 26 27 25 24 22
19 17 16 16 16 17 18 19 20 20 22 22 22 23 25 26 28 29 29 30 29 29 28 27 27 26 24 22 21 20 20 21 22 24 25 22 22 22 21 21 23 23 22
19 16 14 14 14 15 15 15 15 15 15 15 15 15 16 16 16 17 19 20 21 22 24 27 26 25 23 22 20 20 20 20 18 20 22 22 22 19 21 20 23 25 26

GFSSE_850_spd_069.txt.gz
Wind_Speed
25 25 21 18 17 15 13 10 8 5 3 2 2 5 7 11 13 14 13 11 9 9 7 7 8 7 7 6 6 8 9 11 11 11 12 12 10 8 11 13 14 14 13
28 26 22 19 18 15 13 10 8 6 4 3 4 6 10 13 15 15 16 13 10 8 5 5 6 6 6 6 6 7 9 10 11 11 13 13 13 12 13 13 13 13 12
27 26 24 20 17 15 12 10 9 9 7 9 9 10 12 14 13 13 13 13 11 9 7 7 8 8 7 6 6 7 9 10 11 11 12 13 14 14 14 14 16 16 11
27 25 23 20 17 15 13 12 11 11 10 8 11 12 14 14 13 12 11 12 12 11 9 9 9 8 7 6 6 8 9 12 12 12 12 13 15 15 14 13 14 14 13
25 25 21 20 17 15 14 13 13 8 4 4 11 13 14 14 13 8 9 12 12 13 13 12 11 9 7 7 8 9 9 9 11 12 13 13 14 12 12 8 11 13 13
26 23 20 19 17 15 13 11 7 5 2 2 12 13 14 13 12 7 9 10 11 12 13 12 11 10 9 9 9 10 11 10 10 10 10 10 7 6 6 6 5 6 8
26 22 21 19 16 14 13 9 6 5 6 8 12 14 12 12 11 8 8 8 10 10 11 11 10 10 9 9 9 10 10 10 8 7 7 6 6 8 7 7 6 4 3
24 22 21 18 15 14 12 9 7 6 7 9 8 11 12 11 8 8 7 7 7 7 8 8 8 7 6 6 7 7 7 7 7 6 7 7 8 9 10 9 9 8 5
22 22 21 17 14 13 10 8 7 7 8 8 7 10 10 8 7 8 7 5 5 5 4 5 4 3 2 2 2 3 4 4 5 5 5 7 8 9 10 10 10 10 8
23 21 19 16 15 13 11 8 7 7 7 7 7 5 8 9 6 6 4 4 4 4 4 3 1 1 1 2 4 4 4 5 5 6 6 7 9 10 10 11 11 10 9
23 21 19 17 14 13 11 9 8 7 7 7 6 5 4 4 4 4 5 5 3 2 2 2 2 2 3 3 4 4 5 4 4 5 6 7 9 10 10 11 12 12 10
23 21 18 16 15 14 12 9 8 7 6 5 4 3 5 5 5 5 5 6 5 4 3 4 5 4 5 6 6 6 6 7 6 7 8 9 9 11 12 12 12 13 12
21 20 19 18 17 15 11 9 7 5 6 5 5 5 4 5 6 6 6 6 6 7 6 5 6 6 6 7 8 9 9 9 9 9 10 11 11 12 13 14 13 13 13
18 16 16 16 18 17 13 10 8 6 5 5 5 6 5 6 6 6 6 6 6 6 6 6 6 7 8 9 10 11 11 11 11 11 12 11 12 13 13 14 15 14 13
16 14 13 14 17 16 14 12 10 7 6 6 5 5 6 6 6 7 7 6 6 6 6 6 7 8 8 10 10 12 13 13 13 14 14 14 14 14 14 15 16 16 15
15 13 13 11 13 14 12 10 9 8 7 6 5 4 4 4 6 5 6 7 7 7 7 7 7 8 8 10 10 11 11 12 13 14 15 15 15 15 15 15 17 17 17
15 12 12 11 11 11 10 9 8 8 8 7 5 6 6 6 5 6 7 7 7 8 9 10 10 11 11 12 12 12 13 13 14 15 16 17 17 17 16 16 16 18 19
17 16 14 14 13 12 11 10 10 10 10 9 9 9 9 9 9 10 10 9 9 11 12 13 13 14 15 16 16 16 16 17 17 18 19 20 20 20 19 19 17 17 19
17 17 17 16 15 14 13 13 14 15 15 13 13 13 12 13 13 14 15 14 13 14 16 16 17 18 20 21 21 22 22 22 22 22 22 23 24 24 23 22 21 20 19
14 15 15 15 14 14 14 15 15 17 17 16 16 16 16 16 17 18 18 18 18 19 20 21 23 22 23 24 25 26 26 27 26 26 26 25 25 25 26 26 25 25 23
16 16 15 16 15 15 16 16 17 17 16 17 18 18 19 20 21 21 22 22 21 22 23 24 25 25 25 24 27 28 29 29 28 27 20 18 17 15 16 17 21 25 25
20 20 19 19 19 19 19 19 20 19 19 20 21 22 23 24 25 26 26 26 26 26 26 26 27 28 28 26 26 27 24 21 23 18 12 13 19 20 22 21 19 21 22
21 21 21 21 21 20 19 20 21 21 22 22 23 25 26 27 27 27 28 29 29 29 30 29 28 27 28 25 23 22 15 16 17 19 17 20 18 19 20 19 20 20 21
21 21 21 20 19 19 18 18 19 20 20 21 22 23 24 24 24 24 24 25 26 27 27 27 26 25 25 25 24 22 21 21 15 13 12 12 17 18 18 19 18 19 19
21 20 20 19 18 18 18 18 19 20 21 22 22 24 25 25 25 26 26 28 28 29 28 28 27 26 26 25 24 21 19 20 20 20 19 16 16 16 17 13 14 15 15
23 22 20 18 16 16 16 17 18 18 18 18 17 16 16 17 17 18 18 19 19 19 19 19 19 22 24 22 23 21 21 18 15 16 19 21 21 20 18 19 14 15 15

GFSSE_850_spd_072.txt.gz
Wind_Speed
21 21 20 18 16 12 10 8 6 4 2 1 3 6 12 13 13 13 11 9 8 11 11 10 9 8 8 9 9 10 11 12 14 14 12 10 10 13 15 16 15 11 14
24 21 21 17 15 13 10 8 6 4 3 4 6 10 14 15 16 15 13 10 7 6 6 7 7 7 7 8 8 10 11 12 13 14 14 14 14 15 16 17 16 12 12
24 21 21 18 16 14 11 9 8 7 9 9 9 12 14 14 13 13 13 12 9 8 8 10 10 9 8 7 9 11 12 13 13 14 16 12 15 16 16 17 16 13 13
24 22 21 20 17 15 11 9 10 9 10 10 12 14 14 13 12 12 13 13 12 11 11 11 11 9 8 9 10 12 12 13 14 14 13 11 12 15 13 14 15 13 14
23 22 21 20 17 14 12 13 13 10 7 9 13 15 15 13 10 11 12 13 13 14 13 12 11 10 9 10 11 11 11 12 13 14 12 12 10 8 9 9 11 10 12
23 21 22 21 18 14 14 12 8 5 4 8 13 15 15 14 8 9 11 12 12 13 13 13 11 10 10 11 11 12 11 11 13 10 9 8 7 9 8 7 5 6 6
22 20 23 20 18 16 13 10 6 5 8 12 13 14 14 13 9 8 9 10 10 11 12 12 11 10 10 10 10 11 10 9 7 7 7 7 8 9 9 8 6 4 2
22 20 21 18 17 16 12 8 7 8 10 10 11 12 13 11 9 7 7 8 8 8 8 8 8 7 7 7 7 7 8 7 7 6 7 7 9 10 10 9 9 7 4
20 20 20 18 16 15 12 8 7 9 10 10 11 11 11 9 6 7 6 5 5 6 6 6 6 5 5 5 5 5 5 5 4 4 5 5 8 9 10 11 11 10 8
19 19 18 17 16 15 12 9 8 9 10 10 7 9 11 8 7 7 5 4 3 2 2 3 2 2 2 2 2 2 2 3 2 4 4 5 7 8 9 10 11 11 11
19 18 17 16 16 14 11 10 9 8 9 8 8 5 4 4 3 4 5 4 3 2 1 2 1 1 2 3 3 3 3 3 3 3 4 7 8 9 8 9 10 11 10
22 18 17 15 15 14 13 11 9 8 7 7 6 5 5 5 5 5 5 5 5 4 3 3 4 4 4 5 6 5 5 6 6 6 6 8 9 10 11 10 11 11 11
22 22 16 16 15 14 12 11 10 9 8 8 6 5 5 5 6 6 6 6 6 6 5 5 6 6 7 7 7 7 8 8 7 9 9 9 9 10 11 12 11 11 11
22 21 18 15 16 14 11 12 10 8 8 7 7 7 6 6 6 6 6 7 6 5 6 6 7 8 9 9 10 10 10 10 9 10 10 10 10 11 11 12 14 13 11
16 19 18 17 16 17 14 11 10 9 8 8 7 6 7 7 6 7 7 7 6 5 5 6 6 7 8 9 10 10 10 10 11 12 12 11 11 11 12 12 13 15 15
16 15 15 15 15 16 15 13 10 9 9 9 7 5 5 5 6 7 6 7 6 6 7 7 7 7 7 9 9 10 10 10 11 12 13 13 12 13 13 13 13 14 14
15 14 14 13 14 15 14 12 11 11 10 8 7 6 6 5 5 6 7 6 6 8 8 10 10 11 11 11 11 11 12 12 14 14 15 16 17 16 15 15 14 15 16
15 17 15 15 14 14 13 12 11 10 10 9 9 9 8 8 8 9 9 8 9 10 11 12 12 13 14 14 15 13 14 16 17 18 19 20 21 20 21 19 19 18 18
18 19 19 17 15 14 14 14 13 13 13 13 13 12 11 12 12 12 13 13 13 14 15 16 16 16 17 16 18 19 19 20 21 22 22 23 24 24 24 25 24 23 21
20 21 20 18 17 16 16 17 16 17 17 17 17 16 15 16 16 17 17 17 17 18 19 19 20 19 22 22 22 23 23 23 24 23 23 22 20 21 20 21 24 24 23
15 17 18 18 17 18 18 18 17 17 16 16 17 18 18 19 20 20 21 20 21 21 21 22 23 24 24 24 24 24 18 21 22 19 15 15 14 14 15 17 16 18 19
15 17 17 17 18 18 18 18 18 17 17 17 18 19 21 21 22 23 24 25 26 26 25 25 25 25 26 25 23 22 17 15 17 12 10 10 14 18 17 18 19 17 17
17 18 19 20 20 21 21 21 21 21 21 20 20 22 22 23 24 25 26 27 27 28 28 28 28 27 25 25 22 22 13 14 12 11 14 13 16 15 15 17 17 18 17
20 20 20 20 21 21 21 20 20 19 19 20 20 21 22 23 24 24 24 24 25 25 26 27 27 28 27 26 25 25 25 24 13 12 13 13 16 16 20 16 19 18 18
19 22 21 21 21 19 18 18 18 18 19 20 22 23 24 25 25 25 26 26 26 27 28 28 27 27 27 26 25 25 24 22 20 20 17 16 14 16 17 15 19 19 19
20 23 22 20 19 18 18 18 18 18 19 20 21 21 21 21 20 20 20 21 21 21 21 22 22 22 22 23 23 22 25 22 18 18 17 18 18 18 17 18 19 17 16

GFSSE_850_spd_075.txt.gz
Wind_Speed
16 19 19 16 13 11 7 4 4 3 4 5 7 12 10 14 11 11 10 11 14 15 14 11 10 9 9 10 12 13 14 16 16 15 14 15 17 19 20 16 12 12 13
21 20 20 16 13 10 8 6 3 4 4 6 9 14 15 15 13 12 9 8 7 8 9 8 8 9 9 11 12 14 15 17 18 18 21 18 18 19 20 17 14 15 14
21 21 20 17 14 11 8 7 5 6 8 9 12 14 13 14 13 13 11 10 9 10 10 10 11 10 10 11 13 15 16 16 21 25 20 14 15 17 18 17 16 16 16
22 22 20 18 16 12 9 7 8 10 10 11 14 14 13 12 12 13 13 13 12 13 13 12 11 11 11 12 13 15 17 17 19 17 12 11 10 11 12 14 14 15 16
21 21 20 19 17 13 10 10 10 10 10 10 14 15 15 9 10 12 13 14 14 15 13 12 11 11 11 12 13 14 16 18 20 14 11 11 5 10 9 8 10 10 12
21 19 21 19 17 14 14 14 10 7 7 11 14 15 16 8 9 11 12 14 14 14 13 12 11 11 12 12 12 13 13 16 15 9 9 8 10 11 10 8 6 4 5
21 19 21 19 17 15 14 11 7 5 9 13 14 15 15 9 8 10 11 12 12 11 11 10 10 10 10 10 11 11 10 12 9 9 8 6 10 11 10 9 9 7 4
20 18 21 19 16 16 14 9 7 10 13 13 13 13 13 8 7 8 9 10 10 10 10 9 8 8 8 8 8 8 8 8 8 6 7 7 9 10 11 11 11 10 8
18 18 18 18 16 15 12 9 8 12 12 13 12 12 10 8 4 8 6 7 7 6 7 6 6 5 5 5 5 5 5 6 9 3 5 5 9 9 10 11 12 11 9
16 19 17 16 15 15 12 10 9 13 12 11 12 12 11 7 5 6 4 3 4 3 3 3 3 3 2 2 3 3 3 4 4 4 4 6 8 8 9 10 11 12 11
19 20 18 17 15 14 9 10 9 11 12 10 9 6 7 2 3 2 3 2 1 1 1 2 1 1 1 2 3 3 3 4 3 3 3 8 8 8 7 8 9 10 11
21 20 19 18 17 14 11 9 7 8 10 8 6 6 6 6 6 8 4 4 4 4 4 4 4 4 3 4 7 5 4 5 4 5 7 9 10 10 10 8 8 9 9
18 17 17 16 17 18 13 10 8 6 7 8 9 8 7 7 7 6 4 5 6 6 6 6 5 4 4 6 6 4 7 6 4 6 8 9 10 10 11 11 10 9 9
16 19 15 16 16 15 13 12 10 9 8 7 8 8 7 5 6 5 5 5 6 5 4 6 5 7 7 7 6 7 8 8 6 7 8 11 11 11 11 11 13 11 11
17 22 16 15 15 15 14 14 11 10 10 8 8 8 7 7 5 5 6 6 6 6 6 6 6 6 6 6 7 8 8 7 8 9 10 13 12 12 12 12 12 13 13
14 15 17 17 15 16 15 14 12 10 8 9 8 7 8 7 6 7 6 6 6 6 6 6 6 6 6 7 7 8 9 9 9 11 13 14 15 14 14 14 14 13 14
14 14 14 14 15 16 15 14 12 11 10 10 9 8 7 7 6 6 6 6 6 7 7 8 8 9 9 9 10 9 10 10 11 12 14 16 17 19 17 17 16 16 16
11 14 14 13 12 14 13 14 12 11 11 10 9 8 8 7 7 7 7 7 8 8 9 9 9 10 10 10 11 11 11 13 15 14 16 16 20 22 21 21 19 19 19
13 14 14 14 13 14 13 12 11 12 11 10 9 9 9 9 10 10 9 10 10 11 11 12 11 12 12 14 14 14 17 17 16 16 17 19 19 20 22 19 22 23 21
11 13 15 16 14 13 13 12 12 11 12 11 11 11 11 11 11 13 13 13 12 13 14 14 15 15 16 16 17 18 21 20 17 19 21 17 16 16 17 17 15 17 17
13 16 15 16 17 15 15 14 14 13 13 13 14 15 15 14 14 15 16 15 15 17 17 17 18 19 19 19 18 23 21 15 19 22 14 13 13 13 14 15 18 16 15
8 12 14 15 14 15 14 15 13 12 12 11 12 14 16 18 19 20 21 21 20 20 22 22 21 22 21 18 19 20 24 20 15 17 13 11 8 11 14 15 15 15 17
12 14 16 17 18 17 18 18 19 18 17 16 17 18 18 19 21 22 23 24 24 25 25 25 26 24 24 24 24 22 13 10 11 11 11 9 10 11 14 14 18 18 17
14 18 17 19 19 19 20 21 20 18 15 15 17 18 19 20 21 22 22 24 24 24 25 24 24 23 20 24 22 23 23 23 20 15 15 11 14 17 12 9 11 15 15
19 17 20 19 19 19 19 19 19 19 19 19 18 19 20 22 23 24 24 24 25 25 25 25 25 25 24 24 22 20 24 22 24 23 19 21 18 16 15 14 16 19 22
25 15 17 19 19 17 17 17 17 16 16 16 17 18 20 21 23 22 22 21 20 21 21 21 21 22 22 21 20 19 20 17 16 22 22 21 17 19 20 20 24 22 21

GFSSE_850_spd_078.txt.gz
Wind_Speed
15 21 20 16 14 11 9 8 9 9 9 12 15 13 14 12 13 15 17 19 19 17 14 12 11 11 12 13 16 19 20 21 21 22 22 21 23 22 18 16 16 16 14
21 23 21 17 14 12 10 8 7 9 8 12 14 16 14 14 12 11 11 12 12 12 11 9 11 12 13 16 18 20 23 25 25 23 21 18 20 21 18 18 18 18 15
24 24 21 18 15 13 10 8 8 10 11 14 15 15 15 14 14 12 11 10 11 12 12 14 14 13 15 18 19 20 23 23 22 20 18 14 15 16 17 17 17 18 16
25 25 23 19 16 13 10 10 12 13 14 16 16 13 13 14 15 14 13 13 15 15 14 15 14 15 16 18 19 20 20 21 19 17 13 5 11 11 12 13 14 14 14
24 24 24 21 16 13 11 13 14 14 15 16 16 16 11 14 15 16 16 16 17 15 15 15 15 15 15 16 17 19 20 19 14 11 7 8 11 12 11 9 8 9 11
23 22 22 20 16 13 14 15 14 14 16 16 16 17 9 13 15 16 17 16 16 15 15 15 15 15 15 14 14 15 17 14 11 7 9 12 12 13 12 11 9 7 5
22 20 21 18 16 15 16 14 12 12 15 17 16 17 11 13 13 14 15 15 15 14 14 14 13 13 13 13 12 12 12 12 10 5 10 11 12 13 12 12 11 9 7
22 19 20 18 16 16 14 10 9 12 15 17 17 16 12 9 11 12 12 13 12 12 11 11 11 10 10 9 9 8 8 10 8 7 9 10 11 11 12 12 12 11 9
19 17 21 19 16 16 12 9 10 15 15 15 16 14 12 11 11 11 10 10 10 9 9 8 7 6 6 6 6 6 6 7 4 5 5 8 9 9 10 10 11 11 10
15 15 20 18 17 15 11 9 12 15 16 15 15 14 11 7 9 9 8 7 6 6 5 5 4 3 3 3 3 3 4 4 5 6 7 7 9 9 8 8 9 10 9
16 16 15 16 15 14 11 9 12 14 14 14 14 11 7 6 6 5 5 4 3 2 2 2 1 1 1 2 3 4 3 2 3 4 8 8 9 9 8 8 8 9 9
19 17 16 12 15 14 9 10 9 11 11 10 9 10 9 3 1 2 1 2 2 2 2 1 2 2 3 3 3 4 3 4 5 5 10 9 10 10 10 9 9 9 9
14 18 18 19 16 16 11 8 6 7 9 7 4 8 11 11 9 8 5 3 4 3 4 4 3 4 4 4 8 7 7 7 6 5 11 11 11 11 12 12 11 10 10
17 18 17 17 17 17 13 14 6 3 6 8 11 7 12 11 7 4 3 5 4 3 4 5 6 6 9 8 7 8 8 10 7 6 11 11 11 11 12 12 13 12 11
21 20 18 17 17 17 16 17 12 10 9 9 9 11 8 6 6 7 7 7 5 4 5 5 6 6 7 7 8 10 9 9 10 11 13 14 13 12 13 13 13 14 15
21 24 17 19 17 17 16 17 15 11 8 10 10 11 12 9 9 9 8 7 7 6 6 6 6 7 7 8 8 9 10 11 11 13 15 17 17 15 14 14 14 15 15
19 14 26 19 19 18 17 16 16 12 9 11 11 9 9 10 8 7 6 5 5 6 6 7 8 10 11 11 11 10 11 12 13 15 16 17 20 22 20 18 16 16 17
19 18 20 21 19 18 19 17 17 13 14 10 8 8 7 7 6 6 6 6 6 7 9 9 9 10 11 11 12 11 11 15 14 20 19 17 18 20 24 23 22 19 18
13 16 17 16 15 16 17 14 15 13 12 11 10 9 9 8 8 8 7 7 8 10 11 12 12 12 13 13 14 16 17 19 22 20 19 19 19 19 20 20 17 21 17
14 16 17 20 18 17 17 16 15 17 14 13 11 10 10 9 9 10 11 10 11 12 13 14 14 14 16 17 19 20 21 21 21 19 19 20 17 13 16 17 23 16 15
17 16 16 18 18 18 18 17 16 16 15 18 18 15 13 13 13 13 13 11 11 13 15 15 17 18 20 21 21 21 21 22 22 24 22 19 10 12 17 16 16 14 13
11 18 19 17 18 19 19 18 17 17 15 11 12 16 20 20 19 19 19 19 18 18 18 18 19 20 20 19 21 23 25 25 22 13 14 15 13 9 14 17 17 14 15
9 13 17 18 17 16 18 18 20 17 16 16 16 16 16 14 15 17 18 20 20 21 21 22 24 25 26 25 23 21 12 7 8 8 8 9 9 13 16 18 15 16 16
18 14 18 20 21 21 21 21 18 17 18 17 18 19 17 14 15 17 18 20 20 21 22 23 23 22 20 21 21 21 21 23 17 14 15 13 17 13 15 10 11 17 23
24 22 17 20 21 21 20 20 19 18 18 17 16 16 16 16 17 18 20 21 22 22 22 22 21 22 22 21 20 21 19 18 20 23 22 20 20 17 16 15 19 24 25
25 23 22 22 21 20 20 19 18 17 17 17 17 15 16 18 19 20 21 21 20 20 19 19 19 19 19 21 21 18 17 17 18 18 21 20 23 17 15 19 21 24 23

GFSSE_850_spd_081.txt.gz
Wind_Speed
21 22 21 19 16 13 11 12 11 13 16 15 19 15 18 20 22 23 23 21 19 17 13 13 12 13 17 21 23 23 24 24 22 21 21 22 20 20 20 20 18 17 16
28 25 22 19 17 15 14 11 13 13 16 16 16 16 16 16 17 17 16 16 15 13 10 13 15 17 20 23 24 25 23 21 21 18 17 17 19 18 19 19 19 17 15
28 27 23 21 18 16 12 11 12 15 18 18 17 18 16 15 14 14 13 13 11 13 15 16 18 20 21 22 23 22 21 20 16 12 16 14 14 15 16 17 16 16 16
31 28 24 22 19 15 13 13 15 18 19 18 17 18 18 16 15 13 14 14 16 17 17 18 19 20 21 21 20 20 19 16 13 11 13 13 12 12 13 12 14 13 13
30 28 26 22 18 15 15 16 17 19 19 18 17 18 18 18 17 17 17 18 18 18 18 18 18 19 19 20 19 18 17 13 10 11 12 13 12 13 12 10 8 7 9
30 28 25 22 18 16 17 18 19 20 19 18 18 17 18 19 19 19 19 19 19 18 18 18 18 18 17 17 15 15 14 9 9 11 13 13 13 14 13 12 10 8 7
28 27 25 21 18 17 18 17 18 20 20 19 18 17 18 18 19 18 18 18 17 17 16 16 16 15 15 14 12 11 10 8 9 9 10 12 12 12 12 12 11 10 9
26 25 24 20 19 19 17 15 16 19 20 20 18 15 16 17 18 17 16 16 15 14 13 13 12 12 11 11 9 8 6 7 7 7 9 11 11 10 10 11 11 10 10
19 23 22 20 20 20 14 13 15 18 19 19 18 14 14 13 15 14 14 13 12 11 10 9 9 8 8 7 6 6 4 5 5 6 7 9 11 10 9 9 10 10 9
18 18 20 19 19 17 13 12 17 18 18 18 18 14 13 12 13 12 12 11 10 9 7 6 5 4 4 4 4 3 2 2 3 5 8 9 10 10 10 9 9 9 9
15 14 20 18 18 15 12 12 17 18 18 18 16 12 10 10 10 9 8 7 6 5 4 3 2 1 1 1 2 2 1 1 3 6 8 9 10 11 10 10 9 9 9
17 16 15 16 17 14 11 11 15 14 17 16 13 12 10 9 7 7 5 4 3 3 3 2 1 2 2 2 1 1 2 3 4 6 7 8 9 10 11 10 10 10 10
17 15 14 11 15 13 10 11 12 13 13 14 12 9 7 6 2 3 2 2 3 3 3 2 2 1 2 4 5 4 4 5 6 7 8 9 10 11 11 11 10 10 11
19 16 18 14 13 13 9 10 9 9 12 12 12 11 7 5 6 5 5 4 2 3 2 3 2 3 4 6 6 6 7 7 6 6 8 10 10 11 11 11 12 12 11
16 19 19 17 17 16 14 11 8 4 7 7 8 9 9 13 10 8 6 4 4 3 4 4 3 5 6 6 7 8 8 8 9 9 11 13 13 13 13 12 12 13 14
20 20 21 19 16 16 16 17 13 11 7 10 11 12 13 11 10 8 7 7 6 5 5 6 5 6 6 7 8 8 10 10 10 11 13 15 18 17 16 15 15 15 15
21 21 22 23 20 19 18 18 16 16 14 13 12 10 13 14 11 9 9 7 6 6 6 6 6 8 9 10 10 9 9 10 13 14 16 17 18 18 19 18 20 18 16
25 22 22 21 21 23 19 18 21 16 15 15 12 11 8 10 10 9 8 7 6 6 6 7 8 9 10 10 10 11 12 13 15 16 19 20 18 17 18 19 19 18 16
21 26 24 23 23 22 22 22 20 19 17 16 12 11 10 5 7 7 7 7 7 8 9 10 10 11 11 12 14 15 17 18 19 21 22 20 18 17 20 17 17 17 19
21 19 19 22 23 23 20 20 21 22 19 15 14 11 11 10 8 7 7 7 9 10 11 12 13 12 14 17 17 20 22 21 20 20 18 17 16 13 12 12 14 16 17
19 18 20 23 23 22 22 22 21 25 21 19 17 18 16 13 11 12 12 11 12 12 13 15 16 17 18 20 22 23 22 22 23 24 20 15 16 14 13 17 13 17 16
18 22 22 25 24 24 23 22 22 21 20 20 20 17 16 15 16 16 18 15 15 17 16 17 18 20 21 19 20 21 25 23 20 8 9 12 13 13 13 14 15 18 15
15 20 24 23 23 24 23 24 26 24 23 19 18 18 20 24 24 21 18 17 18 17 18 20 21 22 23 23 22 22 13 7 11 12 6 6 10 13 14 16 18 17 18
16 16 20 25 26 26 25 26 23 23 21 20 20 20 19 18 18 18 17 18 18 18 19 21 22 23 22 21 20 18 20 21 12 11 10 8 13 14 14 16 16 15 14
22 19 19 18 23 24 24 26 24 23 24 23 22 21 20 18 16 16 17 18 19 20 21 21 21 21 20 19 19 19 20 22 20 20 20 19 15 16 19 15 15 15 20
28 25 23 20 20 23 24 25 25 25 24 23 22 20 18 17 17 17 17 19 20 20 20 19 19 19 19 19 20 20 21 19 16 14 15 17 17 16 19 18 14 17 20

GFSSE_850_spd_084.txt.gz
Wind_Speed
27 26 23 20 18 15 14 14 12 17 16 19 22 23 24 23 23 24 22 19 18 16 14 12 15 18 20 21 22 22 20 20 19 21 19 19 19 20 19 17 15 15 14
32 28 24 21 18 16 17 14 16 18 18 18 21 23 23 23 24 22 20 17 15 12 14 17 19 21 22 23 22 20 18 17 17 17 16 15 17 19 16 15 16 16 14
31 28 25 22 20 19 16 17 17 17 18 18 20 20 20 19 18 18 16 12 11 16 18 20 21 22 22 21 20 18 18 18 17 15 14 12 14 13 14 14 15 15 15
30 28 25 23 22 18 16 17 19 19 19 19 20 19 17 15 14 13 12 15 17 20 20 21 21 21 20 18 17 14 16 16 15 14 14 12 11 11 11 11 11 11 12
31 28 26 23 20 18 18 20 22 20 19 20 20 19 18 17 16 16 19 20 20 21 21 21 21 20 19 17 16 15 15 14 13 13 14 13 12 13 11 9 8 8 8
30 27 24 23 19 18 20 21 23 21 20 20 20 20 20 20 21 21 21 21 21 20 20 19 19 18 17 15 13 12 12 11 10 12 12 12 12 13 12 11 10 9 9
28 26 24 20 17 19 20 22 23 22 21 18 20 20 21 21 21 21 20 20 19 19 18 17 16 15 14 12 11 8 8 8 9 9 11 11 11 12 12 12 11 11 10
28 26 23 19 17 20 19 20 23 23 23 19 19 20 20 21 20 19 19 18 17 16 16 15 14 13 11 9 7 6 4 6 7 7 9 11 11 11 10 10 11 11 10
26 25 23 20 19 19 18 18 21 22 22 20 18 18 19 19 19 18 17 16 15 13 12 12 11 10 9 7 5 3 3 3 5 6 7 9 11 11 10 10 10 10 10
24 23 22 22 23 19 16 17 20 21 21 19 17 15 16 16 17 15 14 13 12 10 9 8 7 6 6 5 4 3 2 1 5 5 7 9 10 11 10 10 10 9 9
21 22 21 21 22 17 15 17 20 21 20 20 16 14 14 14 14 13 12 10 9 7 6 5 4 4 3 3 2 2 2 1 4 5 6 8 9 10 10 10 10 10 10
27 24 22 22 21 17 14 17 20 20 19 18 15 14 12 13 11 10 8 8 7 6 5 4 4 3 2 1 1 1 1 2 4 5 6 6 8 10 11 10 10 11 11
24 20 22 20 20 17 15 17 18 18 18 17 15 14 13 12 10 8 5 6 6 5 5 4 4 3 2 1 2 2 2 3 4 5 6 6 7 9 10 11 10 10 11
21 18 17 16 18 15 13 14 15 17 17 17 15 13 11 11 8 4 5 4 4 5 4 5 4 3 1 2 2 3 4 4 4 5 6 7 8 10 11 11 11 13 13
6 13 18 18 14 16 12 13 14 14 14 14 13 12 9 8 5 5 5 5 4 4 4 3 3 2 2 4 5 6 6 6 7 7 8 9 11 12 12 12 13 13 15
19 28 20 22 15 14 12 12 12 10 8 11 12 10 10 8 8 7 8 7 5 4 4 4 4 4 4 6 7 8 8 8 8 9 10 12 13 15 15 15 15 16 16
25 25 21 22 22 18 16 13 12 12 10 10 8 9 11 13 13 11 9 7 6 5 5 6 6 6 7 9 9 9 8 8 9 12 15 16 16 17 15 16 16 16 14
26 30 29 27 21 20 19 16 15 14 15 14 12 10 12 14 15 12 11 9 8 7 7 7 7 9 10 10 10 9 12 13 14 15 14 18 18 19 16 17 13 14 14
27 27 29 28 19 20 20 20 21 18 17 17 16 12 11 11 12 11 10 9 9 9 9 8 9 10 11 11 13 15 15 16 18 20 22 21 20 15 15 17 14 15 15
24 24 25 26 24 20 25 25 23 23 24 21 18 13 14 12 6 7 6 5 8 10 10 11 12 12 14 15 17 18 19 21 22 22 21 20 19 16 15 11 12 12 14
24 25 27 27 26 26 26 23 23 26 25 23 20 17 16 15 13 11 10 11 11 11 12 14 16 16 17 19 21 21 22 21 22 23 23 19 18 15 16 15 14 15 13
21 23 22 26 24 25 24 26 23 25 29 21 19 20 22 21 18 16 15 16 16 15 15 17 17 18 20 19 20 22 24 23 19 12 8 9 10 13 13 13 15 16 17
15 22 22 23 22 25 24 25 25 24 24 24 24 22 19 18 18 18 18 20 20 20 22 20 21 22 23 25 22 21 10 7 7 11 12 8 5 10 13 14 18 17 15
15 14 21 23 23 24 23 23 25 26 26 22 23 21 22 25 22 22 24 24 23 21 20 21 23 24 25 25 23 21 22 24 13 10 6 8 9 13 17 18 18 16 17
20 18 16 21 23 25 24 26 25 27 26 26 28 29 25 24 22 22 22 21 20 20 21 22 23 24 23 22 21 21 20 20 22 23 19 18 15 15 18 17 20 18 18
29 24 21 18 18 24 27 29 28 26 26 27 27 28 27 25 23 21 20 20 20 21 22 22 22 22 21 21 20 21 21 20 18 14 15 15 16 15 16 17 18 17 17

GFSSE_850_spd_087.txt.gz
Wind_Speed
29 26 23 20 18 14 12 11 14 17 22 22 19 21 22 20 19 20 18 15 16 13 10 11 15 17 18 19 18 19 19 20 20 18 19 21 20 18 17 16 15 15 14
32 27 23 20 18 16 13 13 17 18 23 23 22 21 21 22 23 20 17 17 14 11 13 17 18 19 20 18 17 18 18 18 18 17 16 18 17 15 15 16 16 16 14
32 29 24 20 17 16 14 16 17 19 23 24 23 23 25 24 21 19 16 12 12 16 18 19 19 19 18 16 18 19 18 17 17 16 14 14 13 14 15 13 13 14 14
31 28 24 20 19 17 16 18 16 18 22 23 23 23 21 20 18 15 12 12 18 19 20 20 19 18 16 16 18 17 17 17 17 16 15 13 12 12 11 11 12 11 13
30 26 24 21 19 15 17 18 18 19 20 22 21 19 18 16 13 10 17 21 21 21 20 19 18 16 15 16 17 16 15 15 15 15 14 14 14 14 13 12 11 11 9
28 26 24 22 18 16 17 20 18 18 20 20 19 18 17 15 15 20 22 22 21 20 19 18 17 15 13 14 14 12 12 12 12 13 13 13 13 14 14 13 13 12 10
27 26 24 21 16 18 19 22 18 18 19 20 19 19 20 21 22 23 22 21 20 19 18 17 15 13 10 9 10 9 9 9 9 10 12 12 13 13 13 13 13 13 12
27 24 22 18 16 18 20 23 22 18 16 19 21 21 23 23 22 22 21 20 19 18 16 15 13 11 9 7 5 6 6 6 6 8 9 11 12 12 12 12 12 12 12
24 23 20 17 16 16 18 22 22 22 16 17 19 20 21 21 21 20 19 18 17 16 14 13 11 9 7 5 3 1 3 5 5 6 8 9 11 12 11 11 11 11 11
23 21 19 16 17 17 16 18 21 21 18 16 16 17 18 18 18 18 17 15 14 13 12 10 9 7 6 4 3 1 2 3 5 5 7 8 10 11 11 11 11 11 11
21 20 17 16 17 16 14 16 19 21 19 16 14 15 16 16 16 15 14 12 11 10 9 8 7 6 5 4 3 2 2 3 5 5 6 7 8 10 11 10 10 11 11
22 20 18 17 18 15 13 16 20 21 20 18 15 14 15 14 13 12 11 10 9 8 7 6 6 5 4 3 2 2 2 3 5 4 5 6 7 9 10 10 10 11 11
19 20 18 16 17 13 12 17 20 21 20 18 15 13 14 13 12 11 9 8 7 6 6 5 4 4 3 2 2 2 2 3 4 4 4 5 6 8 9 11 11 11 12
17 14 18 17 16 14 12 15 18 20 21 19 17 15 13 12 11 8 7 6 7 7 6 6 4 4 3 2 1 1 2 2 4 5 5 5 6 7 9 10 12 13 13
28 25 17 21 20 15 13 14 17 18 19 18 17 16 14 12 9 6 7 7 6 6 6 5 4 3 3 3 3 3 4 5 6 6 6 7 8 9 10 11 13 14 15
37 20 20 17 17 18 17 14 14 18 17 17 16 14 12 11 9 7 7 7 7 5 5 5 5 5 4 4 5 6 7 7 7 7 8 10 12 12 12 13 15 15 17
31 19 25 13 19 23 20 16 15 14 15 16 14 13 11 11 9 8 8 7 7 7 6 5 5 5 6 7 8 8 7 7 10 12 14 14 15 17 14 17 15 14 14
28 26 20 21 18 26 22 20 17 16 16 14 13 9 10 9 11 11 10 9 9 8 7 6 6 7 8 9 9 8 11 13 12 14 15 17 18 18 19 16 15 15 13
31 32 28 24 16 24 17 22 20 21 18 17 16 14 11 10 12 13 12 10 10 9 9 8 9 9 10 9 11 13 14 16 17 19 22 22 21 20 16 16 15 12 10
25 25 29 29 26 30 27 27 25 24 21 21 19 17 14 10 10 10 10 9 9 9 10 10 10 11 12 13 15 18 19 20 21 23 24 22 22 21 19 15 15 12 11
28 31 32 30 30 32 31 27 22 23 26 26 23 20 15 14 13 10 8 8 8 10 10 11 12 14 15 16 18 20 23 24 23 22 22 21 16 15 15 13 15 12 12
25 29 31 32 31 31 30 30 27 19 28 31 22 21 19 20 17 15 15 15 16 16 14 13 15 17 18 18 19 21 22 22 18 11 12 13 11 11 10 12 12 14 14
18 23 27 27 26 29 31 30 28 29 29 31 29 24 22 20 22 18 15 17 18 18 17 17 21 22 23 23 22 19 11 7 11 12 13 15 11 8 9 13 14 16 14
11 15 21 23 22 25 26 26 26 34 29 30 26 22 21 17 19 18 17 20 19 23 22 22 23 23 24 25 24 22 21 23 16 12 9 8 8 12 15 16 17 19 16
17 14 15 21 23 24 23 26 31 30 28 25 23 24 23 20 22 23 21 22 21 22 22 21 21 22 23 24 22 22 20 19 20 22 20 20 18 17 18 19 20 18 17
22 20 20 19 20 21 24 25 27 26 25 24 24 25 23 19 21 21 21 22 20 20 20 21 22 22 21 22 21 21 21 19 18 17 18 20 19 18 19 20 17 18 20

GFSSE_850_spd_090.txt.gz
Wind_Speed
29 26 23 18 16 13 11 11 15 18 16 15 18 22 20 18 17 18 15 13 13 10 12 15 16 17 20 19 18 19 19 20 19 21 21 19 18 19 19 19 18 17 14
31 27 23 19 16 12 11 13 19 20 18 18 20 22 21 19 18 18 15 16 11 11 15 17 19 20 18 19 18 18 19 19 18 18 18 19 17 17 18 17 18 16 14
31 27 21 18 16 13 11 16 20 21 20 19 21 21 20 21 19 17 16 12 12 15 18 19 20 19 18 18 18 18 18 19 18 17 15 14 15 15 13 13 15 15 13
30 27 22 19 17 14 12 16 20 23 22 21 22 24 24 21 18 15 12 13 16 18 19 20 18 19 19 18 18 18 18 18 18 17 16 15 14 14 14 15 15 13 15
30 26 22 20 18 15 16 16 19 23 22 21 22 22 21 17 13 11 14 18 20 20 20 19 17 18 18 17 16 15 16 17 16 16 15 16 16 17 16 16 15 14 14
28 25 22 20 17 14 16 16 17 21 21 21 20 17 15 12 11 18 20 21 21 20 19 17 16 16 16 15 13 13 13 14 14 13 14 15 15 15 15 15 15 14 14
27 25 22 19 15 14 17 17 15 18 20 19 19 17 15 14 19 22 21 21 20 19 17 15 14 13 12 11 10 10 10 10 11 12 13 13 14 14 14 14 14 14 14
27 24 22 18 14 15 20 17 15 15 17 18 18 18 18 22 23 22 21 19 18 17 16 14 11 9 8 8 7 7 8 8 8 9 11 12 13 13 13 13 13 13 12
25 23 21 16 13 16 21 21 16 11 14 16 18 21 21 23 22 21 20 19 17 16 14 12 10 7 5 3 4 4 5 6 6 7 9 10 11 12 11 11 11 12 11
24 21 19 14 14 14 19 21 19 14 13 14 17 18 19 20 19 19 18 17 15 14 12 11 9 6 4 1 1 2 3 4 5 6 7 8 9 10 11 11 11 11 11
22 19 14 12 14 13 15 19 20 16 13 14 14 16 16 16 16 15 14 14 12 11 10 9 7 5 4 2 1 2 1 3 4 4 5 6 8 9 10 10 10 10 10
21 21 15 12 13 13 12 15 20 19 16 14 13 13 14 14 14 13 12 11 11 9 9 7 6 5 4 3 2 2 2 3 4 3 3 4 6 7 8 9 9 10 10
25 22 19 17 12 9 8 12 18 20 18 16 13 13 14 14 14 13 11 9 9 8 7 6 6 5 5 4 3 3 2 2 2 3 3 4 5 6 8 10 10 11 11
29 27 21 18 15 11 7 9 17 20 20 17 15 14 14 14 13 11 9 9 8 8 7 6 5 5 5 3 2 2 2 2 3 3 3 4 4 6 7 9 11 13 14
28 23 15 15 17 13 10 9 15 18 20 19 16 15 13 14 12 10 9 9 8 8 6 7 5 5 4 4 3 3 3 3 5 4 4 5 6 8 9 10 12 14 15
29 22 18 14 11 13 13 12 13 16 18 20 18 16 15 13 13 10 9 9 9 7 7 7 6 6 5 4 4 4 5 5 5 5 6 8 11 12 13 10 13 14 15
32 23 28 16 30 17 12 13 14 14 16 18 17 15 15 13 12 11 10 9 9 9 8 7 7 6 6 6 6 6 6 6 8 9 11 11 12 13 15 15 12 12 15
26 26 18 15 18 27 20 18 16 17 18 16 15 14 13 12 13 13 11 9 9 9 9 8 7 6 6 7 7 6 8 10 11 13 14 15 16 19 21 17 13 12 14
22 25 25 26 20 29 28 18 18 19 21 20 19 16 13 10 11 13 12 10 11 11 9 8 8 7 7 7 8 9 12 14 15 16 18 19 21 21 18 16 13 14 10
23 25 29 23 22 26 23 14 21 15 27 23 23 20 17 14 13 13 13 12 11 12 9 8 8 8 8 10 13 15 15 17 20 23 24 24 22 22 20 19 14 12 11
24 29 35 29 30 27 24 29 21 33 29 26 25 24 23 21 16 10 9 11 11 9 7 7 8 10 11 13 15 18 18 21 20 18 19 17 15 11 11 12 13 13 13
28 33 36 37 32 29 29 34 33 29 31 31 33 24 25 26 23 20 16 14 15 13 11 11 12 14 15 15 18 19 14 18 2 5 11 10 13 14 10 10 11 13 12
24 27 25 27 30 32 32 32 31 27 26 29 33 27 25 26 23 21 21 20 15 14 14 16 17 17 19 19 18 16 8 5 16 12 9 17 15 13 9 9 11 13 15
10 22 27 31 32 32 33 33 30 35 37 35 31 29 27 28 25 22 24 22 16 16 17 19 21 20 21 19 18 17 16 17 11 9 7 6 7 7 11 13 15 17 18
11 10 14 24 25 27 26 28 29 36 32 26 23 27 27 28 23 17 19 18 13 16 18 23 21 19 18 18 18 18 16 14 15 16 19 18 17 14 13 17 20 20 19
16 19 16 13 14 20 22 22 23 24 22 22 18 20 24 20 17 14 15 13 10 20 21 18 17 18 18 18 17 18 18 16 15 14 16 19 20 18 14 16 19 20 21

GFSSE_850_spd_093.txt.gz
Wind_Speed
28 26 26 20 18 15 13 12 15 15 14 16 22 22 21 18 15 17 14 14 12 13 18 16 19 21 18 20 20 20 20 21 21 21 19 20 20 20 19 18 16 15 15
31 28 24 20 17 14 13 15 18 16 15 18 23 22 21 19 18 16 14 14 12 16 18 19 20 20 19 20 20 20 20 19 19 19 19 20 17 17 18 18 14 16 17
32 28 24 18 16 14 13 19 20 17 18 20 23 22 22 19 18 15 17 12 16 18 19 21 20 19 20 19 19 20 19 18 17 16 16 16 16 16 14 13 13 16 17
31 28 23 19 17 14 15 21 22 18 20 22 23 23 21 20 17 16 13 16 19 20 21 20 20 20 19 19 19 19 19 18 17 17 16 16 15 15 15 15 15 15 15
30 27 23 20 17 14 17 22 23 21 20 22 22 22 23 19 17 13 15 19 20 21 20 19 20 18 18 17 17 17 16 16 16 15 15 16 16 16 15 15 15 15 15
29 25 22 20 16 14 18 21 25 22 21 23 24 23 20 16 14 14 20 21 21 21 19 19 18 17 15 14 14 14 14 14 13 14 14 14 15 15 15 14 14 13 13
28 24 22 20 17 15 17 19 23 22 20 20 20 17 15 12 16 20 21 21 20 20 18 17 16 15 13 12 11 11 11 11 11 11 12 12 13 13 13 13 12 12 12
28 24 22 20 15 16 18 17 20 22 21 19 17 16 14 16 21 22 22 20 19 18 16 14 12 11 10 9 8 8 8 8 8 9 10 11 11 12 12 11 11 11 11
28 26 24 20 16 18 20 17 15 17 18 19 19 17 18 21 22 22 21 20 18 17 15 12 10 8 7 5 5 5 6 6 6 7 8 9 9 10 10 10 10 10 10
30 27 24 18 17 22 22 18 15 14 15 17 20 20 24 24 22 22 21 18 16 14 12 10 7 4 3 2 2 3 3 4 5 4 5 6 7 8 8 8 9 9 9
30 28 23 17 17 22 24 21 16 13 14 16 18 20 22 21 20 19 17 16 14 13 11 9 7 5 3 1 0 0 1 2 3 2 3 3 5 6 7 7 7 8 8
29 28 22 16 18 21 25 23 20 13 15 16 17 18 18 18 18 17 17 15 14 12 11 9 7 6 4 4 2 1 1 1 2 1 1 2 3 4 6 7 7 8 9
26 25 23 20 19 19 20 23 23 19 16 16 16 16 17 18 18 17 16 14 13 11 10 9 8 7 6 5 4 3 2 2 2 1 1 1 2 4 6 7 8 10 11
25 26 25 22 19 18 16 17 22 22 19 16 16 15 15 15 15 15 14 12 12 11 10 9 8 8 7 5 4 3 3 3 3 3 3 3 3 5 7 8 10 12 13
17 25 25 23 21 17 14 14 18 21 20 16 15 15 15 15 14 13 12 10 11 10 9 9 9 8 7 6 4 4 4 4 4 4 3 4 5 7 8 10 10 13 15
24 23 20 18 16 16 13 13 15 16 17 18 17 15 13 14 14 12 10 10 9 9 9 9 9 8 7 6 4 4 5 5 4 4 5 6 8 9 10 12 12 12 13
31 18 20 19 15 11 8 9 13 17 17 17 17 17 16 15 13 12 11 9 10 10 9 9 8 8 7 6 5 5 5 5 6 8 7 10 10 11 14 14 15 13 14
31 31 25 19 15 17 14 10 11 13 16 17 17 17 16 16 13 13 12 11 11 11 10 9 8 8 7 7 6 5 5 8 9 10 12 13 15 16 15 18 16 13 12
37 30 16 17 24 15 20 20 15 12 13 15 18 19 17 15 14 14 13 12 12 12 11 10 9 8 7 7 7 8 10 11 12 15 17 20 21 21 20 17 16 12 12
37 22 22 13 13 14 17 23 20 15 18 15 18 20 20 19 16 13 12 14 14 14 12 10 8 7 7 9 12 13 13 14 17 20 22 20 19 19 17 16 16 15 13
33 22 23 25 20 10 33 24 19 14 23 19 22 23 24 23 21 18 15 16 17 14 11 9 8 8 9 10 15 15 17 20 14 16 10 14 10 10 13 13 11 13 13
29 33 23 24 27 25 24 30 24 22 19 24 22 23 22 23 24 26 18 17 17 15 14 9 8 9 12 13 16 18 12 13 6 5 17 11 10 14 14 9 9 11 13
28 26 27 33 31 31 29 25 29 26 15 25 29 27 29 24 26 27 23 22 22 21 14 13 12 14 14 14 16 15 7 5 12 15 8 12 14 10 10 10 9 11 13
26 24 28 36 39 33 30 27 28 28 27 27 27 23 23 30 27 24 21 23 24 16 12 9 9 15 18 18 17 15 15 17 7 8 9 8 10 14 10 11 13 14 15
12 13 18 21 28 36 31 28 27 27 26 29 30 31 25 26 30 37 23 21 21 17 18 18 11 12 19 17 16 16 15 14 15 16 14 17 13 13 16 12 15 17 19
8 10 10 10 13 20 22 23 25 26 25 30 34 25 23 25 18 16 14 17 16 17 16 11 7 17 15 16 16 16 16 15 15 15 17 20 21 20 14 14 14 16 18

GFSSE_850_spd_096.txt.gz
Wind_Speed
19 23 25 21 21 17 14 12 11 13 18 21 21 20 17 17 17 16 14 14 17 17 15 23 17 19 19 18 19 21 21 20 19 19 19 19 17 16 15 15 15 13 16
23 25 25 21 19 16 14 14 15 16 18 21 21 21 20 18 17 16 16 14 18 17 18 21 17 19 19 19 20 20 19 19 19 18 19 17 15 16 15 15 15 14 14
24 26 26 20 19 17 15 17 18 17 18 23 22 22 22 20 18 16 16 15 18 20 20 19 17 20 19 18 18 18 18 16 15 15 19 11 14 12 12 12 14 14 14
24 25 23 20 18 16 17 20 19 19 20 24 22 23 22 20 18 18 15 18 21 21 20 20 20 19 18 18 18 17 17 16 15 14 11 10 11 13 12 13 13 13 11
23 24 23 22 18 17 20 23 19 22 23 24 24 24 23 20 18 18 18 21 21 20 20 20 20 18 17 17 16 15 15 15 13 13 12 12 12 12 12 12 12 11 11
25 23 23 23 19 18 23 25 21 22 24 24 24 23 22 19 17 18 22 22 22 20 19 20 18 16 15 14 14 14 13 12 12 11 11 12 11 11 12 11 11 10 9
24 23 25 22 19 18 23 27 25 23 25 25 25 25 21 19 17 23 23 23 22 20 20 18 16 15 13 12 11 10 10 10 10 9 9 9 10 10 10 10 10 10 9
25 25 24 23 20 19 21 28 26 25 28 28 25 21 18 18 21 24 24 23 22 20 19 17 15 12 11 9 8 8 7 7 8 7 8 7 8 9 9 9 9 9 9
25 24 26 26 21 20 21 26 25 25 25 24 22 19 17 21 25 25 23 22 21 19 17 15 12 10 8 7 6 5 5 5 5 4 6 5 6 7 7 8 8 8 8
28 25 29 25 23 23 23 21 24 24 23 22 20 18 21 25 25 24 23 21 20 17 15 12 10 8 6 4 4 3 3 3 2 2 3 3 4 5 6 6 7 7 8
26 25 27 24 22 22 22 22 20 21 22 23 22 22 24 23 23 22 21 19 17 15 13 11 9 7 5 4 3 2 2 1 0 1 1 0 1 3 4 5 6 6 7
32 29 26 23 24 25 22 22 20 20 20 19 21 23 19 20 19 19 20 18 16 15 13 10 8 6 4 3 2 2 2 2 1 1 2 2 1 2 2 3 5 6 8
32 31 28 22 24 26 24 24 22 17 17 18 20 20 17 20 22 20 19 17 15 14 12 10 9 8 7 6 4 4 4 2 2 2 3 3 3 4 4 4 5 7 10
24 32 28 25 24 25 23 23 21 19 18 17 19 21 22 20 20 18 15 15 14 14 12 11 10 9 8 7 5 4 4 4 3 4 5 5 5 5 5 6 7 8 10
17 28 28 26 26 26 27 23 21 20 19 19 19 19 19 19 18 17 16 14 14 13 12 12 10 10 9 8 6 5 5 5 5 5 5 6 6 7 9 10 11 11 13
17 19 30 31 27 24 24 26 27 22 20 18 18 18 17 16 17 16 15 12 12 13 13 11 11 10 8 7 6 5 5 5 5 6 6 8 10 10 10 11 12 12 14
21 18 23 24 24 21 19 20 25 25 23 20 18 16 15 15 14 14 12 11 11 11 11 11 11 11 10 9 7 7 6 6 6 8 9 9 11 13 13 16 15 15 17
33 21 28 23 24 22 18 16 18 22 22 22 19 19 17 15 14 13 13 11 11 12 12 12 11 11 9 8 6 6 6 6 8 9 11 10 12 14 16 18 18 17 16
32 30 32 25 22 22 19 17 14 15 18 18 19 20 19 17 17 15 13 13 13 13 14 13 12 10 8 7 6 6 7 8 8 10 11 14 16 22 18 19 21 18 15
32 22 37 24 26 25 24 23 20 15 13 14 16 16 18 18 18 17 15 16 15 16 16 14 12 11 8 8 8 8 8 9 10 10 13 15 15 16 13 13 14 11 15
36 36 28 21 23 22 24 24 21 20 16 18 14 13 17 19 18 18 18 17 18 19 16 14 13 11 9 8 6 7 8 11 11 12 13 10 16 10 11 14 15 8 13
41 36 26 24 19 15 13 20 18 20 18 14 16 12 15 20 21 23 22 21 20 20 19 16 14 10 8 8 6 7 6 8 7 6 9 13 10 12 14 12 10 10 12
29 33 24 29 26 20 16 19 18 21 10 12 16 11 11 16 17 18 21 30 24 23 22 22 18 15 10 7 9 5 6 4 8 8 11 11 10 13 11 12 11 11 13
17 25 30 21 24 23 27 26 21 22 19 11 10 11 13 14 17 20 21 20 19 28 24 20 13 8 9 7 9 11 12 12 7 8 6 9 10 13 15 12 14 15 16
23 22 24 25 25 25 28 28 26 20 15 21 19 15 23 24 22 18 22 21 23 26 22 16 13 11 9 6 9 12 11 11 13 10 12 8 10 14 15 16 15 15 18
18 20 21 23 26 28 33 30 33 30 26 30 32 26 27 24 21 21 12 4 20 16 6 13 24 31 27 27 22 13 15 14 11 12 11 13 13 13 16 14 16 17 18

GFSSE_850_spd_099.txt.gz
Wind_Speed
14 19 23 20 19 16 15 14 14 17 20 19 19 17 14 13 16 15 14 15 17 16 19 15 18 17 18 20 18 19 19 20 20 19 18 16 15 15 15 15 13 14 15
15 22 25 21 20 18 15 13 14 17 21 22 20 18 16 17 16 15 16 17 17 19 17 15 17 17 19 20 20 20 20 20 20 21 17 14 16 15 15 15 13 13 13
21 23 25 20 20 18 15 14 16 18 22 23 21 20 18 18 18 16 17 19 17 21 17 16 18 18 18 18 17 17 17 17 19 22 17 9 11 13 13 13 14 14 12
21 23 24 22 19 18 16 16 18 19 22 23 22 21 21 19 18 19 16 19 20 21 19 19 18 17 17 17 16 15 15 15 15 17 11 9 9 11 11 12 12 12 9
20 21 22 21 19 17 17 18 19 20 23 24 23 23 22 20 18 18 19 21 21 20 20 20 18 17 16 16 15 15 14 14 15 11 11 10 9 11 10 11 10 9 8
21 21 23 21 20 18 19 20 19 21 25 25 25 24 23 19 19 18 22 22 21 20 20 20 18 16 15 15 14 13 12 12 14 10 10 9 9 10 11 10 9 8 7
19 23 23 21 19 18 21 20 20 22 25 25 25 25 23 19 20 22 23 23 21 19 21 18 16 14 13 12 12 11 11 11 8 9 8 6 8 10 10 10 9 9 8
23 23 22 23 19 19 23 22 20 24 26 26 26 25 23 21 20 24 23 22 20 20 19 17 14 12 11 10 9 9 9 10 7 7 6 5 7 8 9 8 8 8 7
20 22 21 24 21 20 23 25 20 24 26 27 27 24 21 20 22 24 23 21 19 20 18 16 13 11 9 8 7 6 6 8 9 4 5 2 5 6 6 7 7 7 7
14 20 22 22 23 20 22 27 25 25 26 29 26 22 21 22 24 24 22 20 18 18 17 14 11 9 7 5 4 4 4 6 4 3 3 1 2 4 5 5 6 6 7
43 33 22 25 22 20 18 27 27 25 26 22 21 18 19 24 25 23 21 21 19 17 15 13 10 7 5 4 3 2 2 4 1 2 2 2 1 2 3 4 5 6 7
35 43 37 28 25 23 20 24 27 28 24 21 20 19 19 19 19 16 21 20 18 16 14 11 8 6 4 1 2 2 2 3 1 2 6 3 2 2 3 4 5 8 9
30 47 52 32 31 31 24 22 20 23 21 19 19 19 16 17 20 20 21 20 17 15 12 10 8 6 3 6 5 1 5 3 1 3 5 4 4 4 4 4 5 8 11
19 30 35 38 35 32 30 26 21 20 20 20 17 20 18 17 18 14 16 17 14 13 7 7 5 6 7 7 5 4 4 3 2 4 7 7 6 5 5 6 7 7 11
8 19 24 32 30 27 29 28 25 21 20 20 22 20 18 16 16 15 13 14 12 11 11 10 9 8 6 6 6 5 4 4 4 4 4 9 8 7 8 8 8 10 12
16 26 8 28 28 26 25 21 25 25 19 18 19 19 17 15 15 15 13 12 12 12 11 10 8 8 7 7 6 6 6 5 5 5 4 8 12 12 11 9 9 12 13
18 25 23 8 24 25 25 20 19 19 23 21 17 17 16 16 16 16 13 13 12 12 10 10 8 9 8 8 7 6 6 5 6 5 7 6 11 12 13 14 14 13 14
34 27 22 17 22 19 18 26 23 23 16 19 18 17 17 16 16 16 15 13 11 11 11 9 9 9 8 7 6 6 6 6 6 7 7 8 8 9 12 13 17 16 14
31 26 32 32 26 22 17 17 17 23 26 23 19 19 18 18 18 17 16 14 13 12 11 11 10 9 8 8 6 7 9 6 7 7 7 9 11 13 13 12 15 14 13
30 27 40 36 30 27 18 19 17 17 18 20 21 22 20 20 19 20 16 14 12 12 11 11 11 10 9 9 10 7 7 8 8 8 9 8 8 12 10 8 9 11 10
29 26 42 34 32 27 17 19 19 18 19 18 19 17 18 19 18 17 17 13 14 13 11 12 11 12 12 12 9 7 8 8 8 12 8 3 8 8 9 10 8 8 9
32 33 39 31 30 20 18 20 18 17 15 15 18 18 17 16 16 17 17 16 15 15 15 14 13 14 15 11 8 7 5 3 7 7 7 8 6 9 11 11 10 8 10
32 33 36 29 23 17 14 17 16 18 17 16 14 16 14 15 17 17 16 17 20 21 19 18 18 21 15 13 9 4 2 4 4 8 8 8 6 8 10 12 13 11 13
34 38 28 23 22 23 21 17 18 13 14 12 15 16 15 14 12 16 18 17 17 17 22 24 23 20 17 11 7 6 8 8 2 5 8 11 14 10 12 12 12 14 15
11 28 17 22 23 23 23 20 18 15 13 16 17 16 16 16 11 12 12 13 18 20 16 18 25 30 13 14 10 8 7 6 7 8 11 8 12 14 16 12 15 14 16
14 16 19 21 21 22 25 23 23 24 18 19 22 20 18 19 18 20 20 14 16 23 19 7 2 21 30 24 22 19 16 17 17 16 13 14 17 15 16 17 14 15 18

GFSSE_850_spd_102.txt.gz
Wind_Speed
13 10 20 21 19 17 16 16 16 17 16 16 16 14 11 11 13 13 13 17 21 17 18 17 14 19 17 15 17 19 21 21 20 18 17 15 14 15 16 16 14 15 15
12 11 19 20 19 17 16 15 15 17 18 17 17 16 13 13 15 14 15 17 20 15 16 16 16 19 20 19 19 21 21 21 21 18 15 14 15 15 16 15 14 14 14
13 12 21 20 18 16 15 14 14 17 19 19 18 17 15 16 16 17 17 17 20 14 16 16 18 19 19 19 19 19 20 22 22 18 14 10 12 13 15 16 14 13 12
16 11 21 20 19 17 15 13 14 17 19 21 19 17 17 18 18 18 18 18 20 14 17 18 19 18 17 17 16 16 18 19 19 16 7 9 11 12 12 12 13 9 11
16 13 20 19 17 17 15 14 16 17 20 21 20 20 19 19 19 19 18 19 21 17 20 18 18 17 17 16 16 16 16 15 13 10 8 10 11 11 10 10 9 9 8
18 16 17 19 17 15 14 15 17 19 21 22 22 22 22 20 20 18 20 23 21 20 20 18 18 17 16 15 15 14 14 14 13 9 8 10 10 11 11 10 9 9 8
20 18 17 17 17 15 15 15 17 19 23 23 23 23 22 20 20 20 23 22 21 20 19 18 17 15 14 14 13 12 12 13 12 5 8 9 9 10 10 10 10 9 9
19 20 19 17 17 15 15 16 18 20 26 25 25 24 23 19 22 23 24 22 19 22 19 17 15 13 12 11 11 11 11 13 8 4 8 7 7 9 9 9 9 9 8
20 16 18 21 18 15 15 17 17 22 26 26 25 26 23 20 22 23 23 21 18 21 18 16 13 11 10 9 9 9 9 11 5 7 4 6 6 7 7 7 8 8 8
25 27 26 20 20 17 17 19 16 24 26 25 25 25 22 21 23 24 23 20 17 19 17 15 12 10 8 7 6 7 8 7 4 5 1 3 3 4 5 6 6 8 8
28 25 20 14 16 14 19 23 18 23 26 27 28 24 23 23 25 24 24 21 18 18 17 14 11 8 5 4 4 4 5 7 4 1 4 3 2 3 4 5 6 7 9
32 35 32 32 22 7 17 27 25 26 28 30 29 23 24 25 27 25 24 22 18 17 17 13 9 6 4 4 2 3 4 3 3 3 5 4 3 2 3 4 5 7 8
26 27 50 51 31 29 28 30 34 28 30 32 28 22 19 25 25 23 25 23 21 18 15 11 8 6 4 2 2 2 1 5 3 5 4 5 4 3 3 3 4 5 7
32 24 22 45 47 39 26 36 40 34 27 21 21 24 20 23 24 24 22 22 17 15 13 10 8 7 5 8 7 6 6 2 4 4 5 8 7 5 5 5 5 7 9
25 23 19 28 46 29 31 38 37 34 26 26 20 26 22 23 24 19 19 19 17 13 10 7 6 7 8 5 7 6 4 3 3 3 8 8 11 10 9 7 5 6 9
26 18 13 16 33 28 30 35 26 28 26 21 22 24 26 22 24 18 16 17 15 15 16 13 10 8 5 6 6 2 1 4 8 7 6 8 9 11 13 9 8 9 12
27 19 19 15 16 11 30 30 30 29 28 31 31 30 27 25 27 26 23 21 19 16 14 12 10 7 7 5 6 9 7 6 6 4 6 8 10 12 10 9 11 10 10
23 22 27 25 26 25 19 29 33 28 30 28 34 31 26 24 25 24 21 18 15 13 12 11 12 12 13 12 9 6 4 6 4 5 6 7 8 10 16 17 16 14 13
18 23 21 27 24 27 26 18 24 29 29 29 24 26 26 24 23 21 19 16 14 12 12 11 10 12 10 10 12 8 10 8 6 7 7 8 14 18 17 16 12 11 9
24 26 23 16 18 32 24 21 20 20 22 25 24 23 24 23 22 20 19 15 13 13 12 11 11 12 12 8 10 12 12 10 11 11 12 13 16 12 11 7 9 10 10
23 25 27 24 36 35 28 25 22 19 26 23 22 21 21 19 19 21 19 17 14 12 10 10 9 12 11 12 13 13 9 10 11 13 14 13 10 11 9 8 10 10 12
21 24 26 37 37 34 29 24 20 21 20 19 21 20 20 20 18 16 18 16 15 15 14 12 13 13 15 15 15 11 11 10 15 13 10 9 9 9 11 10 9 13 11
24 32 26 31 29 33 26 12 16 15 17 19 18 20 19 18 18 18 18 17 17 16 14 17 17 19 19 19 17 11 7 5 8 6 10 9 9 9 12 11 11 13 11
25 30 30 33 22 31 16 14 14 15 15 15 18 20 20 17 16 16 19 16 17 16 16 18 20 23 22 18 17 16 10 10 5 5 9 9 12 12 13 14 15 14 15
30 26 24 25 21 21 17 13 14 12 11 12 13 13 15 13 14 15 17 16 17 16 17 20 20 25 26 21 25 18 17 15 11 12 13 8 13 13 14 17 15 18 19
29 26 17 21 18 16 13 11 14 13 12 11 13 16 14 16 17 17 18 17 14 12 11 15 17 20 21 12 21 23 21 24 17 15 21 19 19 16 19 17 15 17 19

GFSSE_850_spd_105.txt.gz
Wind_Speed
11 16 22 23 21 20 19 17 16 16 15 15 15 12 12 15 14 13 15 19 18 17 17 19 20 16 15 18 20 21 19 18 18 15 14 16 17 16 17 15 15 15 14
11 14 20 22 22 19 18 17 16 16 15 15 15 13 12 14 15 15 18 20 18 18 16 17 18 16 17 21 21 21 20 18 17 15 14 14 16 17 16 15 14 15 14
13 15 20 21 21 19 17 17 16 17 17 16 16 14 13 16 15 16 19 19 16 16 15 16 18 20 20 22 21 21 20 16 14 14 13 12 14 16 16 14 13 13 13
11 14 16 21 20 19 17 16 16 17 18 18 17 16 14 17 16 17 19 19 14 14 15 17 19 19 19 20 21 19 18 14 12 13 13 11 12 12 11 12 11 10 10
12 13 14 21 20 18 17 15 15 18 19 20 19 18 17 18 18 19 19 19 15 15 17 18 18 18 18 17 18 16 15 11 8 8 10 11 10 10 10 9 9 9 8
13 14 12 19 18 18 16 14 14 17 19 21 21 20 19 19 20 20 20 20 16 18 18 18 18 18 17 17 17 15 13 11 11 9 9 10 9 10 10 9 9 9 9
12 13 15 18 16 16 14 13 15 17 19 21 22 21 21 21 21 19 21 22 18 20 19 18 17 17 16 16 14 13 12 8 11 10 9 8 9 9 9 9 9 9 9
10 14 15 14 15 14 12 12 15 18 20 22 23 23 23 21 21 21 24 22 22 21 19 18 16 15 15 14 13 12 11 8 9 8 8 7 7 8 8 8 8 9 9
16 20 20 18 14 12 11 12 15 18 21 24 24 24 24 22 23 24 23 23 25 22 19 17 15 14 12 12 11 11 8 7 5 7 7 6 5 6 6 6 7 7 8
17 21 22 21 19 17 12 13 14 18 22 25 25 25 26 24 25 25 24 22 24 23 20 17 14 12 11 10 10 10 8 7 4 3 4 5 4 4 4 5 6 7 8
21 23 23 26 24 18 14 13 14 17 22 23 24 26 27 24 26 26 25 23 23 23 19 16 13 11 9 8 8 8 7 5 4 2 3 4 3 3 3 4 5 6 7
23 24 27 29 27 21 14 13 11 17 24 27 27 30 28 24 27 26 26 22 21 23 19 15 12 10 8 7 7 7 7 5 2 1 2 3 3 3 3 3 4 5 6
22 25 26 28 18 20 8 3 11 19 28 29 31 33 29 27 29 29 28 25 22 22 21 16 12 9 8 8 7 8 5 4 3 2 2 3 5 4 4 4 5 6 7
27 24 29 26 28 41 43 35 27 28 32 36 34 32 26 26 32 31 29 27 26 23 19 14 11 10 8 7 6 6 4 3 6 3 4 4 5 7 6 6 6 7 9
21 22 24 29 24 25 29 36 26 33 37 39 36 32 25 28 33 30 30 29 24 20 17 15 13 11 9 7 8 7 5 6 3 1 5 7 6 6 9 8 6 6 10
18 19 24 23 26 25 27 42 27 38 39 37 33 34 27 27 29 28 25 23 21 20 18 16 14 10 6 9 8 6 7 4 4 6 5 6 5 7 9 6 6 7 12
21 20 22 21 25 20 24 44 29 40 36 37 25 25 28 25 25 25 25 26 23 21 17 14 12 13 11 8 8 9 7 7 6 7 7 7 7 10 9 9 12 13 11
21 23 22 19 22 23 23 34 31 38 36 31 28 32 29 28 25 27 26 25 23 20 19 17 15 14 13 12 11 10 10 7 6 9 10 7 8 10 12 16 18 16 14
17 20 24 19 28 25 18 28 31 31 34 33 33 31 35 31 29 29 25 23 23 21 20 17 16 15 15 15 13 11 9 7 9 10 10 11 13 15 18 20 17 12 10
26 23 18 23 27 27 21 22 28 27 38 35 36 37 34 30 29 29 27 24 22 21 19 18 17 16 13 12 12 12 9 10 12 14 16 17 18 19 17 12 9 10 10
22 20 21 23 26 26 30 27 37 33 31 32 32 39 35 29 28 27 26 23 22 21 18 16 16 16 15 15 14 15 15 15 16 18 19 17 18 14 10 8 9 9 10
25 23 21 29 24 29 29 33 35 24 23 29 29 29 29 27 27 26 26 23 21 19 18 17 17 16 16 18 17 14 14 15 17 16 17 15 14 10 9 9 11 11 12
24 21 19 27 30 32 28 26 20 18 17 24 22 23 27 26 23 22 24 24 23 21 19 19 19 19 19 20 22 17 10 12 18 17 18 13 10 9 10 12 13 15 15
22 17 19 22 33 30 24 24 25 27 28 24 25 29 26 25 25 24 22 23 22 21 18 18 18 19 20 23 27 25 21 14 14 11 19 15 12 11 12 17 17 17 16
24 28 25 21 30 23 18 20 21 18 19 21 18 17 19 21 23 22 23 21 19 18 20 21 21 20 26 26 28 28 26 21 15 13 11 14 15 14 18 18 19 19 18
19 24 29 27 20 23 16 16 15 14 14 12 9 13 21 21 18 19 22 18 23 22 23 17 17 18 27 28 27 26 28 30 26 21 17 19 16 18 19 19 20 20 20

GFSSE_850_spd_108.txt.gz
Wind_Speed
13 23 25 25 23 21 20 20 20 19 17 16 16 13 11 13 12 10 14 15 15 12 20 19 17 12 16 18 19 18 17 15 15 13 15 16 15 16 16 15 15 17 16
13 21 23 24 23 21 20 19 19 18 17 16 15 13 14 14 13 14 17 16 16 15 19 16 14 12 19 20 18 18 17 16 16 15 14 15 16 16 15 16 15 15 14
13 20 22 23 22 20 19 18 18 17 17 17 16 14 14 15 14 16 18 17 19 15 17 14 16 19 20 20 19 17 15 15 15 14 13 14 18 14 13 14 13 12 12
15 16 20 22 21 20 18 18 17 17 17 17 17 15 14 17 16 19 18 17 16 13 15 16 18 22 20 19 16 13 13 14 14 13 12 11 12 11 11 12 10 10 8
15 14 14 22 21 19 17 16 16 17 17 18 17 16 16 17 18 20 19 15 14 14 16 18 19 20 19 17 14 11 11 12 11 11 11 10 9 9 9 9 9 9 8
14 15 13 21 20 18 16 15 16 17 18 18 18 18 17 19 19 20 21 16 15 16 18 18 18 17 17 16 13 10 9 10 10 9 9 10 9 10 9 9 9 9 9
15 16 15 19 16 17 16 15 14 17 19 20 20 20 19 19 20 21 20 18 16 18 18 18 18 17 17 15 13 10 10 11 9 9 8 8 9 9 9 9 8 8 8
15 17 16 16 16 16 15 14 14 17 19 20 22 21 20 21 22 21 20 20 18 19 19 19 18 17 16 14 11 8 8 8 9 8 8 7 7 7 7 7 7 7 7
15 17 19 19 17 16 14 14 14 17 19 20 22 23 22 21 22 21 21 21 21 21 20 18 17 16 15 13 11 8 6 7 7 7 7 6 6 6 5 5 6 7 7
14 15 17 20 20 19 17 14 14 16 19 21 22 23 23 22 22 23 23 22 23 23 20 18 16 14 13 12 10 8 6 4 6 5 5 4 4 3 4 4 5 6 7
17 15 18 20 22 22 19 18 16 16 18 21 23 24 23 22 24 26 24 27 26 24 21 18 15 14 12 12 11 9 7 4 4 4 3 3 2 2 2 3 4 5 5
22 22 20 22 23 25 23 20 16 14 17 21 24 25 25 26 27 28 25 23 27 25 21 18 15 13 12 11 11 11 8 5 3 2 1 2 2 3 3 3 3 4 4
22 22 21 22 22 22 24 21 16 13 17 22 25 27 30 30 26 26 25 24 24 25 22 19 16 13 12 11 11 12 9 7 5 3 1 1 3 3 3 4 5 5 6
23 24 24 22 23 20 24 17 13 8 14 24 29 31 33 33 29 29 30 28 27 28 25 20 16 13 13 12 11 11 9 8 7 4 2 2 2 3 4 5 6 7 8
21 21 22 23 25 26 31 28 29 27 24 27 35 34 35 34 31 31 32 29 28 27 25 21 17 15 13 11 12 10 8 8 7 5 2 2 3 3 7 5 3 5 9
19 20 20 24 26 28 28 26 30 31 31 33 35 37 38 35 31 29 35 33 31 27 24 21 18 15 13 11 12 10 9 10 9 7 5 3 5 7 7 8 6 6 10
17 21 20 22 23 24 26 27 30 31 34 31 31 43 40 35 30 34 36 36 31 25 24 21 19 17 15 12 12 12 12 11 9 6 5 8 8 10 10 11 11 13 15
18 21 21 22 24 24 23 25 27 39 38 31 42 40 40 32 27 31 32 32 27 26 25 22 20 18 15 15 13 14 13 11 10 10 11 11 11 14 13 13 16 18 17
18 22 17 22 25 25 23 20 25 30 37 40 36 33 32 32 26 25 28 30 29 28 26 23 20 18 18 17 16 15 14 11 12 13 12 15 13 16 16 16 20 16 12
21 22 17 18 25 20 18 16 28 33 34 34 30 32 31 31 32 32 31 28 30 29 26 23 22 21 20 18 17 16 16 15 16 17 16 16 16 18 19 21 16 11 10
24 23 21 22 21 22 23 20 24 37 37 34 29 27 31 32 29 26 29 29 28 27 26 24 23 22 21 17 18 18 17 17 18 19 20 20 20 20 18 16 13 11 9
19 22 21 23 21 24 21 23 22 28 31 30 30 32 35 37 30 31 33 31 29 28 26 24 25 23 21 20 20 20 20 21 21 21 23 21 19 19 15 11 10 10 10
25 23 23 21 21 23 25 25 30 30 31 35 30 31 32 31 31 32 33 32 30 27 26 25 24 24 24 23 25 21 10 13 21 25 24 22 19 17 14 9 8 12 12
24 25 23 20 23 28 24 27 34 36 38 33 31 30 30 33 32 33 31 30 30 28 25 23 24 25 25 24 25 29 28 16 12 12 25 24 20 18 15 11 14 15 15
21 25 25 20 24 30 28 26 33 32 26 27 30 27 27 29 30 31 30 29 28 27 27 24 24 22 22 22 27 27 27 29 26 21 22 25 22 17 17 15 19 17 18
16 26 25 20 19 27 29 19 31 25 25 26 24 24 23 24 25 27 29 27 25 23 23 21 21 22 24 27 23 28 30 32 35 29 20 20 22 18 19 22 21 21 19

GFSSE_850_spd_111.txt.gz
Wind_Speed
17 22 26 25 23 22 23 22 21 18 16 16 15 13 12 11 10 8 10 11 12 16 17 14 12 15 14 13 14 15 13 13 14 15 15 15 15 14 14 14 14 15 15
15 22 25 25 23 22 21 20 20 18 16 14 15 13 12 12 11 11 13 13 14 17 16 12 10 15 16 16 15 13 13 14 15 14 14 15 14 13 14 14 13 13 12
16 23 25 25 23 22 21 20 19 18 16 15 13 11 13 13 12 15 15 14 14 16 16 13 12 17 16 15 15 14 14 14 14 14 14 16 14 11 13 11 10 9 7
14 19 22 23 22 21 20 19 18 18 17 16 15 14 13 14 14 17 16 18 14 16 12 15 17 18 17 15 13 12 13 12 12 12 12 11 11 10 9 8 8 7 7
17 19 20 22 22 20 19 18 18 17 17 16 16 14 14 16 17 18 18 17 14 12 13 17 19 17 15 13 13 13 12 11 10 10 9 8 6 8 9 9 8 8 8
19 20 20 22 22 19 17 17 16 17 17 17 16 15 15 17 18 19 18 13 13 13 15 18 17 16 14 11 10 10 10 10 9 9 8 8 7 8 8 8 8 8 7
18 19 19 21 21 19 17 16 16 16 17 18 18 17 17 17 19 21 18 14 14 16 17 17 16 14 12 9 8 8 9 9 9 8 8 7 8 7 7 7 7 6 8
17 21 18 21 20 18 17 16 16 16 18 18 19 19 18 19 20 20 18 15 16 18 17 17 16 14 13 10 8 8 7 7 8 8 7 6 6 6 5 5 5 6 7
16 21 21 22 21 18 19 17 16 16 18 19 20 20 20 20 20 20 18 17 17 19 18 17 16 15 13 10 8 7 7 6 7 7 6 5 4 4 4 4 5 6 6
16 16 18 22 22 21 21 19 17 16 19 19 20 21 21 21 20 21 18 18 18 19 19 18 16 15 13 10 8 6 5 5 5 5 4 3 2 2 2 3 3 5 6
17 18 19 19 19 21 21 19 18 18 18 19 21 22 22 23 23 22 21 20 19 21 20 19 17 14 13 11 10 7 6 4 4 3 3 1 1 1 2 2 3 3 4
19 21 21 22 21 21 23 20 19 19 20 21 22 23 24 24 23 24 23 21 22 23 21 19 17 15 14 12 11 10 7 6 4 3 2 0 1 2 2 3 3 4 4
19 25 22 23 20 22 21 20 21 19 19 21 21 22 25 25 26 27 25 24 26 28 24 21 18 16 15 13 13 12 10 8 6 4 2 1 1 2 3 4 5 6 6
18 23 21 24 22 20 20 18 22 20 13 16 21 24 27 29 30 29 28 28 29 29 26 23 20 17 15 14 14 14 12 10 8 6 4 2 2 2 2 5 5 7 7
15 19 22 23 22 21 20 20 20 16 18 13 15 24 29 32 35 31 30 30 30 30 27 25 21 18 16 15 14 14 13 11 11 9 7 3 4 4 4 6 5 6 8
14 17 18 22 23 22 22 24 22 23 25 23 25 26 31 34 38 35 31 32 31 31 29 26 23 19 16 15 15 15 13 13 11 10 8 7 5 6 8 9 8 8 9
17 16 19 20 23 26 27 29 29 27 29 34 30 31 35 39 40 40 34 33 34 33 30 27 24 21 19 18 16 16 15 15 13 12 9 9 10 10 11 13 14 13 15
21 20 21 22 22 24 26 28 29 28 29 31 31 31 32 39 41 42 38 34 35 33 30 29 25 23 21 19 16 15 15 15 15 14 14 15 12 14 15 16 15 17 19
23 21 24 22 23 26 27 28 27 27 28 31 38 31 35 40 50 47 40 34 35 34 30 29 26 24 22 21 18 16 17 17 16 16 17 15 16 16 17 17 17 20 19
27 23 24 25 21 23 27 28 26 27 26 28 39 39 33 41 38 32 27 30 32 33 30 29 28 24 23 19 16 18 17 18 19 19 19 18 18 18 19 19 20 19 15
26 30 26 26 24 24 26 28 26 29 29 29 34 37 35 32 25 23 24 27 29 32 31 30 26 24 24 20 19 20 20 20 22 23 22 20 20 21 21 22 21 17 13
25 30 29 28 25 25 24 22 22 24 22 25 31 31 33 34 41 27 31 31 31 34 33 30 29 26 24 23 21 19 19 23 26 23 23 22 23 23 22 20 19 15 11
27 30 29 29 27 23 19 21 23 21 18 24 34 30 31 29 31 29 26 29 36 33 33 31 28 28 29 24 24 19 11 13 19 28 27 26 26 25 22 21 18 14 11
27 28 26 25 22 19 17 22 25 26 21 23 29 31 27 31 31 31 33 29 28 31 29 28 28 29 27 25 24 27 27 18 9 9 21 29 29 28 26 23 20 18 16
22 25 25 24 21 18 18 22 27 26 29 29 29 27 28 25 27 29 25 26 30 32 32 30 30 29 27 26 26 25 25 29 30 23 20 22 27 30 28 25 22 20 19
21 23 23 23 18 16 18 25 31 31 28 30 33 35 29 28 27 28 27 26 30 31 32 31 30 26 24 23 24 26 28 28 30 30 34 40 37 33 31 26 25 23 21

GFSSE_850_spd_114.txt.gz
Wind_Speed
16 21 25 25 24 22 20 20 19 17 16 14 12 11 9 8 7 6 9 10 12 13 15 14 14 15 13 11 11 11 10 13 14 15 15 14 13 13 14 15 14 14 13
15 21 24 25 24 22 21 20 19 17 15 14 13 12 11 9 8 8 10 13 15 15 11 11 16 15 14 15 12 12 12 14 14 14 14 14 14 13 13 13 12 11 9
13 21 23 25 23 21 21 19 18 17 15 13 13 12 11 11 10 11 11 14 16 15 11 11 15 15 15 14 13 13 13 13 14 14 14 14 13 12 11 10 8 6 7
10 18 22 24 22 21 20 19 18 17 15 13 12 12 11 12 12 14 12 13 15 16 12 13 15 15 15 15 13 13 12 11 12 12 10 10 10 8 6 6 6 8 9
14 17 20 22 21 20 20 19 18 17 15 14 12 11 12 12 14 14 16 14 14 13 11 15 16 16 15 13 12 12 11 10 10 9 7 6 6 7 8 7 8 8 8
15 16 19 20 20 19 18 17 17 16 16 14 13 13 12 14 15 16 17 14 9 11 14 16 16 15 14 13 11 10 9 9 9 8 7 7 6 7 7 7 7 7 7
16 16 17 19 20 19 17 16 16 16 16 16 15 15 14 15 17 18 16 11 11 13 15 16 15 13 12 11 10 9 9 8 8 7 7 6 6 6 6 6 6 6 7
11 15 18 18 19 18 17 16 16 16 16 17 17 16 15 16 18 18 16 13 13 15 16 15 15 12 10 9 9 8 8 8 8 7 6 5 5 5 5 5 5 6 7
11 14 16 18 19 19 18 17 17 17 17 18 18 18 17 18 19 19 17 15 15 17 17 16 15 13 11 9 8 7 7 7 7 6 5 4 3 3 3 4 5 6 6
11 14 17 17 20 20 20 20 19 18 19 18 19 19 19 19 18 20 18 17 16 18 18 17 16 14 12 10 9 7 7 6 6 4 4 2 2 2 2 3 4 5 5
14 16 17 18 18 20 19 19 18 17 18 19 18 19 19 21 19 21 20 17 17 19 19 18 17 15 13 11 10 8 7 6 5 4 3 1 1 1 2 3 3 4 4
17 19 20 19 18 21 20 20 19 19 19 21 20 20 21 21 21 22 21 19 19 21 21 20 18 17 15 13 11 9 8 6 5 4 4 2 1 2 2 4 4 5 5
11 19 21 21 20 21 20 20 19 18 19 20 21 21 21 23 23 22 24 23 22 23 24 23 21 19 16 14 12 11 10 8 6 5 5 4 2 2 2 4 6 6 7
14 15 20 24 22 23 22 20 18 18 18 20 20 21 23 24 25 26 26 26 25 26 27 25 23 20 18 16 14 13 12 10 9 8 6 5 5 3 2 4 6 8 8
16 16 18 21 22 22 23 22 19 18 16 14 14 15 23 24 26 28 27 27 26 26 30 28 25 22 20 18 16 15 14 12 11 11 10 7 5 5 5 4 5 6 6
20 17 19 21 22 22 22 21 20 20 20 16 17 16 17 19 26 29 29 28 29 28 30 29 26 24 21 19 17 16 15 15 14 13 11 10 8 6 7 7 8 9 10
26 20 18 20 23 24 24 22 23 25 23 20 23 23 20 22 27 32 33 32 34 31 30 29 27 25 22 21 19 18 17 17 16 14 13 12 12 12 12 12 11 13 14
30 27 21 20 24 24 26 26 26 30 28 27 28 27 28 27 29 36 35 34 39 35 33 32 29 27 25 22 20 18 18 18 18 17 15 14 14 14 15 17 15 16 17
31 32 26 24 25 25 25 27 30 35 33 30 30 29 30 30 32 38 38 38 40 43 38 33 31 29 26 23 20 17 17 18 18 18 18 18 16 15 15 15 16 18 19
28 35 29 27 25 25 25 28 29 30 31 30 31 32 34 34 35 33 43 44 43 40 36 34 31 30 28 24 20 19 19 19 20 21 21 20 18 16 18 16 18 19 20
28 34 35 30 27 28 24 25 28 30 29 30 28 31 33 32 33 31 39 47 45 38 29 30 31 30 28 23 20 21 21 21 23 24 24 21 21 19 20 18 20 21 19
32 28 33 33 30 29 29 26 26 24 25 26 26 28 34 30 33 28 36 36 31 24 29 33 30 31 29 24 21 20 21 22 26 26 24 24 22 21 21 21 22 21 19
30 29 32 33 32 31 30 26 24 24 25 23 26 20 26 27 29 31 28 23 28 35 40 33 28 31 28 24 23 20 8 13 12 17 25 24 23 24 25 24 25 23 20
23 27 30 31 32 31 27 26 26 25 24 22 19 19 23 25 28 34 33 27 17 21 32 30 27 31 28 27 26 26 29 18 7 5 8 13 21 26 28 29 26 24 22
22 27 33 32 30 28 27 25 23 23 23 21 18 17 21 22 26 32 36 27 32 25 27 34 35 35 32 31 30 30 28 29 30 30 27 24 23 23 26 31 32 30 28
20 22 28 30 29 26 24 21 19 21 24 25 24 23 22 19 22 30 33 29 26 24 28 31 33 32 32 33 32 32 30 29 25 27 29 30 34 34 40 36 36 37 33

GFSSE_850_spd_117.txt.gz
Wind_Speed
11 17 21 19 19 19 20 19 16 15 14 12 11 10 7 5 5 5 7 8 11 14 19 18 15 13 11 12 12 12 13 15 15 15 14 13 13 14 14 14 13 12 10
10 19 22 20 18 17 18 18 16 15 13 12 11 9 8 7 6 7 9 10 12 14 14 14 15 13 12 13 12 12 14 14 14 15 15 16 14 13 13 12 10 8 7
10 17 23 21 18 16 16 17 16 14 12 11 10 10 8 8 7 8 10 11 13 11 12 16 14 13 14 13 14 14 14 14 14 13 14 15 13 11 10 8 6 6 7
9 17 21 22 20 18 17 16 16 14 13 11 10 10 9 9 9 10 12 13 14 10 7 15 14 15 15 15 14 14 13 13 13 12 9 11 9 7 6 6 7 7 7
7 15 18 21 20 18 18 17 16 15 13 12 10 10 10 10 11 14 12 15 14 11 7 13 15 16 14 13 13 12 11 11 10 9 8 8 8 8 7 7 7 7 7
5 13 17 20 20 18 16 17 16 15 14 12 11 10 10 10 12 14 15 14 12 10 10 13 15 14 13 12 11 10 10 10 9 8 7 7 7 7 7 6 7 7 7
7 13 16 18 19 18 17 16 16 16 15 14 13 12 11 11 13 14 18 11 9 10 13 14 15 14 12 11 10 9 9 9 9 8 7 7 7 6 6 5 6 6 7
4 10 14 15 17 18 17 17 16 16 15 15 15 14 13 12 14 16 15 11 10 12 15 15 14 13 11 10 9 9 8 9 9 8 7 6 5 5 5 5 5 6 7
8 10 13 13 15 18 18 18 17 16 16 16 16 16 15 15 15 16 15 12 11 14 15 15 14 12 11 9 8 8 8 8 7 7 6 5 4 3 3 3 4 5 6
9 11 14 15 15 18 19 18 18 18 18 17 17 17 17 16 17 16 16 14 12 14 15 15 14 13 11 10 9 8 7 7 7 5 5 4 3 2 2 2 3 4 5
11 13 16 16 15 17 19 19 17 17 17 18 18 18 18 18 18 18 18 16 14 15 16 16 15 14 12 11 10 9 7 7 6 5 4 3 2 2 1 0 2 3 3
11 14 16 17 18 17 18 18 18 17 18 19 20 19 20 18 18 18 18 18 15 15 17 18 17 16 15 13 12 10 9 7 7 6 5 4 4 3 2 2 2 3 4
10 13 17 19 19 19 17 17 17 18 16 18 21 20 21 20 19 20 20 21 18 17 20 20 20 20 18 15 14 12 11 9 8 7 7 6 5 4 3 2 4 5 5
17 13 15 19 21 21 20 21 19 17 16 16 18 21 21 21 22 23 22 22 21 20 21 22 22 21 19 18 16 14 13 11 10 9 8 8 7 5 4 2 5 6 6
24 19 18 20 23 25 24 22 21 19 17 16 18 20 20 22 23 23 24 23 24 23 22 24 25 23 22 20 19 17 15 14 12 11 11 10 8 6 6 4 4 5 5
28 26 20 22 23 26 27 24 23 20 19 17 18 16 16 16 17 21 23 25 25 25 24 24 26 25 24 23 21 19 17 16 15 14 13 13 12 9 8 8 5 6 7
28 29 27 21 23 25 26 24 24 22 21 21 19 17 16 17 17 21 24 25 27 26 25 24 27 28 27 25 23 21 19 17 18 16 15 15 14 13 13 12 11 11 11
28 29 31 25 24 25 28 27 27 25 24 24 25 20 22 22 22 23 26 28 30 30 26 26 26 29 28 27 25 23 22 20 20 19 18 17 17 16 15 15 17 17 15
26 30 31 30 25 26 28 29 29 29 28 29 32 27 25 25 26 26 27 30 33 32 32 33 29 28 29 28 26 24 24 22 21 21 21 20 18 18 17 17 16 16 16
25 30 30 33 29 26 28 29 30 31 30 32 35 33 29 27 27 28 28 31 35 38 38 37 30 29 30 31 27 26 24 24 22 23 22 21 20 20 19 18 19 17 17
25 27 32 33 34 30 29 31 31 32 32 34 35 33 30 29 31 31 32 33 34 39 41 36 36 36 33 32 28 27 27 26 26 25 24 23 22 21 21 21 21 21 19
25 29 33 33 36 33 29 31 31 31 32 31 31 30 30 31 33 33 32 34 34 37 43 33 35 37 33 30 27 25 21 25 27 25 27 26 24 23 23 23 21 22 22
26 33 34 35 34 34 31 30 30 27 27 28 29 30 28 29 32 30 28 31 31 32 35 38 34 36 38 35 29 25 10 12 14 17 18 22 24 23 23 22 21 24 25
22 25 31 34 30 33 32 30 31 31 29 27 24 20 20 20 21 24 25 28 30 31 30 34 35 40 38 40 31 27 27 28 16 11 8 8 16 16 19 21 20 20 26
15 19 23 25 28 31 32 30 29 29 25 22 20 20 17 15 18 23 24 26 28 28 25 31 35 38 35 35 33 24 31 33 34 33 28 28 29 28 24 23 26 30 32
15 19 23 25 29 28 29 28 28 26 23 22 23 21 19 16 17 21 23 25 29 31 25 26 32 31 28 27 27 30 36 33 31 29 35 34 31 30 30 32 34 36 40